[[{"header":{"parameterUnit":"m.s-1","parameterCategory":1,"la1":30.6,"la2":28.766,"lo1":-90.7593,"lo2":-88.6598,"dy":0.0162,"dx":0.0183,"nx":116,"ny":114,"refTime":"2023-06-27T12:00:00:Z","depth":0,"parameterNumber":2,"parameterNumberName":"U-component_of_WINDS"},"data":[0.0,0.0,0.0,0.0,0.0,0.0,0.0,0.0,0.0,0.0,0.0,0.0,0.0,0.0,0.0,0.0,0.0,0.0,0.0,0.0,0.0,0.0,0.0,0.0,0.0,0.0,0.0,0.0,0.0,0.0,0.0,0.0,0.0,0.0,0.0,0.0,0.0,0.0,0.0,0.0,0.0,0.0,0.0,0.0,0.0,0.0,0.0,0.0,0.0,0.0,0.0,0.0,0.0,0.0,0.0,0.0,0.0,0.0,0.0,0.0,0.0,0.0,0.0,0.0,0.0,0.0,0.0,0.0,0.0,0.0,0.0,0.0,0.0,0.0,0.0,0.0,0.0,0.0,0.0,0.0,0.0,0.0,0.0,0.0,0.0,0.0,0.0,0.0,0.0,0.0,0.0,0.0,0.0,0.0,0.0,0.0,0.0,0.0,0.0,0.0,0.0,0.0,0.0,0.0,0.0,0.0,0.0,0.0,0.0,0.0,0.0,0.0,0.0,0.0,0.0,0.0,0.0,0.0,0.0,0.0,0.0,0.0,0.0,0.0,0.0,0.0,0.0,0.0,0.0,0.0,0.0,0.0,0.0,0.0,0.0,0.0,0.0,0.0,0.0,0.0,0.0,0.0,0.0,0.0,0.0,0.0,0.0,0.0,0.0,0.0,0.0,0.0,0.0,0.0,0.0,0.0,0.0,0.0,0.0,0.0,0.0,0.0,0.0,0.0,0.0,0.0,0.0,0.0,0.0,0.0,0.0,0.0,0.0,0.0,0.0,0.0,0.0,0.0,0.0,0.0,0.0,0.0,0.0,0.0,0.0,0.0,0.0,0.0,0.0,0.0,0.0,0.0,0.0,0.0,0.0,0.0,0.0,0.0,0.0,0.0,0.0,0.0,0.0,0.0,0.0,0.0,0.0,0.0,0.0,0.0,0.0,0.0,0.0,0.0,0.0,0.0,0.0,0.0,0.0,0.0,0.0,0.0,0.0,0.0,0.0,0.0,0.0,0.0,0.0,0.0,0.0,0.0,0.0,0.0,0.0,0.0,0.0,0.0,0.0,0.0,0.0,0.0,0.0,0.0,0.0,0.0,0.0,0.0,0.0,0.0,0.0,0.0,0.0,0.0,0.0,0.0,0.0,0.0,0.0,0.0,0.0,0.0,0.0,0.0,0.0,0.0,0.0,0.0,0.0,0.0,0.0,0.0,0.0,0.0,0.0,0.0,0.0,0.0,0.0,0.0,0.0,0.0,0.0,0.0,0.0,0.0,0.0,0.0,0.0,0.0,0.0,0.0,0.0,0.0,0.0,0.0,0.0,0.0,0.0,0.0,0.0,0.0,0.0,0.0,0.0,0.0,0.0,0.0,0.0,0.0,0.0,0.0,0.0,0.0,0.0,0.0,0.0,0.0,0.0,0.0,0.0,0.0,0.0,0.0,0.0,0.0,0.0,0.0,0.0,0.0,0.0,0.0,0.0,0.0,0.0,0.0,0.0,0.0,0.0,0.0,0.0,0.0,0.0,0.0,0.0,0.0,0.0,0.0,0.0,0.0,0.0,0.0,0.0,0.0,0.0,0.0,0.0,0.0,0.0,0.0,0.0,0.0,0.0,0.0,0.0,0.0,0.0,0.0,0.0,0.0,0.0,0.0,0.0,0.0,0.0,0.0,0.0,0.0,0.0,0.0,0.0,0.0,0.0,0.0,0.0,0.0,0.0,0.0,0.0,0.0,0.0,0.0,0.0,0.0,0.0,0.0,0.0,0.0,0.0,0.0,0.0,0.0,0.0,0.0,0.0,0.0,0.0,0.0,0.0,0.0,0.0,0.0,0.0,0.0,0.0,0.0,0.0,0.0,0.0,0.0,0.0,0.0,0.0,0.0,0.0,0.0,0.0,0.0,0.0,0.0,0.0,0.0,0.0,0.0,0.0,0.0,0.0,0.0,0.0,0.0,0.0,0.0,0.0,0.0,0.0,0.0,0.0,0.0,0.0,0.0,0.0,0.0,0.0,0.0,0.0,0.0,0.0,0.0,0.0,0.0,0.0,0.0,0.0,0.0,0.0,0.0,0.0,0.0,0.0,0.0,0.0,0.0,0.0,0.0,0.0,0.0,0.0,0.0,0.0,0.0,0.0,0.0,0.0,0.0,0.0,0.0,0.0,0.0,0.0,0.0,0.0,0.0,0.0,0.0,0.0,0.0,0.0,0.0,0.0,0.0,0.0,0.0,0.0,0.0,0.0,0.0,0.0,0.0,0.0,0.0,0.0,0.0,0.0,0.0,0.0,0.0,0.0,0.0,0.0,0.0,0.0,0.0,0.0,0.0,0.0,0.0,0.0,0.0,0.0,0.0,0.0,0.0,0.0,0.0,0.0,0.0,0.0,0.0,0.0,0.0,0.0,0.0,0.0,0.0,0.0,0.0,0.0,0.0,0.0,0.0,0.0,0.0,0.0,0.0,0.0,0.0,0.0,0.0,0.0,0.0,0.0,0.0,0.0,0.0,0.0,0.0,0.0,0.0,0.0,0.0,0.0,0.0,0.0,0.0,0.0,0.0,0.0,0.0,0.0,0.0,0.0,0.0,0.0,0.0,0.0,0.0,0.0,0.0,0.0,0.0,0.0,0.0,0.0,0.0,0.0,0.0,0.0,0.0,0.0,0.0,0.0,0.0,0.0,0.0,0.0,0.0,0.0,0.0,0.0,0.0,0.0,0.0,0.0,0.0,0.0,0.0,0.0,0.0,0.0,0.0,0.0,0.0,0.0,0.0,0.0,0.0,0.0,0.0,0.0,0.0,0.0,0.0,0.0,0.0,0.0,0.0,0.0,0.0,0.0,0.0,0.0,0.0,0.0,0.0,0.0,0.0,0.0,0.0,0.0,0.0,0.0,0.0,0.0,0.0,0.0,0.0,0.0,0.0,0.0,0.0,0.0,0.0,0.0,0.0,0.0,0.0,0.0,0.0,0.0,0.0,0.0,0.0,0.0,0.0,0.0,0.0,0.0,0.0,0.0,0.0,0.0,0.0,0.0,0.0,0.0,0.0,0.0,0.0,0.0,0.0,0.0,0.0,0.0,0.0,0.0,0.0,0.0,0.0,0.0,0.0,0.0,0.0,0.0,0.0,0.0,0.0,0.0,0.0,0.0,0.0,0.0,0.0,0.0,0.0,0.0,0.0,0.0,0.0,0.0,0.0,0.0,0.0,0.0,0.0,0.0,0.0,0.0,0.0,0.0,0.0,0.0,0.0,0.0,0.0,0.0,0.0,0.0,0.0,0.0,0.0,0.0,0.0,0.0,0.0,0.0,0.0,0.0,0.0,0.0,0.0,0.0,0.0,0.0,0.0,0.0,0.0,0.0,0.0,0.0,0.0,0.0,0.0,0.0,0.0,0.0,0.0,0.0,0.0,0.0,0.0,0.0,0.0,0.0,0.0,0.0,0.0,0.0,0.0,0.0,0.0,0.0,0.0,0.0,0.0,0.0,0.0,0.0,0.0,0.0,0.0,0.0,0.0,0.0,0.0,0.0,0.0,0.0,0.0,0.0,0.0,0.0,0.0,0.0,0.0,0.0,0.0,0.0,0.0,0.0,0.0,0.0,0.0,0.0,0.0,0.0,0.0,0.0,0.0,0.0,0.0,0.0,0.0,0.0,0.0,0.0,0.0,0.0,0.0,0.0,0.0,0.0,0.0,0.0,0.0,0.0,0.0,0.0,0.0,0.0,0.0,0.0,0.0,0.0,0.0,0.0,0.0,0.0,0.0,0.0,0.0,0.0,0.0,0.0,0.0,0.0,0.0,0.0,0.0,0.0,0.0,0.0,0.0,0.0,0.0,0.0,0.0,0.0,0.0,0.0,0.0,0.0,0.0,0.0,0.0,0.0,0.0,0.0,0.0,0.0,0.0,0.0,0.0,0.0,0.0,0.0,0.0,0.0,0.0,0.0,0.0,0.0,0.0,0.0,0.0,0.0,0.0,0.0,0.0,0.0,0.0,0.0,0.0,0.0,0.0,0.0,0.0,0.0,0.0,0.0,0.0,0.0,0.0,0.0,0.0,0.0,0.0,0.0,0.0,0.0,0.0,0.0,0.0,0.0,0.0,0.0,0.0,0.0,0.0,0.0,0.0,0.0,0.0,0.0,0.0,0.0,0.0,0.0,0.0,0.0,0.0,0.0,0.0,0.0,0.0,0.0,0.0,0.0,0.0,0.0,0.0,0.0,0.0,0.0,0.0,0.0,0.0,0.0,0.0,0.0,0.0,0.0,0.0,0.0,0.0,0.0,0.0,0.0,0.0,0.0,0.0,0.0,0.0,0.0,0.0,0.0,0.0,0.0,0.0,0.0,0.0,0.0,0.0,0.0,0.0,0.0,0.0,0.0,0.0,0.0,0.0,0.0,0.0,0.0,0.0,0.0,0.0,0.0,0.0,0.0,0.0,0.0,0.0,0.0,0.0,0.0,0.0,0.0,0.0,0.0,0.0,0.0,0.0,0.0,0.0,0.0,0.0,0.0,0.0,0.0,0.0,0.0,0.0,0.0,0.0,0.0,0.0,0.0,0.0,0.0,0.0,0.0,0.0,0.0,0.0,0.0,0.0,0.0,0.0,0.0,0.0,0.0,0.0,0.0,0.0,0.0,0.0,0.0,0.0,0.0,0.0,0.0,0.0,0.0,0.0,0.0,0.0,0.0,0.0,0.0,0.0,0.0,0.0,0.0,0.0,0.0,0.0,0.0,0.0,0.0,0.0,0.0,0.0,0.0,0.0,0.0,0.0,0.0,0.0,0.0,0.0,0.0,0.0,0.0,0.0,0.0,0.0,0.0,0.0,0.0,0.0,0.0,0.0,0.0,0.0,0.0,0.0,0.0,0.0,0.0,0.0,0.0,0.0,0.0,0.0,0.0,0.0,0.0,0.0,0.0,0.0,0.0,0.0,0.0,0.0,0.0,0.0,0.0,0.0,0.0,0.0,0.0,0.0,0.0,0.0,0.0,0.0,0.0,0.0,0.0,0.0,0.0,0.0,0.0,0.0,0.0,0.0,0.0,0.0,0.0,0.0,0.0,0.0,0.0,0.0,0.0,0.0,0.0,0.0,0.0,0.0,0.0,0.0,0.0,0.0,0.0,0.0,0.0,0.0,0.0,0.0,0.0,0.0,0.0,0.0,0.0,0.0,0.0,0.0,0.0,0.0,0.0,0.0,0.0,0.0,0.0,0.0,0.0,0.0,0.0,0.0,0.0,0.0,0.0,0.0,0.0,0.0,0.0,0.0,0.0,0.0,0.0,0.0,0.0,0.0,0.0,0.0,0.0,0.0,0.0,0.0,0.0,0.0,0.0,0.0,0.0,0.0,0.0,0.0,0.0,0.0,0.0,0.0,0.0,0.0,0.0,0.0,0.0,0.0,0.0,0.0,0.0,0.0,0.0,0.0,0.0,0.0,0.0,0.0,0.0,0.0,0.0,0.0,0.0,0.0,0.0,0.0,0.0,0.0,0.0,0.0,0.0,0.0,0.0,0.0,0.0,0.0,0.0,0.0,0.0,0.0,0.0,0.0,0.0,0.0,0.0,0.0,0.0,0.0,0.0,0.0,0.0,0.0,0.0,0.0,0.0,0.0,0.0,0.0,0.0,0.0,0.0,0.0,0.0,0.0,0.0,0.0,0.0,0.0,0.0,0.0,0.0,0.0,0.0,0.0,0.0,0.0,0.0,0.0,0.0,0.0,0.0,0.0,0.0,0.0,0.0,0.0,0.0,0.0,0.0,0.0,0.0,0.0,0.0,0.0,0.0,0.0,0.0,0.0,0.0,0.0,0.0,0.0,0.0,0.0,0.0,0.0,0.0,0.0,0.0,0.0,0.0,0.0,0.0,0.0,0.0,0.0,0.0,0.0,0.0,0.0,0.0,0.0,0.0,0.0,0.0,0.0,0.0,0.0,0.0,0.0,0.0,0.0,0.0,0.0,0.0,0.0,0.0,0.0,0.0,0.0,0.0,0.0,0.0,0.0,0.0,0.0,0.0,0.0,0.0,0.0,0.0,0.0,0.0,0.0,0.0,0.0,0.0,0.0,0.0,0.0,0.0,0.0,0.0,0.0,0.0,0.0,0.0,0.0,0.0,0.0,-4.812,0.0,0.0,0.0,0.0,0.0,0.0,0.0,0.0,0.0,0.0,0.0,0.0,0.0,0.0,0.0,0.0,0.0,0.0,0.0,0.0,0.0,0.0,0.0,0.0,0.0,0.0,0.0,0.0,0.0,0.0,0.0,0.0,0.0,0.0,0.0,0.0,0.0,0.0,0.0,0.0,0.0,0.0,0.0,0.0,0.0,0.0,0.0,0.0,0.0,0.0,0.0,0.0,0.0,0.0,0.0,0.0,0.0,0.0,0.0,0.0,0.0,0.0,0.0,0.0,0.0,0.0,0.0,0.0,0.0,0.0,0.0,0.0,0.0,0.0,0.0,0.0,0.0,0.0,0.0,0.0,0.0,0.0,0.0,0.0,0.0,0.0,0.0,0.0,0.0,0.0,0.0,0.0,0.0,0.0,0.0,0.0,0.0,0.0,0.0,0.0,0.0,0.0,0.0,0.0,0.0,0.0,0.0,0.0,0.0,0.0,0.0,0.0,0.0,0.0,0.0,0.0,-4.9037,0.0,0.0,0.0,0.0,0.0,0.0,0.0,0.0,0.0,0.0,0.0,0.0,0.0,0.0,0.0,0.0,0.0,0.0,0.0,0.0,0.0,0.0,0.0,0.0,0.0,0.0,0.0,0.0,0.0,0.0,0.0,0.0,0.0,0.0,0.0,0.0,0.0,0.0,0.0,0.0,0.0,0.0,0.0,0.0,0.0,0.0,0.0,0.0,0.0,0.0,0.0,0.0,0.0,0.0,0.0,0.0,0.0,0.0,0.0,0.0,0.0,0.0,0.0,0.0,0.0,0.0,0.0,0.0,0.0,0.0,0.0,0.0,0.0,0.0,0.0,0.0,0.0,0.0,0.0,0.0,0.0,0.0,0.0,0.0,0.0,0.0,0.0,0.0,0.0,0.0,0.0,0.0,0.0,0.0,0.0,0.0,0.0,0.0,0.0,0.0,0.0,0.0,0.0,0.0,0.0,0.0,0.0,0.0,-5.3741,-5.4299,-5.4299,-5.4299,-5.478,-5.5511,-5.3933,-5.3015,-5.2488,0.0,0.0,0.0,0.0,0.0,0.0,0.0,0.0,0.0,0.0,0.0,0.0,0.0,0.0,0.0,0.0,0.0,0.0,0.0,0.0,0.0,0.0,0.0,0.0,0.0,0.0,0.0,0.0,0.0,0.0,0.0,0.0,0.0,0.0,0.0,0.0,0.0,0.0,-3.6852,-3.6845,-3.7663,-3.8018,-3.7887,-3.6362,0.0,0.0,0.0,0.0,0.0,0.0,0.0,0.0,0.0,0.0,0.0,0.0,0.0,0.0,0.0,0.0,0.0,0.0,0.0,0.0,0.0,0.0,0.0,0.0,0.0,0.0,0.0,0.0,0.0,0.0,0.0,0.0,0.0,0.0,0.0,0.0,0.0,0.0,0.0,0.0,0.0,0.0,0.0,-4.7517,-4.9118,0.0,0.0,0.0,0.0,0.0,0.0,0.0,0.0,0.0,0.0,0.0,0.0,0.0,0.0,-5.2683,-5.4357,-5.5203,-5.5222,-5.7569,-5.8665,-5.8665,-5.8665,-5.9146,-5.9915,-5.8934,0.0,-5.2583,-5.112,0.0,0.0,0.0,0.0,0.0,0.0,0.0,0.0,0.0,0.0,0.0,0.0,0.0,0.0,0.0,0.0,0.0,0.0,0.0,0.0,0.0,0.0,0.0,0.0,0.0,0.0,0.0,0.0,0.0,0.0,0.0,0.0,0.0,0.0,0.0,0.0,-3.5776,-3.6211,-3.622,-3.6639,-3.7099,-3.7515,-3.6347,-3.6749,-3.8215,-3.6931,0.0,0.0,0.0,0.0,0.0,0.0,0.0,0.0,0.0,0.0,0.0,0.0,0.0,0.0,0.0,0.0,0.0,0.0,0.0,0.0,0.0,0.0,0.0,0.0,0.0,0.0,0.0,0.0,0.0,0.0,0.0,0.0,0.0,0.0,0.0,0.0,0.0,0.0,0.0,-4.6543,-4.8747,-4.7912,-4.8646,-4.8613,0.0,0.0,0.0,0.0,0.0,0.0,0.0,0.0,0.0,-5.2779,-5.3626,-5.4453,-5.5318,-5.6992,-5.7838,-5.7857,-5.9454,-6.0223,-6.0223,-6.0223,-6.0435,-6.0781,-6.0396,-5.8673,-5.5965,-5.3821,-5.1764,-4.9753,0.0,0.0,0.0,0.0,0.0,-4.6195,0.0,0.0,0.0,0.0,0.0,0.0,0.0,0.0,0.0,0.0,0.0,0.0,0.0,0.0,0.0,-3.3586,0.0,0.0,0.0,0.0,0.0,0.0,0.0,0.0,0.0,0.0,0.0,-3.5074,-3.5547,-3.5789,-3.5789,-3.6102,-3.6639,-3.7277,-3.6752,-3.73,-3.8565,-3.7264,-3.6936,0.0,0.0,0.0,0.0,0.0,0.0,0.0,0.0,0.0,0.0,0.0,0.0,0.0,0.0,0.0,0.0,0.0,0.0,0.0,0.0,0.0,0.0,0.0,0.0,0.0,0.0,0.0,0.0,0.0,0.0,0.0,0.0,0.0,0.0,0.0,0.0,0.0,0.0,-4.8105,-4.9921,-4.7442,-4.9711,-5.0343,0.0,0.0,0.0,0.0,0.0,0.0,-5.2491,-5.276,-5.3664,-5.5415,-5.6242,-5.7088,-5.7953,-5.9204,-5.9838,-5.9838,-6.0492,-6.0685,-6.0473,-6.0704,-6.0685,-6.0473,-6.0704,-6.0092,-5.8745,-5.6015,-5.3988,-5.2325,-4.9657,-4.8122,-4.7498,-4.8086,-4.8067,-4.7921,0.0,0.0,0.0,0.0,0.0,0.0,0.0,0.0,0.0,0.0,0.0,0.0,0.0,0.0,-3.0975,-3.2798,-3.1552,-3.0794,0.0,0.0,0.0,0.0,0.0,0.0,0.0,0.0,0.0,-3.4734,-3.5759,-3.6245,-3.6281,-3.7495,-3.8091,-3.8141,-3.8171,-3.8717,-3.9474,-3.7003,-3.6875,-3.8174,0.0,0.0,0.0,0.0,0.0,0.0,0.0,0.0,0.0,0.0,0.0,0.0,0.0,0.0,0.0,0.0,0.0,0.0,0.0,0.0,0.0,0.0,0.0,0.0,0.0,0.0,0.0,0.0,0.0,0.0,0.0,0.0,0.0,0.0,0.0,0.0,0.0,0.0,0.0,-5.0195,-5.3598,0.0,0.0,0.0,0.0,-5.178,-5.2529,-5.3414,-5.4318,-5.5088,-5.6299,-5.805,-5.8896,-5.9723,-6.0589,-6.0685,-6.0723,-6.0742,-6.0781,-6.0358,-5.9588,-6.0416,-6.0339,-5.9608,-6.0435,-6.0245,-5.9178,-5.6738,-5.4495,-5.2381,-5.0284,-4.8948,-4.8251,-4.8306,-4.8802,-4.9462,0.0,0.0,0.0,0.0,0.0,0.0,0.0,0.0,0.0,0.0,0.0,0.0,0.0,-2.9488,-2.9773,-3.0916,-3.0133,-2.9435,-2.9059,0.0,0.0,0.0,0.0,0.0,0.0,0.0,-3.2275,-3.3226,-3.4595,-3.4718,-3.3693,-3.5407,-3.5912,-3.5402,-3.62,-3.7061,-3.7848,-3.7064,-3.7088,-3.7523,-3.6289,-3.5725,0.0,0.0,0.0,0.0,0.0,0.0,0.0,0.0,0.0,0.0,0.0,0.0,0.0,0.0,0.0,0.0,0.0,0.0,0.0,0.0,0.0,0.0,0.0,0.0,0.0,0.0,0.0,0.0,0.0,0.0,0.0,0.0,0.0,0.0,0.0,0.0,0.0,-5.1953,-5.5026,0.0,-5.3001,-5.3631,-5.4271,-5.4339,-5.5145,-5.6242,-5.7646,-5.7992,-5.8684,-5.9877,-6.0185,-6.0492,-6.08,-6.08,-6.08,-6.08,-6.08,-6.0339,-5.9511,-5.9819,-5.9511,-5.8742,-5.9069,-5.8821,-5.8114,-5.6438,-5.5263,-5.4418,-5.3143,-5.1848,-5.0729,-5.1261,-5.0986,-5.0435,0.0,0.0,0.0,0.0,0.0,0.0,0.0,0.0,0.0,0.0,0.0,-2.7501,-2.8533,-2.8229,-2.8372,-2.9358,-2.8657,-2.8001,-2.7586,0.0,0.0,0.0,0.0,0.0,0.0,-3.0505,-3.1052,-3.1692,-3.2929,-3.2981,-3.1933,-3.3411,-3.3853,-3.3436,-3.4507,-3.538,-3.6048,-3.6482,-3.6866,-3.7124,-3.6198,-3.5778,-3.5682,0.0,0.0,0.0,0.0,0.0,0.0,0.0,0.0,0.0,0.0,0.0,0.0,0.0,0.0,0.0,0.0,0.0,0.0,0.0,0.0,0.0,0.0,0.0,0.0,0.0,0.0,0.0,0.0,0.0,0.0,0.0,0.0,0.0,0.0,0.0,-5.4433,-5.3281,-5.6636,-5.7846,-5.4753,-5.5954,-5.7063,-5.7401,-5.7953,-5.8896,-6.03,-6.0108,-6.0204,-6.0781,-6.08,-6.08,-6.08,-6.08,-6.0646,-6.0358,-6.0358,-5.9762,-5.8665,-5.8954,-5.8646,-5.7877,-5.8165,-5.8035,-5.7511,-5.6526,-5.5826,-5.5299,-5.4375,-5.3335,-5.2472,-5.3004,-5.2362,-5.1151,0.0,0.0,0.0,0.0,0.0,0.0,0.0,0.0,0.0,0.0,-2.5144,-2.5687,-2.7019,-2.663,-2.6773,-2.8142,-2.6981,-2.6349,-2.677,-2.6549,0.0,0.0,0.0,0.0,-2.9012,-2.906,-2.9432,-3.0242,-3.0919,-3.1256,-3.1225,-3.1877,-3.2293,-3.2584,-3.3401,-3.3939,-3.4332,-3.5174,-3.6165,-3.7054,-3.6091,-3.5776,-3.5873,0.0,0.0,0.0,0.0,0.0,0.0,0.0,0.0,0.0,0.0,0.0,0.0,0.0,0.0,0.0,0.0,0.0,0.0,0.0,0.0,0.0,0.0,0.0,0.0,0.0,0.0,0.0,0.0,0.0,0.0,0.0,0.0,0.0,-5.0078,-5.3945,-5.5996,-5.4394,-5.8633,-6.0278,-5.6621,-5.9324,-6.1162,-6.0831,-6.08,-6.1166,-6.1993,-6.1262,-6.08,-6.08,-6.08,-6.0781,-6.0762,-6.0762,-6.0319,-5.9454,-5.9454,-5.8588,-5.703,-5.7877,-5.778,-5.6992,-5.7838,-5.792,-5.7454,-5.6986,-5.6042,-5.4763,-5.3672,-5.3225,-5.317,-5.317,-5.2619,-5.1536,0.0,0.0,0.0,0.0,0.0,0.0,0.0,0.0,0.0,0.0,-2.3688,-2.4119,-2.4491,-2.4461,-2.4559,-2.4956,-2.4196,-2.3963,-2.4537,0.0,0.0,0.0,0.0,0.0,-2.7601,-2.7947,-2.8349,-2.8903,-3.003,-3.0098,-2.9232,-3.0812,-3.1408,-3.1205,-3.2183,-3.3026,-3.3677,-3.4121,-3.4873,-3.5766,-3.5812,-3.5816,-3.5756,0.0,0.0,0.0,0.0,0.0,0.0,0.0,0.0,0.0,0.0,0.0,0.0,0.0,0.0,0.0,0.0,0.0,0.0,0.0,0.0,0.0,0.0,0.0,0.0,0.0,0.0,0.0,0.0,0.0,0.0,0.0,0.0,-5.2402,-5.2891,-5.5058,-5.7109,-5.8476,-6.0449,-6.1262,-6.0113,-6.0779,-6.12,-6.0963,-6.0858,-6.0896,-6.1127,-6.0935,-6.08,-6.08,-6.08,-6.0492,-5.9858,-5.9858,-5.9435,-5.8627,-5.8627,-5.805,-5.6992,-5.7242,-5.6876,-5.603,-5.5684,-5.5316,-5.4871,-5.4413,-5.3508,-5.2493,-5.3617,-5.3353,-5.2325,-5.2325,-5.1041,-4.915,0.0,0.0,0.0,0.0,0.0,0.0,0.0,0.0,0.0,0.0,-2.1787,-2.1944,-2.2191,-2.2346,-2.2515,-2.2824,-2.2192,-2.211,-2.2838,0.0,0.0,0.0,0.0,-2.5529,-2.6271,-2.6541,-2.6778,-2.7059,-2.8178,-2.8347,-2.763,-2.917,-2.9783,-2.9628,-3.0627,-3.1474,-3.2202,-3.3053,-3.3891,-3.4669,-3.534,-3.5644,-3.5703,-3.5799,-3.6306,-3.7039,-3.7416,-3.8429,-3.9519,-3.8963,0.0,0.0,0.0,0.0,0.0,0.0,0.0,0.0,0.0,0.0,0.0,0.0,0.0,0.0,0.0,0.0,0.0,0.0,0.0,0.0,0.0,0.0,0.0,0.0,-5.1367,-5.3965,-5.543,-5.7109,-5.8887,-6.0723,-6.1387,-6.1656,-6.1509,-6.1373,-6.1369,-6.1537,-6.1094,-6.0954,-6.132,-6.0993,-6.08,-6.08,-6.0454,-6.0012,-5.9492,-5.9165,-5.8588,-5.7761,-5.7761,-5.73,-5.6453,-5.6453,-5.5992,0.0,-5.4703,-5.407,-5.3315,-5.2891,-5.2175,0.0,0.0,0.0,0.0,0.0,-4.9848,-4.8141,0.0,0.0,0.0,0.0,0.0,0.0,0.0,0.0,0.0,0.0,0.0,-1.953,-2.0107,-2.0233,-2.051,-2.1119,-2.0601,-2.0588,0.0,0.0,0.0,-2.3891,-2.4498,-2.4823,-2.4902,-2.4957,-2.5051,-2.5073,-2.5936,-2.6371,-2.6421,-2.7261,-2.7802,-2.8092,-2.8873,-2.96,-3.0352,-3.1927,-3.3011,-3.3739,-3.463,-3.5264,-3.5691,-3.5706,-3.6249,-3.7109,-3.7987,-3.8912,-3.975,-3.9733,0.0,0.0,0.0,0.0,0.0,0.0,0.0,0.0,0.0,0.0,0.0,0.0,0.0,0.0,0.0,0.0,0.0,0.0,0.0,0.0,0.0,0.0,0.0,0.0,-5.2109,-5.4297,-5.7578,-5.9336,-6.0625,-6.1582,-6.1699,-6.1656,-6.152,-6.1402,-6.1557,-6.2136,-6.1325,-6.1127,-6.1897,0.0,0.0,0.0,0.0,-5.9415,-5.9223,-5.8511,-5.7723,-5.6838,-5.6838,-5.6395,-5.5549,-5.5549,-5.5126,-5.4357,-5.4241,-5.351,-5.2367,-5.1991,-5.1611,-5.1211,-5.159,-5.1279,-5.0563,-4.9646,-4.8765,0.0,0.0,0.0,0.0,0.0,0.0,0.0,0.0,0.0,0.0,-1.8228,-1.8078,-1.7993,-1.815,-1.8178,-1.8221,-1.8367,-1.8232,-1.8696,0.0,0.0,-2.209,-2.2168,-2.2306,-2.2595,-2.3024,-2.3573,-2.4009,-2.4411,-2.5102,-2.5628,-2.5922,-2.6132,-2.6602,-2.732,-2.7507,-2.8211,-2.9404,-3.0271,-3.1459,-3.2827,-3.3487,-3.451,-3.563,-3.5678,-3.624,-3.7108,-3.7981,-3.9316,-4.0645,-4.0586,-4.0602,-4.0617,-4.046,-3.9394,0.0,0.0,0.0,0.0,0.0,0.0,0.0,0.0,0.0,0.0,0.0,0.0,0.0,0.0,0.0,0.0,0.0,0.0,0.0,-5.3789,-5.5176,-5.6562,-5.8652,-5.9238,-6.0,-6.1523,-6.1699,-6.1699,-6.1658,-6.1444,-6.1355,-6.1473,-6.1061,-6.0858,-6.1031,-6.0877,0.0,-5.9762,-5.9588,-5.8858,-5.7492,-5.7319,-5.6799,-5.5953,0.0,0.0,-5.4722,-5.4722,-5.426,-5.3414,-5.2722,-5.1939,-5.1159,-5.1024,-5.0538,-4.9949,-5.0016,-4.9958,-4.9646,-4.8141,-4.7076,-4.6232,0.0,0.0,0.0,0.0,0.0,0.0,0.0,0.0,0.0,0.0,-1.5533,-1.5322,-1.5322,-1.5648,-1.5867,-1.5867,-1.6557,0.0,0.0,-1.9187,-2.0141,-2.0141,-2.0414,-2.089,-2.1545,-2.1899,-2.2312,-2.2966,-2.3571,-2.3958,-2.4182,-2.4743,-2.5222,-2.5664,-2.5994,-2.6624,-2.7495,-2.8481,-2.9572,-3.0739,-3.2326,-3.3486,-3.4327,-3.5145,-3.5989,-3.6949,-3.8416,-3.9777,-4.0954,-4.133,-4.1464,-4.141,-4.0992,-4.0523,-4.0001,0.0,0.0,0.0,0.0,0.0,0.0,0.0,0.0,0.0,0.0,0.0,0.0,0.0,0.0,-4.7988,0.0,0.0,-5.2441,-5.5469,-5.5957,-5.6719,-5.8887,-5.8828,-5.9023,-6.0293,-6.0801,-6.1055,-6.1055,-6.1261,-6.1364,-6.1309,-6.0666,-6.0263,-6.0146,-5.9762,-5.9358,-5.8915,-5.8473,-5.7838,-5.6992,-5.6569,-5.6126,-5.5703,-5.5703,-5.528,-5.4511,-5.4914,-5.4164,-5.2528,-5.2343,-5.144,-5.0116,-4.966,-4.9287,-4.8948,-4.8948,-4.8948,-4.8802,-4.7572,-4.6599,-4.5773,0.0,0.0,0.0,0.0,0.0,0.0,0.0,0.0,0.0,0.0,0.0,-1.274,-1.274,-1.3107,-1.3425,0.0,0.0,0.0,0.0,-1.6861,-1.7951,-1.7951,-1.8424,-1.8934,-1.9522,-1.985,-2.0289,-2.0868,-2.1592,-2.1935,-2.1949,-2.2849,-2.3408,-2.369,-2.4219,-2.483,-2.5542,-2.6662,-2.7604,-2.8576,-3.0785,-3.2001,-3.258,-3.3938,-3.5151,-3.6402,-3.8214,-3.9325,-4.0063,-4.0956,-4.1256,-4.1207,-4.091,-4.1174,-4.1352,-4.0182,-4.0282,0.0,0.0,0.0,0.0,0.0,0.0,0.0,0.0,-4.4467,-4.5231,-4.7605,-4.8876,-5.0012,-5.1555,-5.2554,-5.3963,-5.6424,-5.6093,-5.6348,-5.8633,-5.8203,-5.791,-5.8613,-5.957,-6.0176,-6.0176,-6.0663,-6.0944,-6.0847,-6.0036,-5.9475,-5.9312,-5.8668,-5.8223,-5.805,-5.7357,-5.6915,-5.6742,-5.6049,-5.5703,-5.5703,-5.553,-5.503,-5.426,-5.4741,-5.376,-5.1682,-5.1907,-5.0987,-4.9307,-4.8438,-4.8086,-4.8067,-4.7902,-4.7829,-4.7774,-4.7113,-4.6361,-4.5553,0.0,0.0,0.0,0.0,0.0,0.0,0.0,0.0,0.0,0.0,0.0,0.0,0.0,0.0,0.0,0.0,0.0,0.0,-1.4223,-1.51,-1.5585,-1.5585,-1.5632,-1.5735,-1.5782,-1.7093,-1.7806,-1.7859,-1.9191,-1.9825,-1.9825,-1.9949,-2.066,-2.1731,-2.1777,-2.279,-2.4405,-2.492,-2.5926,-2.7291,-2.836,-2.96,-3.0917,-3.151,-3.305,-3.502,-3.597,-3.6388,-3.6634,-3.7815,-3.8196,-3.8517,-4.0321,-4.0343,-3.9829,-4.0477,-4.0684,-4.0361,-3.873,-3.8937,-4.0138,-4.2377,-4.3102,-4.4045,0.0,-4.785,-4.8467,-5.0238,-5.1307,-5.2212,-5.3186,-5.4164,-5.5426,-5.728,-5.6944,-5.6836,-5.789,-5.7305,-5.6777,-5.6875,-5.834,-5.9336,-5.9336,-5.9253,-5.917,-5.9164,-5.8843,-5.8637,-5.8602,-5.841,-5.7953,-5.7165,-5.7049,-5.6626,-5.5838,-5.5742,-5.5703,-5.5684,-5.4972,-5.4184,-5.3318,-5.2645,-5.1779,-5.0798,-5.0126,-4.9525,-4.8874,-4.7721,-4.7241,-4.7186,-4.6452,-4.6177,-4.6159,-4.6067,-4.5535,-4.4727,0.0,0.0,0.0,0.0,0.0,0.0,0.0,0.0,0.0,0.0,0.0,0.0,0.0,0.0,0.0,0.0,0.0,0.0,-1.1269,-1.1973,-1.2639,-1.3143,-1.3152,-1.3628,-1.4538,-1.5138,-1.5689,-1.6119,-1.6709,-1.6983,-1.7038,-1.7362,-1.785,-1.843,-1.9233,-2.0285,-2.1449,-2.2396,-2.3667,-2.5091,-2.6414,-2.7578,-2.8645,-2.9806,-3.0833,-3.1901,-3.3827,-3.4811,0.0,0.0,-3.6724,-3.695,-3.8319,-3.8802,-3.885,-3.8738,-3.95,-4.0239,-3.9715,-4.0584,-4.1751,-4.2261,-4.3153,-4.4554,-4.6947,-4.7583,-4.8437,-5.1095,-5.2391,-5.3331,-5.4207,-5.5103,-5.6176,0.0,-5.702,-5.6825,-5.7773,-5.6719,-5.584,-5.584,-5.6484,-5.7324,-5.834,-5.8824,-5.9023,-5.8909,-5.8256,-5.7829,-5.7744,-5.7139,-5.6626,-5.6242,-5.6242,-5.6069,-5.5703,-5.5703,-5.5703,-5.5703,-5.5357,-5.4761,-5.3933,-5.3587,-5.2543,-5.1006,-4.9936,-4.9265,-4.8807,-4.7592,-4.7113,-4.704,-4.6214,-4.5608,-4.5204,-4.5204,-4.5002,-4.458,0.0,0.0,0.0,0.0,0.0,0.0,0.0,0.0,0.0,0.0,0.0,0.0,0.0,0.0,0.0,0.0,0.0,0.0,0.0,-0.8822,-0.9379,-1.0283,-1.0283,-1.0829,-1.2034,-1.249,-1.3024,-1.3567,-1.3753,-1.387,-1.387,-1.4313,-1.4668,-1.4953,-1.6219,-1.7421,-1.8597,-1.9982,-2.1401,-2.2833,-2.4622,-2.5735,-2.6471,-2.791,-2.8733,-2.9398,-3.1783,-3.306,0.0,0.0,-3.4661,-3.5011,-3.6029,-3.6847,-3.7419,-3.7249,-3.836,-3.9718,-4.0136,-4.134,-4.245,-4.237,-4.3443,-4.4939,-4.6549,-4.732,-4.8488,-5.1157,-5.2463,-5.3476,-5.4582,-5.5352,-5.6092,-5.7048,-5.6751,-5.6641,-5.7376,-5.623,-5.539,-5.5625,-5.5449,-5.5898,-5.7402,-5.8105,-5.8416,-5.8269,-5.7556,-5.7067,-5.6927,-5.6191,-5.5748,-5.5703,-5.5472,-5.5472,-5.5703,-5.5472,-5.5376,-5.5376,-5.5126,-5.4587,-5.378,-5.3549,-5.2401,-5.0588,-4.9952,-4.9122,-4.8137,-4.7274,-4.6728,-4.6379,-4.5553,-4.4874,-4.4378,-4.4378,-4.4378,-4.4287,0.0,0.0,0.0,0.0,0.0,0.0,0.0,0.0,0.0,0.0,0.0,0.0,0.0,0.0,0.0,0.0,0.0,0.0,0.0,-0.5933,-0.5864,-0.6733,-0.6733,-0.6798,-0.6794,-0.8462,-0.9364,-0.9364,-1.0158,-1.0525,-1.0525,-1.0588,-1.0972,-1.1692,-1.2565,-1.416,-1.6297,-1.7885,-1.9408,-2.0855,-2.2819,-2.401,-2.4739,-2.5594,-2.6849,-2.834,-2.9846,0.0,0.0,-3.0885,-3.1342,-3.2198,-3.3698,-3.4494,-3.5132,-3.6738,-3.7775,-3.8625,-3.9396,-4.0222,-4.1331,-4.3257,-4.441,-4.5392,-4.6627,-4.8163,-4.9605,-5.0548,-5.1395,-5.2472,-5.4185,-5.4628,-5.501,-5.5823,-5.6203,-5.6411,-5.643,-5.5773,-5.5605,-5.6465,-5.5801,-5.5644,0.0,-5.666,-5.668,-5.6679,-5.652,-5.6367,-5.623,-5.6029,-5.5824,-5.5705,-5.4934,-5.4914,-5.5684,-5.4934,-5.453,-5.453,-5.3683,-5.2818,-5.1952,-5.1164,-5.0119,-4.8905,-4.9725,-4.871,-4.6499,-4.6512,-4.5838,-4.469,-4.3883,-4.3552,-4.3534,-4.3534,-4.3534,-4.3516,0.0,0.0,0.0,0.0,0.0,0.0,0.0,0.0,0.0,0.0,0.0,0.0,0.0,0.0,0.0,0.0,-0.1587,0.0,0.0,-0.2515,-0.3045,-0.3893,-0.4566,-0.5163,-0.5737,-0.5701,-0.5678,-0.5678,-0.5385,-0.5236,-0.5236,-0.5841,-0.6229,-0.6523,-0.86,-1.0186,-1.1465,-1.3758,-1.5961,-1.8147,-1.9585,-2.1095,-2.2519,-2.3318,-2.4219,-2.5149,0.0,0.0,0.0,-2.9536,-2.9781,-3.0288,-3.1808,-3.2399,-3.2848,-3.4679,-3.6177,-3.7547,-3.8808,-4.0359,-4.1938,-4.3175,-4.4107,-4.5009,-4.5965,-4.6778,-4.7599,-4.846,-4.9026,-4.974,-5.0894,-5.1626,-5.2543,-5.3991,-5.4821,-5.553,-5.6296,-5.5684,-5.5319,-5.5683,-5.5488,0.0,0.0,0.0,0.0,-5.6562,-5.5934,-5.5775,-5.6289,-5.6172,-5.5758,-5.5049,-5.4779,-5.4438,-5.4049,-5.378,-5.3645,-5.3626,-5.3337,-5.2741,-5.1875,-5.1068,-5.0163,-4.9179,-4.8598,-4.7782,-4.673,-4.5966,-4.5268,-4.4635,-4.3809,-4.3497,-4.3497,-4.3497,-4.3497,-4.3497,0.0,0.0,0.0,0.0,0.0,0.0,0.0,0.0,0.0,0.0,0.0,0.0,0.0,0.0,0.0,0.0,0.0,0.139,0.0,0.0,0.066,-0.0262,-0.0854,-0.1443,-0.2023,-0.1757,-0.156,-0.156,-0.1038,-0.0713,-0.0778,-0.1628,-0.2023,-0.2154,-0.477,-0.657,-0.7719,-1.0302,-1.2718,-1.5022,-1.6907,-1.8348,-1.9587,-2.0917,-2.1857,0.0,0.0,0.0,-2.6699,-2.7451,-2.7875,-2.8386,-2.9977,-3.1067,-3.2083,-3.3566,-3.4939,-3.6376,-3.8077,-3.9962,-4.1716,-4.2827,-4.3772,-4.4551,-4.5213,-4.584,-4.6473,-4.7026,-4.7412,-4.7932,-4.8779,-4.9394,-5.024,-5.173,-5.2736,-5.3798,-5.5142,-5.4629,-5.4507,-5.5575,-5.5423,-5.5368,0.0,0.0,0.0,-5.6504,-5.6007,-5.5712,-5.5923,-5.5845,-5.5346,-5.4342,-5.3955,-5.3614,-5.3262,-5.2916,-5.2741,-5.2741,-5.2433,-5.1856,-5.0991,-5.0471,-4.9606,-4.8471,-4.7947,-4.719,-4.6266,-4.5688,-4.5028,-4.4383,-4.375,-4.3497,-4.3497,-4.3497,-4.3497,-4.3497,0.0,0.0,0.0,0.0,0.0,0.0,0.0,0.0,0.0,0.0,0.0,0.0,0.0,0.0,0.0,0.0,0.0,0.0,0.0,0.0,0.0,0.4056,0.3988,0.3988,0.4053,0.3253,0.2857,0.2919,0.2986,0.2984,0.2986,0.2087,0.1635,0.1505,-0.1118,-0.3279,-0.5,-0.753,-0.9618,-1.1503,-1.4592,-1.5911,-1.6284,-1.851,0.0,0.0,0.0,0.0,-2.3618,-2.476,-2.5668,-2.664,-2.8317,-3.0491,-3.2558,-3.3317,-3.4111,-3.5244,-3.7271,-3.8995,-4.0599,-4.2316,-4.3304,-4.4002,-4.4428,-4.5393,-4.618,-4.6142,-4.6434,-4.6933,-4.7759,-4.7952,-4.8298,-4.924,-5.0281,-5.1543,-5.3228,-5.2873,-5.3418,0.0,0.0,0.0,0.0,0.0,0.0,-5.6406,0.0,-5.6069,-5.5167,-5.5104,-5.4638,-5.3584,-5.2628,-5.2492,-5.3255,-5.2318,-5.1856,-5.1837,-5.101,-5.0202,-4.9394,-4.9317,-4.8394,-4.6951,-4.7663,-4.6857,-4.5109,-4.5565,-4.504,-4.3924,-4.3612,-4.3497,-4.3497,-4.3497,-4.3497,-4.3497,0.0,0.0,0.0,0.0,0.0,0.0,0.0,0.0,0.0,0.0,0.0,0.0,0.0,0.0,0.0,0.0,0.0,0.0,0.0,0.0,0.0,0.0,0.0,0.0,0.0,0.0,0.0,0.7419,0.8085,0.8417,0.8354,0.683,0.6133,0.6,0.2754,0.1052,0.0327,-0.3584,-0.6047,-0.7553,0.0,-1.3681,-1.5193,0.0,0.0,0.0,0.0,-2.1343,-2.3054,-2.4102,-2.56,-2.7313,-2.8642,-3.0111,-3.149,-3.2363,-3.3676,-3.5101,-3.6485,-3.7842,-3.9348,-4.136,-4.1993,-4.2426,-4.3545,-4.4214,-4.4486,-4.4147,-4.3824,-4.3963,-4.507,-4.5797,-4.6932,-4.9067,-5.0663,0.0,-5.4107,-5.4222,0.0,-5.6076,-5.614,-5.5909,-5.5513,-5.5171,0.0,0.0,-5.5039,-5.4824,-5.5231,-5.525,-5.4496,-5.2831,-5.2538,-5.2115,-5.1547,-5.118,-5.101,-5.0991,-5.0144,-4.9625,-4.9356,-4.8105,-4.7298,-4.6894,-4.6432,-4.5665,-4.4726,-4.4858,-4.441,-4.3631,-4.3548,-4.3497,-4.3497,-4.3497,-4.3497,-4.3497,0.0,0.0,0.0,0.0,0.0,0.0,0.0,0.0,0.0,0.0,0.0,0.0,0.0,0.0,0.0,0.0,0.0,0.0,0.0,0.0,0.0,0.0,0.0,0.0,0.0,0.0,0.0,0.0,0.0,0.0,1.1505,1.0145,0.9322,0.8833,0.5701,0.3883,0.2967,-0.112,0.0,0.0,0.0,0.0,0.0,0.0,0.0,0.0,-1.9102,-2.0836,-2.3321,-2.4777,-2.6404,-2.7981,-2.9016,-3.0384,-3.1767,-3.2917,-3.3928,-3.4918,-3.6151,-3.7404,-3.8709,-4.0094,-4.0907,-4.1502,-4.2273,-4.2717,-4.2922,-4.2806,-4.2344,-4.2221,-4.3035,-4.3912,-4.5086,-4.6874,-4.8586,-5.0605,-5.3123,-5.3469,-5.4133,-5.5857,-5.5819,-5.55,-5.5132,-5.449,-5.4253,0.0,-5.4277,-5.4219,-5.4707,-5.4375,-5.3495,-5.2055,-5.196,-5.1612,-5.0908,-5.0839,-5.0564,-5.0106,-4.9625,-4.9009,-4.8279,-4.7336,-4.6701,-4.6297,0.0,-4.54,-4.5011,-4.4707,-4.4364,-4.3962,-4.3631,-4.3497,-4.3497,-4.3497,-4.3497,-4.3497,0.0,0.0,0.0,0.0,0.0,0.0,0.0,0.0,0.0,0.0,0.0,0.0,0.0,0.0,0.0,0.0,0.0,0.0,0.0,0.0,0.0,0.0,0.0,0.0,0.0,0.0,0.0,0.0,0.0,0.0,0.0,0.0,0.0,0.0,0.0,0.0,0.0,0.0,0.0,0.0,0.0,0.0,0.0,0.0,0.0,0.0,-1.8519,-2.0945,-2.3989,-2.5771,-2.7273,-2.8527,-2.9275,-3.0703,-3.2389,-3.3722,-3.4209,-3.4635,-3.5821,-3.7062,-3.8178,-3.8852,-3.989,-4.0796,-4.0914,-4.1157,-4.1446,-4.1663,-4.137,-4.1208,-4.1656,-4.2492,-4.3431,-4.447,-4.6009,-4.824,-5.1606,-5.2087,-5.2974,-5.5432,-5.5114,-5.4712,-5.4702,-5.3376,-5.2807,-5.3573,-5.3554,-5.3535,-5.3652,-5.2949,-5.207,-5.1094,-5.1054,-5.0899,-5.061,-5.0569,-5.012,-4.9239,-4.9124,-4.8317,-4.6913,-4.6778,-4.6317,-4.5586,0.0,0.0,-4.5495,-4.4872,-4.4553,-4.4447,-4.3758,-4.3497,-4.3497,-4.3497,-4.3497,-4.3461,0.0,0.0,0.0,0.0,0.0,0.0,0.0,0.0,0.0,0.0,0.0,0.0,0.0,0.0,0.0,0.0,0.0,0.0,0.0,0.0,0.0,0.0,0.0,0.0,0.0,0.0,0.0,0.0,0.0,0.0,0.0,0.0,0.0,0.0,0.0,0.0,0.0,0.0,0.0,0.0,0.0,0.0,0.0,0.0,0.0,0.0,-1.9745,-2.2112,-2.4396,-2.4883,-2.6234,-2.7951,-2.9113,-3.0069,-3.0886,-3.1693,-3.2713,-3.3744,-3.4601,-3.5436,-3.6466,-3.8104,-3.8696,-3.9102,-3.9904,-4.0147,-4.0092,-3.9703,-3.9758,-4.0195,-4.1188,-4.2331,-4.3835,-4.6086,-4.7259,-4.9086,-5.251,-5.2972,-5.3415,-5.4592,-5.4721,-5.4153,-5.2757,-5.2539,0.0,0.0,0.0,-5.1152,-5.1816,-5.1719,-5.0918,-4.9375,-4.9902,-4.9839,-4.9088,-4.8868,-4.8672,-4.8473,-4.7694,-4.7182,-4.6894,-4.6144,-4.574,-4.5586,0.0,0.0,-4.5159,-4.4757,-4.4401,-4.4058,-4.3646,-4.3497,-4.3497,-4.3497,-4.3497,-4.3387,0.0,0.0,0.0,0.0,0.0,0.0,0.0,0.0,0.0,0.0,0.0,0.0,0.0,0.0,0.0,0.0,0.0,0.0,0.0,0.0,0.0,0.0,0.0,0.0,0.0,1.3364,1.3974,1.4805,0.0,1.4569,1.4145,1.3786,1.2923,1.1618,0.0,0.0,0.0,0.0,0.0,0.0,0.0,0.0,0.0,0.0,0.0,0.0,-2.0104,-2.2272,-2.451,-2.4969,-2.6226,-2.7831,-2.9154,-3.0226,-3.1115,-3.179,-3.2911,-3.4049,-3.4387,-3.5248,-3.631,-3.7496,-3.7966,-3.824,-3.8583,-3.8964,-3.9123,-3.8571,-3.8932,-3.9599,-4.0517,-4.1495,-4.2774,-4.4626,-4.597,-4.7836,-5.0818,-5.1972,-5.2856,-5.3722,-5.388,-5.343,-5.2229,-5.1435,-5.0875,0.0,0.0,-4.9818,-5.0723,-5.0351,-4.9726,-4.8926,-4.9234,-4.9199,-4.8699,-4.8557,-4.8202,-4.7622,-4.7167,-4.6689,-4.6201,-4.5778,-4.5586,-4.5586,-4.5586,0.0,-4.5342,-4.4988,-4.4657,-4.428,-4.3912,-4.3646,-4.3497,-4.3497,-4.3497,-4.3369,0.0,0.0,0.0,0.0,0.0,0.0,0.0,0.0,0.0,0.0,0.0,0.0,0.0,0.0,0.0,0.0,0.0,0.0,0.0,0.0,0.0,0.0,0.0,0.0,0.0,0.0,0.0,1.3965,1.3965,0.0,0.0,0.0,0.0,0.0,0.8828,0.6961,0.0,0.0,0.0,0.0,0.0,0.0,0.0,0.0,0.0,0.0,0.0,-2.2284,-2.4484,-2.4949,-2.6031,-2.7379,-2.8406,-2.9893,-3.1325,-3.1691,-3.299,-3.4252,-3.4252,-3.5241,-3.6374,-3.6865,-3.7396,-3.7625,-3.7192,-3.7784,-3.8265,-3.7673,-3.8226,-3.9058,-3.9759,-4.0456,-4.1359,-4.266,-4.3981,-4.5899,-4.8855,-5.0411,-5.1661,-5.2799,-5.2933,0.0,-5.1625,-5.0356,0.0,0.0,0.0,0.0,-4.959,-4.8984,-4.8535,-4.8359,-4.8516,-4.8474,-4.8193,-4.8162,-4.7676,-4.6765,-4.6758,-4.6336,-4.5586,-4.5586,-4.5586,-4.5586,-4.5586,0.0,0.0,-4.5243,-4.4943,-4.4657,-4.4175,-4.3818,-4.3579,-4.3311,-4.3222,-4.3094,0.0,0.0,0.0,0.0,0.0,0.0,0.0,0.0,0.0,0.0,0.0,0.0,0.0,0.0,0.0,0.0,0.0,0.0,0.0,0.0,0.0,0.0,0.0,0.0,0.0,0.0,0.0,1.313,1.313,0.0,0.0,0.0,0.0,0.0,0.0,0.4576,0.2574,0.0,0.0,0.0,0.0,0.0,0.0,0.0,0.0,0.0,0.0,-2.269,-2.4323,-2.3903,-2.4675,-2.5794,-2.5948,-2.8046,-3.0368,-2.9836,-3.1523,-3.3508,-3.3508,-3.4583,-3.581,-3.6333,-3.6865,-3.6968,-3.5933,-3.6674,-3.7397,-3.6618,-3.7285,-3.8249,-3.9055,-3.9494,-4.0291,-4.1926,-4.2304,-4.3961,-4.8334,-4.9064,-4.9879,-5.1798,-5.2029,0.0,-4.9797,-4.9621,0.0,0.0,0.0,0.0,-4.7793,-4.7754,-4.7363,-4.6562,-4.7305,-4.7324,-4.6523,-4.6404,-4.6228,-4.5998,-4.5949,-4.5795,-4.5586,-4.5586,-4.5586,-4.5586,0.0,0.0,0.0,-4.5243,-4.5074,-4.4988,-4.429,-4.3986,-4.3819,-4.2802,-4.2415,-4.2194,0.0,0.0,0.0,0.0,0.0,0.0,0.0,0.0,0.0,0.0,0.0,0.0,0.0,0.0,0.0,0.0,0.0,0.0,0.0,0.0,0.0,0.0,0.0,0.0,0.0,0.0,0.0,0.9894,0.9894,0.0,0.0,0.0,0.0,0.0,0.0,0.0842,-0.1498,0.0,0.0,0.0,0.0,0.0,0.0,0.0,0.0,0.0,0.0,0.0,-2.4417,-2.4667,-2.5421,-2.6138,-2.5734,-2.7026,-2.8667,-2.8786,-3.0968,-3.3406,-3.3406,-3.4489,-3.5841,-3.6818,-3.6729,-3.6361,-3.6211,-3.688,-3.7257,-3.6468,-3.7393,-3.8534,-3.9016,-3.9597,-4.0146,-4.0519,-4.1453,-4.2991,-4.5538,-4.6765,-4.8154,-5.0163,-5.0394,-5.0125,0.0,0.0,0.0,0.0,0.0,0.0,-4.6797,-4.6816,-4.666,-4.6308,-4.6641,-4.6641,-4.6308,-4.6247,-4.6147,-4.6027,-4.5909,-4.5801,-4.5723,-4.5635,-4.5586,-4.5586,0.0,0.0,0.0,-4.5476,-4.5263,-4.5074,-4.4781,-4.4382,-4.3874,-4.294,-4.2461,-4.2066,0.0,0.0,0.0,0.0,0.0,0.0,0.0,0.0,0.0,0.0,0.0,0.0,0.0,0.0,0.0,0.0,0.0,0.0,0.0,0.0,0.0,0.0,0.0,0.0,0.0,0.0,0.0,0.0,0.0,0.48,0.0,0.0,0.1298,-0.065,0.0,0.0,0.0,0.0,0.0,0.0,0.0,0.0,0.0,0.0,0.0,0.0,0.0,0.0,0.0,0.0,0.0,-2.6213,-2.5749,-2.6612,-2.7834,-2.8275,-3.0323,-3.2648,-3.3246,-3.432,-3.5542,-3.6654,-3.6417,-3.5935,-3.6023,-3.6789,-3.7331,-3.6762,-3.7936,-3.9111,-3.9285,-3.9806,-4.0002,-3.9451,-4.0506,-4.1882,-4.308,-4.4753,-4.6533,-4.8297,0.0,-4.8913,0.0,-4.7355,0.0,0.0,0.0,0.0,0.0,-4.6246,-4.6268,-4.6308,-4.6308,-4.6308,-4.6308,-4.6308,-4.6225,-4.6108,-4.6001,-4.5891,-4.5796,-4.5708,-4.5635,-4.5586,0.0,0.0,0.0,-4.5586,-4.5323,-4.484,-4.4737,-4.4202,-4.3324,-4.2416,-4.186,-4.1387,0.0,0.0,0.0,0.0,0.0,0.0,0.0,0.0,0.0,0.0,0.0,0.0,0.0,0.0,0.0,0.0,0.0,0.0,0.0,0.0,0.0,0.0,0.0,0.0,0.0,0.0,0.0,0.0,0.0,0.0,0.0,-0.0837,-0.2634,-0.5165,0.0,0.0,0.0,0.0,0.0,0.0,0.0,0.0,0.0,0.0,0.0,0.0,0.0,0.0,0.0,0.0,0.0,0.0,0.0,-2.6854,-2.8405,-2.8405,-2.9349,-3.0875,-3.2858,-3.3947,-3.4692,-3.5436,-3.5769,-3.5683,-3.4906,-3.6143,-3.7507,-3.7477,-3.8762,-3.9882,-3.9882,-3.9882,-3.9625,-3.8836,-3.9368,-4.0327,-4.1558,-4.3393,-4.5085,0.0,0.0,-4.7798,-4.7009,0.0,0.0,0.0,0.0,0.0,0.0,-4.6089,-4.615,-4.6308,-4.6308,-4.6308,-4.6308,-4.6308,-4.6225,-4.6108,-4.6108,-4.5986,-4.5796,-4.5796,-4.5737,0.0,0.0,0.0,0.0,-4.5586,-4.5086,-4.428,-4.3941,-4.3107,-4.1964,-4.0755,-4.0163,-3.9808,0.0,0.0,0.0,0.0,0.0,0.0,0.0,0.0,0.0,0.0,0.0,0.0,0.0,0.0,0.0,0.0,0.0,0.0,0.0,0.0,0.0,0.0,0.0,0.0,0.0,0.0,0.0,0.0,0.0,0.0,0.0,0.0,0.0,-0.9914,-1.0561,0.0,0.0,0.0,0.0,0.0,0.0,0.0,0.0,0.0,0.0,0.0,0.0,0.0,0.0,0.0,0.0,0.0,0.0,0.0,0.0,-2.876,-3.0286,-3.184,-3.2469,-3.3186,-3.3931,-3.4658,-3.4592,-3.4518,-3.533,-3.6125,-3.6982,-3.8083,-3.9148,-3.99,-3.99,-4.0359,-4.0286,-3.8927,-3.9386,-4.0296,-4.1464,-4.2146,0.0,-4.6027,-4.6876,-4.6951,0.0,0.0,0.0,0.0,0.0,0.0,0.0,-4.5499,-4.5545,-4.6289,-4.6308,-4.6308,-4.6308,-4.6308,-4.6289,-4.6226,-4.6045,-4.5643,-4.5046,-4.4858,0.0,0.0,0.0,0.0,0.0,-4.3893,-4.372,-4.347,-4.3365,-4.2827,-4.1989,-4.1048,-4.0365,-3.9772,0.0,0.0,0.0,0.0,0.0,0.0,0.0,0.0,0.0,0.0,0.0,0.0,0.0,0.0,0.0,0.0,0.0,0.0,0.0,0.0,0.0,0.0,0.0,0.0,0.0,0.0,0.0,0.0,0.0,0.0,0.0,0.0,0.0,0.0,0.0,0.0,0.0,0.0,0.0,0.0,0.0,0.0,-2.4526,0.0,0.0,0.0,0.0,0.0,0.0,0.0,0.0,0.0,0.0,0.0,0.0,0.0,-3.0747,-3.1935,-3.2205,-3.2628,-3.3152,-3.3897,-3.4056,-3.4288,-3.526,-3.6125,-3.711,-3.8432,-3.9588,-4.0359,-4.0359,-4.0763,-4.0689,-3.9368,-3.957,-4.0142,-4.0859,0.0,0.0,-4.6001,0.0,0.0,0.0,0.0,0.0,0.0,0.0,0.0,0.0,0.0,-4.4507,-4.5174,-4.5271,-4.5312,-4.5312,-4.5312,-4.5312,-4.5312,-4.5145,-4.4767,-4.4206,-4.4052,0.0,0.0,0.0,0.0,0.0,-4.3104,-4.2912,-4.2604,-4.2604,-4.1877,-4.0776,-4.0178,-3.9432,-3.8612,0.0,0.0,0.0,0.0,0.0,0.0,0.0,0.0,0.0,0.0,0.0,0.0,0.0,0.0,0.0,0.0,0.0,0.0,0.0,0.0,0.0,0.0,0.0,0.0,0.0,0.0,0.0,0.0,-1.4141,-1.5224,-1.6047,0.0,0.0,0.0,0.0,0.0,0.0,0.0,0.0,0.0,0.0,0.0,0.0,0.0,0.0,0.0,0.0,0.0,0.0,0.0,0.0,0.0,0.0,0.0,0.0,0.0,0.0,0.0,0.0,-3.228,-3.2523,-3.3194,-3.4137,-3.4871,-3.4942,-3.6262,0.0,-3.8689,-4.0065,-4.1111,-4.1111,-4.1111,-4.0836,-3.9955,-3.9845,-3.9918,-3.9974,-4.2304,0.0,0.0,-4.5471,0.0,0.0,0.0,0.0,0.0,0.0,0.0,0.0,0.0,-4.3167,-4.3292,-4.343,-4.3554,-4.3691,-4.3691,-4.3691,-4.3691,-4.3691,-4.3554,-4.3319,-4.3303,0.0,0.0,0.0,0.0,0.0,-4.2854,-4.2354,-4.1623,-4.1546,-4.036,-3.869,-3.8428,-3.7624,-3.6656,0.0,0.0,0.0,0.0,0.0,0.0,0.0,0.0,0.0,0.0,0.0,0.0,0.0,0.0,0.0,0.0,0.0,0.0,0.0,0.0,0.0,0.0,0.0,0.0,0.0,0.0,0.0,-1.7793,-1.9083,-1.9862,-2.0045,-2.0535,0.0,0.0,0.0,0.0,0.0,0.0,0.0,0.0,0.0,0.0,0.0,0.0,0.0,0.0,-2.7285,-2.7773,0.0,0.0,0.0,0.0,0.0,0.0,0.0,0.0,-3.1095,-3.1241,-3.141,0.0,-3.2942,-3.3132,-3.4288,-3.5576,0.0,-3.6939,-3.8065,-4.012,-4.0855,-4.1111,-4.1111,-4.1111,-4.0653,-3.9221,-3.9496,-4.0102,-4.0744,-4.2656,0.0,-4.3643,-4.4271,0.0,0.0,0.0,0.0,0.0,0.0,0.0,0.0,0.0,-4.2303,-4.233,-4.1782,-4.2164,-4.3609,-4.3669,-4.3691,-4.3691,-4.3659,-4.3244,-4.2554,-4.2403,0.0,0.0,0.0,0.0,-4.1046,-4.045,-4.0065,-3.9815,-3.9142,-3.8443,-3.7813,-3.7738,-3.7276,-3.6682,0.0,0.0,0.0,0.0,0.0,0.0,0.0,0.0,0.0,0.0,0.0,0.0,0.0,0.0,0.0,0.0,0.0,0.0,0.0,0.0,0.0,0.0,0.0,0.0,0.0,0.0,0.0,0.0,0.0,-2.3371,0.0,0.0,0.0,0.0,0.0,0.0,0.0,0.0,0.0,0.0,-2.7018,0.0,0.0,0.0,0.0,0.0,-2.7894,-2.8238,0.0,-2.9134,-2.954,-2.9935,0.0,0.0,0.0,0.0,-3.1698,-3.1765,-3.2121,-3.2463,-3.2715,-3.2715,-3.4285,-3.5894,-3.6324,-3.7275,-3.8414,-3.9735,-4.0304,-4.0561,-4.0561,-4.0855,-4.0818,-3.9955,-4.0175,-4.0726,0.0,0.0,-4.2835,-4.3308,-4.3605,0.0,0.0,0.0,0.0,0.0,0.0,0.0,0.0,0.0,-4.1305,-4.1305,-4.0951,-4.1288,-4.2401,-4.2446,-4.2496,-4.2558,-4.2513,-4.2009,-4.109,-4.0986,0.0,0.0,0.0,0.0,-3.9315,-3.8873,-3.87,-3.8661,-3.818,-3.7644,-3.713,-3.699,-3.6441,-3.5764,0.0,0.0,0.0,0.0,0.0,0.0,0.0,0.0,0.0,0.0,0.0,0.0,0.0,0.0,0.0,0.0,0.0,0.0,0.0,0.0,0.0,0.0,0.0,0.0,0.0,0.0,0.0,0.0,0.0,0.0,0.0,0.0,0.0,0.0,0.0,0.0,0.0,0.0,0.0,0.0,-2.8126,0.0,0.0,0.0,0.0,0.0,0.0,0.0,0.0,-2.9951,-3.0335,-3.0518,-3.1055,0.0,0.0,0.0,0.0,0.0,-3.3085,-3.3017,-3.2805,-3.2768,-3.4488,-3.6183,-3.6183,-3.7356,-3.8519,-3.8711,-3.926,-3.9703,-3.9768,-4.0269,-4.0656,-4.0529,0.0,0.0,-4.2341,-4.1901,-4.2032,-4.3547,0.0,0.0,0.0,0.0,0.0,0.0,0.0,0.0,0.0,0.0,0.0,-4.0123,-4.0223,-4.0374,-4.0579,-4.0851,-4.1055,-4.1171,-4.1054,-4.0563,-3.9735,-3.9572,0.0,0.0,0.0,0.0,-3.8012,-3.7868,-3.7796,-3.7796,-3.7661,-3.718,-3.6479,-3.6252,-3.5588,-3.4714,0.0,0.0,0.0,0.0,0.0,0.0,0.0,0.0,0.0,0.0,0.0,0.0,0.0,0.0,0.0,0.0,0.0,0.0,0.0,0.0,0.0,0.0,0.0,0.0,0.0,0.0,0.0,0.0,0.0,0.0,-2.9071,-2.8869,-2.8458,0.0,0.0,0.0,0.0,-2.8115,-2.8443,-2.8976,-2.9141,0.0,0.0,0.0,0.0,0.0,0.0,0.0,0.0,-3.0251,-3.0658,-3.1072,-3.119,0.0,0.0,0.0,0.0,0.0,-3.2594,-3.3744,-3.5077,-3.4898,-3.5962,-3.7033,-3.7033,-3.7234,-3.7739,-3.8829,-3.8816,-3.874,-3.9155,-3.9013,-3.8592,-3.7914,0.0,-4.1105,0.0,0.0,-4.2999,0.0,0.0,0.0,0.0,0.0,0.0,0.0,0.0,0.0,0.0,0.0,0.0,-3.8373,-3.8402,-3.8485,-3.8637,-4.0207,-4.1019,-4.1026,-4.0407,-4.0019,-3.9842,-3.898,-3.8502,0.0,0.0,-3.8086,-3.8013,-3.7217,-3.6911,-3.6834,-3.6161,-3.5815,-3.5685,-3.5638,-3.5369,-3.4963,0.0,0.0,0.0,0.0,0.0,0.0,0.0,0.0,0.0,0.0,0.0,0.0,0.0,0.0,0.0,0.0,0.0,0.0,0.0,0.0,0.0,0.0,0.0,0.0,0.0,0.0,0.0,0.0,0.0,-3.0763,-3.107,-3.0381,-3.0096,-3.0074,0.0,0.0,-2.9733,-2.9524,-2.941,-2.9451,0.0,0.0,0.0,0.0,0.0,0.0,0.0,0.0,0.0,0.0,-3.0975,-3.119,-3.119,0.0,0.0,0.0,0.0,0.0,-3.2882,-3.3643,-3.4566,-3.5309,-3.6721,-3.7971,-3.7971,-3.7857,-3.7955,-3.8558,-3.8196,-3.7922,-3.8558,-3.8833,-3.9256,-4.0027,0.0,-4.1718,-4.2693,-4.2084,0.0,0.0,0.0,0.0,0.0,0.0,0.0,0.0,0.0,0.0,0.0,0.0,0.0,0.0,-3.8007,-3.8031,-3.8087,-3.9024,-3.9526,-3.9595,-3.9242,-3.8882,-3.8476,-3.8023,-3.7521,-3.7047,0.0,-3.6774,-3.6712,-3.6247,-3.6065,-3.6007,-3.5641,-3.5493,-3.5435,-3.4817,-3.4805,-3.4977,0.0,0.0,0.0,0.0,0.0,0.0,0.0,0.0,0.0,0.0,0.0,0.0,0.0,0.0,0.0,0.0,0.0,0.0,0.0,0.0,0.0,0.0,0.0,0.0,0.0,0.0,0.0,-3.1898,-3.1847,-3.2056,-3.2466,-3.1477,-3.1323,0.0,0.0,0.0,-3.1244,-3.0943,-3.0558,-3.0194,0.0,0.0,0.0,0.0,0.0,0.0,0.0,0.0,0.0,0.0,0.0,0.0,0.0,0.0,0.0,-3.2313,-3.2408,-3.2628,-3.3034,-3.3389,-3.3897,-3.4861,-3.6385,-3.7792,-3.8326,-3.8026,-3.7784,-3.8257,-3.783,-3.7509,-3.8033,-3.8515,-3.9564,-4.1629,-4.194,-4.2083,-4.2509,0.0,0.0,0.0,0.0,0.0,0.0,0.0,0.0,0.0,0.0,0.0,0.0,0.0,0.0,0.0,-3.7103,-3.7007,-3.6815,-3.6902,-3.7432,-3.8365,-3.8202,-3.7836,-3.7285,-3.709,-3.6598,-3.5916,-3.5807,-3.5702,-3.5631,-3.5558,-3.5515,-3.5493,-3.5493,-3.5493,-3.5364,-3.4278,-3.4327,-3.4718,0.0,0.0,0.0,0.0,0.0,0.0,0.0,0.0,0.0,0.0,0.0,0.0,0.0,0.0,0.0,0.0,0.0,0.0,0.0,0.0,0.0,0.0,0.0,0.0,0.0,-3.3148,-3.2817,-3.2817,-3.2542,-3.2466,-3.2484,-3.2413,-3.238,-3.2433,0.0,0.0,-3.24,-3.2366,-3.2332,-3.2247,-3.188,0.0,0.0,0.0,0.0,0.0,0.0,0.0,0.0,0.0,0.0,0.0,0.0,0.0,-3.2313,-3.2313,-3.278,-3.3186,-3.2544,-3.3372,-3.4269,-3.3711,-3.4193,-3.5372,-3.7462,-3.6831,-3.6314,-3.8182,-3.8197,-3.778,-3.7577,-3.7237,-3.7607,-3.9527,-4.0379,-4.1414,0.0,0.0,0.0,0.0,0.0,0.0,0.0,0.0,0.0,0.0,0.0,0.0,0.0,0.0,0.0,0.0,0.0,-3.4083,-3.3276,-3.3269,-3.4969,-3.8298,-3.7615,-3.729,-3.7266,-3.6465,-3.6055,-3.5996,-3.5916,-3.5807,-3.5689,-3.5611,-3.557,-3.5493,-3.5493,-3.5493,-3.5378,-3.4493,-3.4205,-3.4101,0.0,0.0,0.0,0.0,0.0,0.0,0.0,0.0,0.0,0.0,0.0,0.0,0.0,0.0,0.0,0.0,0.0,0.0,0.0,0.0,0.0,0.0,0.0,-3.51,-3.4939,-3.4317,-3.4041,-3.4041,-3.3914,-3.3882,-3.3857,-3.365,0.0,0.0,0.0,0.0,-3.2921,-3.2616,-3.28,-3.3225,-3.3037,-3.2967,0.0,0.0,0.0,0.0,0.0,0.0,0.0,0.0,-3.119,-3.119,0.0,-3.1376,-3.1613,-3.1613,-3.1799,-3.1968,-3.1681,-3.3017,-3.432,-3.3592,-3.3947,-3.5098,-3.7381,-3.7094,-3.6576,-3.7348,-3.7691,-3.7851,-3.7763,-3.7888,-3.8363,-3.953,-3.9876,0.0,0.0,0.0,0.0,0.0,0.0,0.0,0.0,0.0,0.0,0.0,0.0,0.0,0.0,0.0,0.0,0.0,0.0,-3.3237,-3.2891,-3.2891,-3.3627,-3.5055,-3.4821,-3.4757,-3.4796,-3.4511,-3.4375,-3.4414,-3.4884,-3.4757,-3.4277,-3.5221,-3.4949,-3.3936,-3.391,-3.3891,-3.3776,-3.2949,-3.2968,-3.3263,0.0,0.0,0.0,0.0,0.0,0.0,0.0,0.0,0.0,0.0,0.0,0.0,0.0,0.0,0.0,0.0,0.0,0.0,0.0,0.0,0.0,0.0,0.0,-3.5562,-3.5562,-3.517,-3.4942,-3.4832,-3.4734,-3.4694,-3.4694,0.0,0.0,0.0,0.0,0.0,0.0,-3.3212,-3.3514,-3.4253,-3.4017,-3.3904,0.0,0.0,0.0,0.0,0.0,0.0,0.0,0.0,-3.16,0.0,0.0,0.0,0.0,0.0,-3.119,-3.119,-3.119,-3.2307,-3.3389,-3.3119,-3.3609,-3.4742,-3.7026,-3.6958,-3.6688,-3.7635,-3.7686,-3.755,-3.755,-3.765,0.0,0.0,0.0,0.0,0.0,0.0,0.0,0.0,0.0,0.0,0.0,0.0,0.0,0.0,0.0,0.0,0.0,0.0,0.0,0.0,0.0,-3.2391,-3.2122,-3.2122,-3.2162,-3.2261,-3.231,-3.2672,-3.3295,-3.3353,-3.3378,-3.3437,-3.3976,-3.3863,-3.3376,-3.4445,-3.4137,-3.2987,-3.2933,-3.2891,-3.2795,-3.2006,-3.2045,-3.241,0.0,0.0,0.0,0.0,0.0,0.0,0.0,0.0,0.0,0.0,0.0,0.0,0.0,0.0,0.0,0.0,0.0,0.0,0.0,0.0,0.0,0.0,0.0,-3.5703,-3.5703,-3.5639,-3.5444,-3.5105,-3.4851,-3.4694,-3.4694,-3.4713,0.0,0.0,0.0,0.0,0.0,0.0,-3.4703,-3.5454,-3.4736,-3.4424,-3.4393,0.0,0.0,0.0,0.0,0.0,0.0,0.0,-3.2484,-3.2417,0.0,0.0,0.0,-3.1312,-3.119,-3.119,-3.119,-3.1207,-3.1376,-3.2104,-3.2865,-3.4015,-3.6265,-3.618,-3.6468,-3.9428,-3.8294,-3.6755,-3.6772,-3.6146,0.0,-3.7378,0.0,0.0,0.0,0.0,0.0,0.0,0.0,0.0,0.0,0.0,0.0,0.0,0.0,0.0,0.0,0.0,0.0,0.0,0.0,0.0,-3.0398,-3.0379,-3.0379,-3.041,-3.0453,-3.1456,-3.3275,-3.3275,-3.3311,-3.3379,-3.3379,-3.3354,-3.3282,-3.3282,-3.3167,-3.2987,-3.2914,-3.2872,-3.2776,-3.1987,-3.1698,-3.1564,0.0,0.0,0.0,0.0,0.0,0.0,0.0,0.0,0.0,0.0,0.0,0.0,0.0,0.0,0.0,0.0,0.0,0.0,0.0,0.0,0.0,0.0,0.0,0.0,0.0,0.0,-3.5582,-3.5383,-3.5304,-3.5254,0.0,0.0,0.0,-3.5,0.0,0.0,0.0,0.0,-3.534,-3.6618,-3.6395,-3.6659,-3.7156,0.0,0.0,0.0,0.0,0.0,0.0,0.0,0.0,0.0,0.0,0.0,0.0,-3.166,-3.1411,-3.119,-3.119,-3.1952,-3.2679,-3.2357,-3.3626,-3.5131,-3.5808,-3.5791,-3.6028,-3.7466,-3.6383,-3.5504,-3.6586,-3.6146,0.0,0.0,0.0,0.0,0.0,0.0,0.0,0.0,0.0,0.0,0.0,0.0,0.0,0.0,0.0,0.0,0.0,0.0,0.0,0.0,0.0,0.0,-3.0122,-2.9697,-2.9794,-3.0379,-2.9222,-2.9636,-3.1403,-3.1445,-3.1532,-3.168,-3.2285,-3.2206,-3.1597,-3.1502,-3.1732,-3.2096,-3.1458,-3.1174,-3.1121,-3.0871,-3.0794,-3.0756,0.0,0.0,0.0,0.0,0.0,0.0,0.0,0.0,0.0,0.0,0.0,0.0,0.0,0.0,0.0,0.0,0.0,0.0,0.0,0.0,0.0,0.0,0.0,0.0,0.0,-3.6771,-3.6727,0.0,0.0,0.0,0.0,0.0,0.0,-3.5752,0.0,-3.5949,0.0,0.0,-3.5609,-3.6802,-3.7001,-3.7414,-3.7901,0.0,0.0,0.0,0.0,0.0,0.0,0.0,0.0,0.0,-3.2809,-3.2565,-3.2298,-3.1915,-3.164,-3.1411,-3.1252,-3.2053,-3.2933,-3.2763,-3.4184,-3.5622,-3.5622,-3.6096,-3.6569,-3.6738,-3.5554,-3.4776,-3.5707,-3.4996,0.0,0.0,0.0,0.0,0.0,0.0,0.0,0.0,0.0,0.0,0.0,0.0,0.0,0.0,0.0,0.0,0.0,0.0,0.0,0.0,0.0,0.0,-2.9522,-2.9231,-2.9198,-2.939,-2.8371,-2.8492,-2.957,-3.0,-3.0253,-3.043,-3.1309,-3.1387,-3.0898,-3.0767,-3.0953,-3.1313,-3.0726,-3.026,-2.9967,-3.0267,-3.0179,-2.9929,0.0,0.0,0.0,0.0,0.0,0.0,0.0,0.0,0.0,0.0,0.0,0.0,0.0,0.0,0.0,0.0,0.0,0.0,0.0,0.0,0.0,0.0,0.0,0.0,0.0,0.0,0.0,0.0,0.0,0.0,0.0,0.0,-3.6837,-3.6851,0.0,-3.6804,0.0,-3.5595,-3.5613,-3.64,-3.6975,-3.7234,-3.7383,-3.8231,0.0,0.0,0.0,0.0,0.0,0.0,0.0,0.0,-3.3361,-3.3243,-3.3045,-3.2196,-3.1861,-3.1733,-3.1436,-3.1805,-3.2476,-3.3305,-3.4573,-3.5622,-3.5622,-3.6637,-3.7381,-3.662,-3.5368,-3.4387,-3.4387,-3.3288,0.0,0.0,0.0,0.0,0.0,0.0,0.0,0.0,0.0,0.0,0.0,0.0,0.0,0.0,0.0,0.0,0.0,0.0,0.0,0.0,0.0,0.0,-2.8765,-2.8893,-2.8591,0.0,-2.7736,-2.774,-2.7919,-2.8845,-2.939,-2.9648,-3.0449,-3.0781,-3.0762,-3.0554,-3.0484,-3.0473,-3.0425,-2.9857,-2.9193,-3.0072,-2.9806,-2.9121,0.0,0.0,0.0,0.0,0.0,0.0,0.0,0.0,0.0,0.0,0.0,0.0,0.0,0.0,0.0,0.0,0.0,0.0,0.0,0.0,0.0,0.0,0.0,0.0,0.0,0.0,0.0,0.0,0.0,0.0,0.0,0.0,0.0,-3.7944,0.0,-3.754,-3.6867,-3.5889,-3.5994,-3.6832,-3.7578,-3.8272,-3.8884,-3.9509,-3.8689,0.0,0.0,0.0,0.0,0.0,0.0,0.0,-3.3707,-3.3447,-3.3154,-3.2983,-3.24,-3.1927,-3.2455,-3.2457,-3.2594,-3.3914,-3.4945,-3.5622,-3.5622,-3.5419,-3.5013,-3.4286,-3.388,-3.3643,-3.3643,0.0,0.0,0.0,0.0,0.0,0.0,0.0,0.0,0.0,0.0,0.0,0.0,0.0,0.0,0.0,0.0,0.0,0.0,0.0,0.0,0.0,0.0,-2.9194,-2.848,-2.8051,-2.786,0.0,-2.6505,-2.6246,-2.7013,-2.7945,-2.8824,-2.9609,-2.9805,-2.9883,-2.9824,-2.9101,-2.8781,-2.8798,-2.946,-2.9116,-2.8429,-2.9921,-2.9486,-2.8371,0.0,0.0,0.0,0.0,0.0,0.0,0.0,0.0,0.0,0.0,0.0,0.0,0.0,0.0,0.0,0.0,0.0,0.0,0.0,0.0,0.0,0.0,0.0,0.0,0.0,0.0,0.0,0.0,0.0,0.0,0.0,0.0,0.0,-3.8909,0.0,-3.8244,-3.8162,-3.6825,-3.6781,-3.7635,-3.8481,-3.9021,-3.9425,-4.0115,-3.958,-3.8314,-3.7605,0.0,0.0,0.0,0.0,0.0,0.0,0.0,-3.3465,-3.3243,-3.284,-3.2454,-3.2419,-3.2814,-3.3396,-3.4304,-3.4793,-3.4979,-3.4641,-3.3981,-3.3322,-3.2949,-3.2865,-3.2865,-3.2865,0.0,0.0,0.0,0.0,0.0,0.0,0.0,0.0,0.0,0.0,0.0,0.0,0.0,0.0,0.0,0.0,0.0,0.0,0.0,0.0,0.0,-2.9246,-2.9082,-2.8414,-2.7804,-2.744,-2.7255,-2.5928,-2.5571,-2.6103,-2.7089,-2.8034,-2.8921,-2.8964,-2.8984,-2.8945,-2.8496,-2.828,-2.8291,-2.8708,-2.8539,-2.8196,-2.9422,-2.9043,-2.8082,0.0,0.0,0.0,0.0,0.0,0.0,0.0,0.0,0.0,0.0,0.0,0.0,0.0,0.0,0.0,0.0,0.0,0.0,0.0,0.0,0.0,0.0,0.0,0.0,0.0,0.0,0.0,0.0,0.0,0.0,-3.9088,0.0,0.0,-3.9844,0.0,0.0,-3.9552,-3.7923,-3.7663,-3.839,-3.926,-3.9532,-3.9527,-4.0389,-4.012,-3.9206,-3.8249,-3.7213,-3.6155,-3.5287,0.0,0.0,0.0,0.0,-3.3797,-3.3486,-3.3284,-3.3032,-3.2319,-3.3035,-3.4043,-3.4262,-3.4303,-3.4117,-3.3372,-3.273,-3.2239,-3.2121,-3.2087,-3.2087,0.0,0.0,0.0,0.0,0.0,0.0,0.0,0.0,0.0,0.0,0.0,0.0,0.0,0.0,0.0,0.0,0.0,0.0,0.0,0.0,-2.8929,-2.8994,-2.9222,-2.9005,-2.8346,-2.7714,-2.7102,-2.654,-2.5696,-2.533,-2.541,-2.6262,-2.7134,-2.7988,-2.8024,-2.8066,-2.8066,-2.791,-2.7851,-2.7851,-2.7957,-2.7865,-2.779,-2.8686,-2.8356,-2.7613,0.0,0.0,0.0,0.0,0.0,0.0,0.0,0.0,0.0,0.0,0.0,0.0,0.0,0.0,0.0,0.0,0.0,0.0,-4.0645,0.0,0.0,-4.0645,0.0,0.0,0.0,0.0,0.0,0.0,0.0,-4.1163,-4.1758,-4.0469,-4.0251,-4.0934,0.0,0.0,-3.9782,-3.8684,-3.8276,-3.8452,-3.9345,-3.9641,-3.9665,-4.0493,-4.0199,-3.9364,-3.9204,-3.7926,-3.6268,-3.6118,-3.5439,0.0,0.0,0.0,-3.4147,-3.408,-3.3643,-3.3219,-3.3314,-3.3415,-3.3507,-3.3525,-3.3558,-3.3355,-3.2611,-3.2381,-3.2104,0.0,-3.1343,0.0,0.0,0.0,0.0,0.0,0.0,0.0,0.0,0.0,0.0,0.0,0.0,0.0,0.0,0.0,0.0,0.0,0.0,0.0,0.0,-2.8658,-2.8633,-2.8994,-2.9021,-2.8753,-2.8165,-2.7382,-2.6747,-2.6333,-2.5625,-2.5293,-2.5322,-2.5507,-2.6145,-2.7067,-2.7071,-2.7122,-2.7129,-2.6367,-2.6055,-2.6113,-2.6875,-2.6652,-2.6113,-2.7673,-2.7187,-2.5967,0.0,0.0,0.0,0.0,0.0,0.0,0.0,0.0,0.0,0.0,0.0,0.0,0.0,0.0,0.0,-4.0641,-4.0641,-4.0641,-4.0641,-4.0641,-4.0641,-4.0641,-4.0641,0.0,0.0,0.0,0.0,0.0,-4.0836,-4.112,-4.1562,-4.1348,-4.1733,-4.2539,-4.1169,0.0,0.0,0.0,-3.9779,-4.0638,-4.0578,-4.0776,-4.1095,-4.0953,-4.0609,-4.0072,-3.9111,-3.8167,-3.7217,-3.624,-3.5465,-3.4926,-3.4926,0.0,0.0,0.0,-3.4006,-3.3735,-3.3621,-3.3397,-3.3111,-3.2846,-3.278,-3.2577,-3.1833,-3.1664,-3.1579,-3.1258,-3.119,0.0,0.0,0.0,0.0,0.0,0.0,0.0,0.0,0.0,0.0,0.0,0.0,0.0,0.0,0.0,0.0,0.0,0.0,0.0,-2.8633,-2.8515,-2.859,-2.8994,-2.8994,-2.871,-2.8108,-2.7307,-2.6437,-2.5558,-2.5279,-2.5203,-2.5313,-2.5321,-2.5611,-2.6067,-2.613,-2.6195,-2.6185,-2.5839,-2.5703,-2.5742,-2.6113,-2.6284,-2.6415,-2.7156,-2.6873,-2.6223,0.0,0.0,0.0,0.0,0.0,0.0,0.0,0.0,0.0,0.0,0.0,0.0,0.0,0.0,0.0,0.0,-4.0489,-4.0489,-4.0489,-4.0489,-4.0489,-4.0489,-4.0489,-4.0489,0.0,0.0,0.0,0.0,-4.0732,-4.0953,-4.1286,-4.1987,-4.2915,-4.3965,-4.248,-4.2051,-4.2324,-4.1308,-4.1582,-4.2656,-4.1836,-4.1832,-4.2223,-4.1384,-4.0964,-4.0682,-3.9435,-3.8793,-3.8326,-3.6774,-3.5945,-3.5515,-3.528,-3.5016,0.0,0.0,0.0,-3.3917,-3.3364,-3.295,-3.2545,-3.2008,-3.1913,-3.1867,-3.1326,0.0,-3.119,0.0,0.0,0.0,0.0,0.0,0.0,0.0,0.0,0.0,0.0,0.0,0.0,0.0,0.0,0.0,0.0,0.0,0.0,0.0,0.0,0.0,-2.8219,-2.8272,-2.8464,-2.8839,-2.875,-2.8485,-2.803,-2.7065,-2.6045,-2.4949,-2.4986,-2.5099,-2.5303,-2.5303,-2.534,-2.5376,-2.5522,-2.5573,-2.5603,-2.5662,-2.5703,-2.5703,-2.5703,-2.6071,-2.6583,-2.6576,-2.6509,-2.6431,0.0,0.0,0.0,0.0,0.0,0.0,0.0,0.0,0.0,0.0,0.0,0.0,-4.0489,-4.0489,-4.0489,-4.0489,-4.0489,-4.0489,-4.0489,-4.0489,-4.0489,-4.0489,-4.0489,0.0,-4.0489,0.0,0.0,-4.0504,-4.063,-4.1159,-4.2043,-4.2222,-4.3247,-4.4883,-4.3984,-4.3125,-4.2441,-4.3183,-4.3555,-4.3555,-4.2695,-4.2363,-4.2304,-4.1504,-4.1105,-4.0972,-4.0894,-4.029,-3.9373,-3.8404,-3.75,-3.6643,-3.5759,-3.5289,-3.5088,0.0,0.0,0.0,-3.2386,-3.1989,-3.1668,-3.087,-3.097,-3.1241,-3.1207,0.0,-3.119,-3.119,0.0,0.0,0.0,0.0,0.0,0.0,0.0,0.0,0.0,0.0,0.0,0.0,0.0,0.0,0.0,0.0,0.0,0.0,0.0,0.0,-2.788,-2.7926,-2.8075,-2.842,-2.8049,-2.7864,-2.7809,-2.6449,-2.5435,-2.4818,-2.4937,-2.5099,-2.5303,-2.5303,-2.5313,-2.5313,-2.5453,-2.5547,-2.5603,-2.5662,-2.5703,-2.5703,-2.5703,-2.5723,-2.5742,-2.5689,-2.5657,-2.5642,0.0,0.0,0.0,0.0,0.0,0.0,0.0,0.0,0.0,0.0,0.0,0.0,0.0,-4.0489,-4.0489,-4.0489,-4.0489,-4.0489,-4.0489,-4.0489,-4.0489,-4.0489,-4.0489,-4.0489,-4.0489,-4.0489,-4.0489,-4.0489,-4.0545,-4.0784,-4.1207,-4.183,-4.2179,-4.2325,-4.271,-4.3301,-4.4023,-4.3203,-4.3516,-4.4414,-4.2988,-4.2734,-4.3086,-4.1719,-4.1171,-4.0972,-3.9859,-3.9549,-3.9448,-3.8032,-3.763,-3.7577,-3.669,-3.6273,-3.599,-3.5291,-3.4578,-3.3845,-3.3213,-3.2487,-3.1841,-3.1446,-3.0729,-3.017,-3.0455,-3.0497,-3.0403,-2.9999,0.0,0.0,0.0,0.0,0.0,0.0,0.0,0.0,0.0,0.0,0.0,0.0,0.0,0.0,0.0,0.0,0.0,0.0,0.0,0.0,-2.7487,-2.75,-2.7678,-2.8075,-2.8149,-2.782,-2.7034,-2.5499,-2.4688,-2.4607,-2.4785,-2.4956,-2.5111,-2.5234,-2.5303,-2.5313,-2.5398,-2.5463,-2.5547,-2.5605,-2.566,-2.5703,-2.5703,-2.5703,-2.5703,-2.5662,-2.5636,-2.5595,0.0,0.0,0.0,0.0,0.0,0.0,0.0,0.0,0.0,0.0,0.0,0.0,0.0,0.0,-4.0473,-4.0372,-4.0248,-4.0193,-4.0193,-4.0193,-4.0193,-4.0193,-4.0193,-4.0327,-4.0596,0.0,-4.049,-4.0778,-4.0592,-4.0574,-4.0723,-4.1284,-4.145,-4.1256,-4.1675,-4.2859,-4.4488,-4.3945,-4.4375,-4.5273,-4.3535,-4.3359,-4.3945,-4.2246,-4.1777,-4.1855,0.0,0.0,-4.0335,-3.8622,-3.8135,-3.8108,-3.7219,-3.6654,-3.6163,-3.534,-3.4813,-3.433,-3.3617,-3.2975,-3.2419,-3.1974,-3.1182,-3.0456,-3.0343,-3.0506,-3.0459,-2.9649,0.0,0.0,0.0,0.0,0.0,0.0,0.0,0.0,0.0,0.0,0.0,0.0,0.0,0.0,0.0,0.0,0.0,0.0,0.0,0.0,-2.7083,-2.7241,-2.7285,-2.7255,-2.7474,-2.7006,-2.5823,-2.4722,-2.4303,-2.4512,-2.4639,-2.4795,-2.4991,-2.5141,-2.5243,-2.5293,-2.5357,-2.5406,-2.5463,-2.5561,-2.5631,-2.5662,-2.5683,-2.5703,-2.5703,-2.5703,-2.5662,-2.5611,0.0,0.0,0.0,0.0,0.0,0.0,0.0,0.0,0.0,-4.0511,0.0,0.0,0.0,0.0,0.0,-4.0177,-3.9851,-3.9656,-3.9637,-3.9637,-3.9618,-3.9599,-3.9618,-3.9991,-4.0777,0.0,0.0,0.0,0.0,0.0,0.0,0.0,-4.1188,-4.2027,-4.1202,-4.1844,-4.3673,-4.5426,-4.623,-4.6133,-4.4375,-4.418,-4.4766,0.0,0.0,0.0,-4.2637,-4.2344,0.0,-4.0313,0.0,0.0,0.0,-3.6382,-3.5538,-3.5212,-3.5102,-3.477,0.0,0.0,0.0,-3.2306,-3.2232,-3.2117,-3.0993,0.0,-3.142,0.0,0.0,0.0,0.0,0.0,0.0,0.0,0.0,0.0,0.0,0.0,0.0,0.0,0.0,0.0,0.0,0.0,0.0,0.0,0.0,-2.6708,-2.6691,-2.7051,-2.6889,-2.6069,-2.6003,-2.5425,-2.4262,-2.4226,-2.4303,-2.4495,-2.4495,-2.4663,-2.4979,-2.501,-2.5111,-2.5303,-2.5303,-2.5339,-2.5413,-2.5543,-2.5601,-2.5605,-2.5662,-2.5703,-2.5703,-2.5703,-2.5703,-2.5683,0.0,0.0,0.0,0.0,0.0,0.0,0.0,0.0,0.0,0.0,0.0,0.0,-3.9899,-4.0371,-4.0915,-4.143,-4.1391,-4.1079,-4.0519,-4.0481,-4.0198,-3.9637,-4.016,-4.0575,-4.0796,0.0,0.0,0.0,0.0,0.0,0.0,0.0,0.0,0.0,-4.1443,-4.1965,-4.248,-4.3129,-4.4471,-4.5955,-4.369,-4.3281,0.0,0.0,0.0,0.0,0.0,-4.0996,-4.1367,0.0,-4.0045,-4.0012,0.0,-3.6895,-3.5635,-3.5508,-3.4879,-3.427,-3.4486,0.0,0.0,0.0,0.0,0.0,0.0,0.0,0.0,0.0,0.0,0.0,0.0,0.0,0.0,0.0,0.0,0.0,0.0,0.0,0.0,0.0,0.0,0.0,0.0,0.0,0.0,0.0,-2.7621,-2.7266,-2.6725,-2.6825,-2.6894,-2.6959,-2.6091,-2.5575,-2.5516,-2.4639,-2.4228,-2.4284,-2.4426,-2.4604,-2.4869,-2.4949,-2.5111,-2.5303,-2.5303,-2.5303,-2.5339,-2.5463,-2.5558,-2.5605,-2.5662,-2.5703,-2.5703,-2.5703,-2.5703,-2.5683,0.0,0.0,0.0,0.0,0.0,0.0,0.0,0.0,0.0,0.0,0.0,0.0,-4.0651,-4.0923,-4.1327,-4.1796,-4.1717,-4.1446,-4.0961,-4.0943,-4.057,-3.9757,-4.0495,-4.0943,-4.0943,0.0,0.0,0.0,0.0,0.0,0.0,0.0,0.0,0.0,0.0,0.0,-4.1905,0.0,0.0,0.0,-4.3069,0.0,0.0,-4.2161,-4.1888,0.0,0.0,0.0,-4.2026,-4.0839,-4.0486,0.0,0.0,0.0,-3.617,-3.5371,-3.4662,-3.4152,-3.4069,-3.3233,-3.2462,-3.2885,0.0,0.0,-3.083,-3.0689,0.0,0.0,0.0,0.0,0.0,0.0,0.0,0.0,0.0,0.0,0.0,0.0,0.0,0.0,0.0,0.0,0.0,0.0,0.0,0.0,-2.801,-2.7503,-2.6742,-2.6691,-2.6737,-2.6822,-2.5943,-2.5496,-2.5499,-2.4634,-2.419,-2.419,-2.4321,-2.4478,-2.4685,-2.4836,-2.5005,-2.5173,-2.5264,-2.5303,-2.5303,-2.5408,-2.5508,-2.5564,-2.5661,-2.5703,-2.5703,-2.5703,-2.5703,-2.5683,0.0,0.0,0.0,0.0,0.0,0.0,0.0,0.0,0.0,0.0,0.0,-4.1969,-4.2138,-4.1866,-4.1712,-4.1805,-4.1525,-4.135,-4.1258,-4.124,-4.0873,-4.0065,-4.0799,-4.1203,-4.1111,0.0,0.0,0.0,0.0,0.0,0.0,0.0,0.0,0.0,0.0,0.0,0.0,0.0,0.0,-4.303,-4.2387,-4.267,0.0,0.0,-4.2611,-4.3197,-4.2412,-4.2631,-4.3064,-4.1634,-4.0526,0.0,0.0,0.0,0.0,0.0,-3.4523,-3.4139,-3.3095,-3.2673,-3.2461,-3.2233,0.0,0.0,-3.0524,-3.0691,-3.0739,0.0,0.0,0.0,0.0,0.0,0.0,0.0,0.0,0.0,0.0,0.0,0.0,0.0,0.0,0.0,0.0,-3.0185,-2.9786,-2.9042,-2.818,-2.7402,-2.6725,-2.6691,-2.6551,-2.6182,-2.5799,-2.5331,-2.4825,-2.4463,-2.4243,-2.4133,-2.417,-2.4303,-2.4512,-2.4716,-2.4869,-2.4986,-2.5203,-2.5303,-2.5274,-2.5352,-2.5441,-2.5503,-2.5636,-2.5683,-2.5703,-2.5703,-2.5703,-2.5703,-3.9097,0.0,0.0,0.0,0.0,0.0,0.0,0.0,0.0,0.0,-4.1686,-4.176,-4.307,-4.258,-4.2437,-4.3082,-4.3088,-4.2763,-4.2121,-4.2066,-4.1717,-4.091,-4.1644,-4.1772,-4.113,-4.1783,0.0,0.0,0.0,0.0,0.0,0.0,0.0,0.0,0.0,0.0,0.0,0.0,0.0,-4.1073,-4.1081,0.0,-4.2298,-4.1415,-4.1201,-4.1317,-4.1142,-4.1201,-4.1298,-4.0987,-3.9897,-3.8606,0.0,0.0,0.0,-3.5747,0.0,0.0,-3.4022,-3.3111,0.0,0.0,0.0,0.0,-3.1741,-3.1337,-3.0951,0.0,0.0,0.0,0.0,0.0,0.0,0.0,0.0,0.0,0.0,0.0,0.0,0.0,0.0,0.0,0.0,-3.0185,-2.9786,-2.9042,-2.7689,-2.6843,-2.6708,-2.6691,-2.6657,-2.6571,-2.6199,-2.5646,-2.4975,-2.479,-2.4386,-2.3795,-2.4074,-2.4303,-2.4512,-2.4716,-2.4799,-2.4855,-2.516,-2.5214,-2.5069,-2.5307,-2.5441,-2.5517,-2.5595,-2.5659,-2.5703,-2.5703,-2.5703,-2.5703,-3.95,0.0,0.0,0.0,0.0,0.0,0.0,0.0,0.0,-4.2892,-4.2543,-4.2598,-4.3406,-4.313,-4.3057,-4.3442,0.0,0.0,0.0,-4.2736,-4.23,-4.0888,-4.1905,-4.2122,-4.1285,-4.2086,-4.1845,0.0,0.0,0.0,0.0,0.0,0.0,0.0,0.0,0.0,-4.0489,0.0,-4.0489,-4.05,-4.0688,0.0,-4.1354,-4.0927,-4.0752,-4.0752,-4.0752,-4.077,-4.0801,-4.0801,-3.9993,0.0,0.0,-3.7147,-3.6339,0.0,-3.4606,-3.3847,0.0,0.0,0.0,-3.1732,0.0,0.0,0.0,-3.0906,-3.0615,-3.0656,-3.0546,0.0,0.0,0.0,0.0,0.0,0.0,0.0,0.0,0.0,0.0,0.0,0.0,0.0,0.0,-2.9585,-2.9228,-2.8467,-2.7334,-2.6691,-2.6691,-2.6691,-2.6691,-2.6691,-2.6316,-2.5754,-2.5023,-2.4857,-2.4442,-2.3692,-2.4036,-2.4247,-2.4357,-2.4561,-2.4654,-2.467,-2.5005,-2.5099,-2.5022,-2.5255,-2.5391,-2.5465,-2.5511,-2.5598,-2.5658,-2.5658,-2.5662,-2.5703,-4.0003,-4.1348,0.0,0.0,0.0,0.0,0.0,0.0,0.0,-4.3497,-4.3497,-4.3497,-4.3497,-4.341,-4.3394,-4.3541,0.0,0.0,0.0,-4.2994,-4.2482,-4.0908,-4.1922,-4.2052,-4.1063,-4.1969,-4.1887,0.0,0.0,0.0,0.0,0.0,0.0,0.0,0.0,-4.0309,-4.0652,-4.0531,0.0,-4.0754,0.0,-4.0655,-4.0655,-4.0655,-4.0655,-4.0655,-4.0655,-4.0699,-4.0733,-4.0733,-4.009,-3.9066,-3.7658,-3.6993,0.0,0.0,0.0,0.0,0.0,0.0,0.0,0.0,0.0,-3.0569,0.0,0.0,0.0,-3.0016,0.0,0.0,0.0,0.0,0.0,0.0,0.0,0.0,0.0,0.0,0.0,0.0,0.0,0.0,0.0,-2.9059,-2.8602,-2.7672,-2.7182,-2.6843,-2.6708,-2.6691,-2.6691,-2.6691,-2.639,-2.579,-2.4907,-2.4923,-2.4495,-2.361,-2.4016,-2.419,-2.4209,-2.441,-2.4478,-2.4461,-2.4845,-2.4986,-2.4974,-2.5203,-2.533,-2.5391,-2.544,-2.5535,-2.5601,-2.5601,-2.5637,-2.5703,-3.9745,-4.0366,0.0,0.0,0.0,0.0,0.0,0.0,0.0,-4.3497,-4.3497,-4.3497,-4.3497,-4.3069,-4.3059,-4.3707,0.0,0.0,-4.2853,0.0,-4.1884,-4.1669,-4.18,-4.1203,-3.9731,-4.0933,-4.0835,-3.9334,0.0,0.0,0.0,0.0,0.0,0.0,-3.9982,-4.0501,-4.1189,0.0,-4.095,0.0,-4.0827,-4.0534,0.0,-4.0534,-4.0534,-4.0534,-4.0534,-4.053,-4.0526,0.0,-3.9522,-3.8246,0.0,-3.7005,-3.5801,-3.5626,0.0,0.0,0.0,0.0,0.0,0.0,-3.1228,0.0,0.0,0.0,-3.0568,-3.0529,0.0,0.0,0.0,0.0,0.0,0.0,0.0,0.0,0.0,0.0,0.0,0.0,0.0,0.0,0.0,0.0,-2.8383,-2.6928,-2.7368,-2.7402,-2.6725,-2.6691,-2.6691,-2.6691,-2.664,-2.5944,-2.4584,-2.5143,-2.4693,-2.3259,-2.3896,-2.419,-2.4209,-2.441,-2.441,-2.4266,-2.479,-2.4924,-2.4842,-2.516,-2.5293,-2.5322,-2.5395,-2.5493,-2.5601,-2.5601,-2.5637,-2.5703,-3.9526,-4.0321,-4.1078,0.0,0.0,0.0,0.0,0.0,0.0,-4.2562,-4.2828,-4.3065,-4.3134,-4.2946,-4.3102,-4.3825,0.0,-4.2432,0.0,0.0,-4.1508,-4.0861,-4.1105,-4.0954,-4.0324,-4.0866,-4.0895,-4.042,-4.0183,0.0,0.0,0.0,0.0,0.0,-3.9645,-4.0112,-4.0597,0.0,-4.07,0.0,0.0,0.0,0.0,-4.0489,-4.0489,-4.0489,-4.0489,-4.0489,-4.0431,0.0,-3.9028,0.0,0.0,0.0,0.0,0.0,0.0,0.0,0.0,0.0,0.0,0.0,0.0,0.0,-3.074,0.0,-3.0605,0.0,0.0,0.0,0.0,0.0,0.0,0.0,-3.062,0.0,0.0,0.0,0.0,0.0,0.0,0.0,0.0,0.0,0.0,0.0,0.0,-2.7503,-2.6742,-2.6691,-2.6691,-2.6691,-2.6691,-2.6201,-2.5152,-2.5373,-2.4935,-2.3837,-2.4094,-2.419,-2.419,-2.4284,-2.4284,-2.4228,-2.4678,-2.4855,-2.4832,-2.516,-2.5303,-2.5293,-2.5321,-2.5398,-2.5493,-2.5535,-2.5573,-2.5658,-3.9248,-4.0165,-4.0874,-4.1446,0.0,0.0,0.0,0.0,0.0,0.0,0.0,0.0,-4.2572,-4.2661,0.0,0.0,-4.3144,-4.2566,0.0,0.0,-4.1163,0.0,0.0,0.0,-4.0393,-4.0516,-4.0701,-4.0971,0.0,0.0,0.0,0.0,0.0,0.0,0.0,-3.9891,-4.0649,0.0,-4.071,-4.1162,-4.0681,-4.0489,-4.0489,-4.0489,-4.0489,-4.0469,-4.0239,-4.0162,-4.0046,-3.9219,-3.8354,0.0,-3.6911,0.0,0.0,0.0,0.0,0.0,-3.4801,0.0,0.0,0.0,0.0,0.0,0.0,0.0,0.0,0.0,0.0,0.0,0.0,0.0,0.0,-3.1091,0.0,-3.0521,0.0,0.0,0.0,0.0,0.0,0.0,0.0,0.0,0.0,0.0,-2.752,0.0,-2.6454,-2.6404,-2.6488,-2.6691,-2.6691,-2.6251,-2.5304,-2.534,-2.491,-2.3989,-2.4046,-2.4113,-2.419,-2.419,-2.419,-2.4228,-2.4623,-2.4804,-2.4832,-2.516,-2.5303,-2.5303,-2.5303,-2.5321,-2.5376,-2.5477,-2.5547,-2.5605,-3.8929,-3.9577,-4.0286,-4.081,0.0,0.0,0.0,0.0,0.0,0.0,0.0,0.0,0.0,0.0,0.0,0.0,0.0,-4.2306,-4.2306,0.0,-4.0883,0.0,0.0,-3.9799,0.0,-3.9512,-3.9783,-3.9839,0.0,0.0,0.0,0.0,0.0,0.0,-3.9352,-4.0195,-4.1954,-4.0648,-4.1226,-4.2874,-4.1181,-4.0489,-4.0489,0.0,-4.0489,-4.0392,-3.9623,0.0,0.0,-3.8334,-3.7469,0.0,0.0,0.0,0.0,0.0,0.0,0.0,0.0,0.0,0.0,-3.4223,0.0,0.0,0.0,0.0,-3.0606,0.0,0.0,0.0,0.0,0.0,-3.0583,-3.054,-3.0565,0.0,0.0,0.0,0.0,0.0,0.0,0.0,0.0,0.0,0.0,-2.7857,-2.7772,0.0,-2.5727,-2.5642,-2.5964,-2.6674,-2.6691,-2.5998,-2.4557,-2.4849,-2.4417,-2.3224,-2.3562,-2.3896,-2.419,-2.419,-2.419,-2.4228,-2.4623,-2.4804,-2.4832,-2.516,-2.5303,-2.5303,-2.5303,-2.5313,-2.5322,-2.5453,-2.5547,-2.5605,-3.7979,-3.8374,-3.8978,-4.0153,-4.0368,0.0,0.0,-4.0967,0.0,0.0,-4.1764,0.0,0.0,-4.2946,-4.3267,0.0,0.0,-4.2828,-4.232,-4.161,0.0,0.0,0.0,-3.9969,0.0,0.0,0.0,0.0,0.0,0.0,0.0,0.0,0.0,0.0,0.0,-3.9607,0.0,0.0,0.0,0.0,0.0,-4.0489,-4.0489,0.0,0.0,-3.9662,-3.9392,-3.8931,0.0,-3.743,-3.6949,-3.6622,-3.6084,-3.5718,-3.5493,-3.5493,-3.5493,0.0,0.0,0.0,-3.4924,-3.4378,0.0,0.0,0.0,0.0,0.0,0.0,0.0,0.0,0.0,0.0,-3.1256,-3.0663,-3.0597,-3.0762,0.0,0.0,0.0,0.0,0.0,0.0,0.0,0.0,0.0,-2.7182,-2.6623,-2.6133,0.0,-2.5609,-2.5947,-2.6674,-2.6691,-2.6454,-2.5947,-2.53,-2.4913,-2.4713,-2.4042,-2.3876,-2.419,-2.419,-2.419,-2.4228,-2.4623,-2.4804,-2.4832,-2.516,-2.5303,-2.5303,-2.5303,-2.5303,-2.5322,-2.5453,-2.5503,-2.5551,-3.7184,-3.7573,-3.8206,0.0,0.0,0.0,0.0,0.0,0.0,0.0,-4.1767,0.0,-4.2966,0.0,-4.3623,0.0,-4.3707,-4.3098,-4.2337,-4.161,0.0,-4.0104,-4.007,0.0,0.0,0.0,0.0,0.0,0.0,-3.9911,0.0,0.0,0.0,0.0,0.0,-3.912,-3.9889,-3.9777,-4.0095,0.0,0.0,-4.0003,0.0,0.0,-3.9553,-3.9219,0.0,-3.8007,-3.7411,-3.6565,-3.6276,-3.618,-3.5661,-3.5493,-3.5493,-3.5493,-3.5493,-3.5493,-3.5493,-3.5493,0.0,-3.4795,-3.443,0.0,-3.3369,0.0,0.0,0.0,0.0,0.0,0.0,0.0,-3.1216,-3.0661,-3.0584,-3.0996,0.0,-3.2938,0.0,0.0,0.0,0.0,0.0,0.0,-2.9005,-2.7434,-2.6724,-2.6167,0.0,0.0,-2.5947,-2.6674,-2.6691,-2.6573,-2.6302,-2.5438,-2.5018,-2.5059,-2.4127,-2.3876,-2.419,-2.419,-2.419,-2.4228,-2.4623,-2.4804,-2.4832,-2.516,-2.5303,-2.5303,-2.5303,-2.5303,-2.5322,-2.5453,-2.5539,-2.5573,-3.6554,-3.7219,0.0,0.0,-3.9489,0.0,0.0,0.0,-4.1221,0.0,-4.1897,-4.2354,-4.2405,-4.3047,-4.3453,-4.342,-4.342,-4.3081,-4.2286,-4.1593,0.0,0.0,-4.007,-4.007,-4.007,0.0,0.0,0.0,0.0,0.0,0.0,0.0,0.0,0.0,-3.8254,0.0,-4.0262,-3.9461,-3.9783,-4.0755,-3.9943,-3.9109,-3.8395,-3.8357,0.0,-3.89,-3.7267,-3.6632,-3.6479,-3.5729,-3.546,-3.546,-3.546,-3.546,-3.546,-3.546,-3.546,-3.546,-3.546,-3.5441,-3.5422,-3.546,0.0,0.0,0.0,0.0,-3.2897,0.0,0.0,0.0,0.0,0.0,0.0,-3.0518,-3.0554,-3.1149,-3.2729,0.0,0.0,0.0,0.0,0.0,0.0,-3.1987,-3.0786,-2.857,-2.7998,-2.7131,0.0,0.0,0.0,-2.6674,-2.6691,-2.6353,-2.5659,-2.5214,-2.4791,-2.4335,-2.3916,-2.3876,-2.419,-2.419,-2.419,-2.4228,-2.4607,-2.479,-2.4832,-2.5149,-2.5284,-2.5303,-2.5303,-2.5293,-2.5331,-2.5459,-2.5573,-2.5703,-3.5638,-3.6399,-3.6964,0.0,-3.8342,-3.9193,0.0,0.0,0.0,0.0,-4.2658,-4.3352,-4.3927,-4.4164,-4.4045,-4.347,-4.342,0.0,0.0,0.0,0.0,-4.0104,-4.007,-4.007,-4.007,-4.007,-4.007,-4.007,0.0,0.0,-3.9759,0.0,0.0,0.0,0.0,-3.846,-3.9424,-3.9173,-3.942,-3.9901,-3.9675,-3.9109,0.0,0.0,-3.7158,-3.6711,-3.6255,-3.5723,-3.5173,-3.4964,-3.4908,-3.4908,-3.4908,-3.4908,-3.4908,-3.4908,-3.4908,-3.4908,-3.4908,-3.4433,-3.4144,-3.5002,-3.4114,-3.3314,0.0,0.0,0.0,0.0,0.0,0.0,0.0,0.0,0.0,-3.0606,-3.0606,-3.1033,-3.2048,0.0,0.0,-3.4112,0.0,0.0,0.0,-3.1441,-2.974,-2.8546,-2.7814,0.0,0.0,0.0,0.0,-2.6708,-2.6691,-2.6607,-2.642,-2.5472,-2.507,-2.5182,-2.4162,-2.3876,-2.419,-2.419,-2.419,-2.4209,-2.4461,-2.4654,-2.4818,-2.5005,-2.5163,-2.5303,-2.5303,-2.5321,-2.5376,-2.5477,-2.5573,-2.5703,-3.4624,-3.5544,0.0,-3.6117,0.0,0.0,-3.8813,0.0,0.0,-4.1593,-4.2116,0.0,-4.3521,-4.3572,-4.3403,-4.2963,-4.2625,0.0,-4.1255,0.0,0.0,-4.0104,-4.007,-4.007,-4.007,-3.9766,0.0,-4.007,0.0,0.0,-3.8917,0.0,0.0,0.0,0.0,-3.7959,-3.8596,-3.8828,-3.9045,-3.9189,-3.9189,0.0,0.0,-3.6939,-3.6005,-3.4983,-3.4983,-3.4861,-3.4694,-3.4694,-3.4694,-3.4694,-3.4694,-3.4694,-3.4694,-3.4694,-3.4694,-3.4694,-3.4694,-3.4054,-3.3564,-3.4187,-3.3386,-3.2646,-3.3469,-3.3479,-3.3516,0.0,0.0,0.0,0.0,0.0,0.0,-3.0539,-3.0533,0.0,0.0,0.0,0.0,0.0,-3.451,0.0,0.0,-3.1795,-2.9989,-2.9316,0.0,0.0,0.0,0.0,0.0,-2.6708,-2.6691,-2.6691,-2.6691,-2.5558,-2.5174,-2.5482,-2.427,-2.3876,-2.419,-2.419,-2.419,-2.4209,-2.441,-2.4607,-2.4818,-2.4937,-2.5111,-2.5303,-2.5303,-2.5354,-2.5447,-2.5498,-2.5564,-2.566,-3.3602,-3.4624,0.0,0.0,0.0,0.0,0.0,-3.895,0.0,-4.0713,0.0,-4.1402,-4.1946,-4.1984,-4.195,-4.1849,0.0,-4.0875,-4.0774,-4.0152,-3.985,-3.9952,-3.9952,-4.0003,-4.007,-3.9462,-3.9445,0.0,-3.7956,-3.7263,-3.7872,0.0,0.0,0.0,0.0,0.0,0.0,-3.8465,-3.8707,-3.8707,-3.8707,-3.7734,-3.6303,-3.6303,-3.5257,-3.3807,-3.3807,-3.4136,-3.4591,-3.4591,-3.4591,-3.4591,-3.4591,-3.4591,-3.4591,-3.4591,-3.4591,-3.4572,-3.4459,-3.3802,-3.3145,-3.3184,-3.2506,-3.1826,-3.1808,-3.1937,-3.2278,-3.3091,-3.2212,0.0,0.0,0.0,0.0,0.0,0.0,0.0,0.0,0.0,0.0,0.0,0.0,0.0,0.0,0.0,0.0,0.0,0.0,0.0,0.0,0.0,0.0,0.0,-2.6691,0.0,-2.6691,0.0,-2.5202,-2.5482,-2.4316,-2.3917,-2.419,-2.419,-2.419,-2.4209,-2.4393,-2.4591,-2.4818,-2.493,-2.5099,-2.5303,-2.5303,-2.5379,-2.5488,-2.5484,-2.5543,-2.5601,-3.2664,0.0,0.0,0.0,0.0,-3.626,-3.7449,-3.9279,-4.043,-4.0132,-4.0643,-4.0849,-4.0475,-4.0394,-4.0167,-3.9541,-3.9379,0.0,0.0,0.0,0.0,-3.9086,-3.9086,-3.9437,-4.007,-3.9952,-3.9952,-4.007,-3.8481,-3.777,-3.7872,0.0,0.0,0.0,0.0,0.0,-3.7946,-3.8465,0.0,-3.8707,-3.8707,-3.7734,-3.6303,-3.6303,-3.5257,-3.3807,-3.3807,-3.3868,-3.3954,-3.3954,-3.3954,-3.3954,-3.3954,-3.3954,-3.3954,-3.3954,-3.3954,-3.3806,-3.316,-3.2367,-3.1816,-3.2027,-3.0988,-3.0239,-3.1504,-3.1485,-3.1448,-3.2241,-3.1813,-3.1441,-3.1827,0.0,0.0,0.0,0.0,0.0,0.0,0.0,0.0,0.0,0.0,-3.3826,0.0,0.0,0.0,0.0,0.0,0.0,0.0,0.0,0.0,0.0,0.0,0.0,0.0,0.0,0.0,-2.5482,-2.4552,-2.4151,-2.419,-2.419,-2.419,-2.419,-2.4247,-2.4461,-2.4804,-2.4832,-2.5012,-2.5303,-2.5303,-2.5313,-2.5357,-2.5465,-2.5517,-2.5539,-3.1815,0.0,0.0,0.0,0.0,0.0,0.0,-3.8162,0.0,-3.9204,-3.8936,-3.8742,-3.883,-3.8857,-3.8729,-3.8334,-3.8302,-3.8174,-3.7838,-3.7822,-3.7978,-3.8302,-3.8302,0.0,-3.8887,-3.8531,-3.8721,-3.9489,-3.8048,-3.7533,-3.7889,0.0,0.0,-3.6028,0.0,-3.721,0.0,0.0,0.0,-3.867,-3.8248,-3.7349,-3.6248,-3.5807,-3.4871,-3.3807,-3.3807,-3.3807,-3.3807,-3.3807,-3.3807,-3.3807,-3.3807,-3.3807,-3.3807,-3.3807,-3.3807,-3.3623,-3.2834,-3.2008,-3.1323,-3.1048,-3.0072,-2.9385,-3.0165,-3.0145,-3.0217,-3.1183,-3.0901,-3.0582,-3.0957,-3.0679,0.0,0.0,0.0,0.0,0.0,0.0,0.0,0.0,0.0,0.0,0.0,0.0,0.0,0.0,0.0,0.0,0.0,0.0,0.0,0.0,0.0,0.0,0.0,0.0,0.0,-2.5747,-2.4512,-2.4016,-2.419,-2.419,-2.419,-2.419,-2.419,-2.4445,-2.4818,-2.4994,-2.5149,-2.5303,-2.5303,-2.5348,-2.5401,-2.5488,-2.5547,-2.5607,0.0,-3.1683,0.0,0.0,-3.4,0.0,-3.5999,-3.6476,-3.7,-3.8019,-3.7213,-3.6801,-3.7251,-3.7294,-3.7294,-3.7294,-3.7294,-3.7294,-3.7294,-3.7294,-3.7413,-3.7515,-3.7515,-3.7568,-3.7582,-3.7026,-3.7301,0.0,-3.7351,-3.7118,0.0,0.0,0.0,0.0,0.0,0.0,0.0,0.0,-3.8342,-3.8235,-3.7595,-3.6831,-3.5954,-3.5247,-3.4504,-3.3807,-3.3807,-3.3807,-3.3807,-3.3807,-3.3807,-3.3807,-3.3807,-3.3807,-3.3807,-3.3807,-3.3678,-3.3366,-3.2559,-3.1751,-3.0944,-3.0155,-2.9475,-2.8994,-2.8994,-2.8994,-2.9273,-3.0174,-3.0039,-2.9896,-3.0311,-3.0398,0.0,0.0,0.0,0.0,0.0,0.0,0.0,0.0,0.0,0.0,-3.3692,0.0,0.0,0.0,0.0,0.0,0.0,0.0,0.0,0.0,0.0,0.0,-2.8156,0.0,-2.5479,0.0,-2.4422,-2.3937,-2.419,-2.419,-2.419,-2.419,-2.419,-2.4445,-2.4832,-2.516,-2.5303,-2.5303,-2.5303,-2.5371,-2.5465,-2.5479,-2.5564,-2.566,0.0,0.0,0.0,0.0,0.0,0.0,0.0,-3.4669,-3.4908,-3.6477,-3.6595,-3.628,-3.5808,-3.5748,-3.5748,-3.5748,-3.5748,-3.5748,-3.5748,-3.5748,-3.6006,-3.6676,-3.6722,-3.6786,-3.6902,-3.6814,-3.6859,0.0,-3.6835,-3.6836,0.0,0.0,0.0,0.0,0.0,0.0,0.0,-3.7097,-3.7184,-3.688,-3.6808,-3.6108,-3.51,-3.5027,-3.4504,-3.3807,-3.3807,-3.3807,-3.3807,-3.3807,-3.3807,-3.3807,-3.3807,-3.3807,-3.3807,-3.3807,-3.3293,-3.254,-3.1733,-3.0925,-3.0118,-2.9329,-2.9049,-2.8994,-2.8994,-2.8994,-2.9104,-2.9444,-2.977,-3.0061,-3.0355,-3.0398,-3.0398,0.0,0.0,0.0,0.0,0.0,-3.1071,-3.2006,0.0,0.0,0.0,-3.4203,0.0,0.0,0.0,0.0,0.0,0.0,0.0,-3.0077,0.0,-2.8262,-2.8982,-2.6244,0.0,-2.4905,-2.4395,-2.417,-2.419,-2.419,-2.419,-2.419,-2.419,-2.4445,-2.4832,-2.516,-2.5303,-2.5303,-2.5303,-2.5303,-2.533,-2.5459,-2.5517,-2.5543,0.0,0.0,0.0,0.0,0.0,0.0,0.0,-3.3326,-3.3409,-3.4096,-3.5169,-3.5804,-3.5534,-3.5504,-3.5504,-3.5504,-3.5504,-3.5325,-3.4921,-3.4891,-3.5052,-3.5321,-3.4941,-3.4958,-3.5428,-3.5018,-3.5244,0.0,0.0,-3.682,-3.6789,0.0,0.0,0.0,0.0,-3.6374,-3.6416,-3.6981,-3.7291,-3.7352,-3.6363,-3.5895,-3.5679,-3.4669,-3.4082,-3.3807,-3.3807,-3.3807,-3.3807,-3.3807,-3.3807,-3.3807,-3.3807,-3.3807,-3.3715,-3.322,-3.2852,-3.232,-3.1035,-3.0448,-3.0008,-2.9195,-2.8994,-2.8994,-2.8994,-2.8994,-2.904,-2.9134,-2.9415,-2.9748,-3.0095,-3.015,-3.0209,0.0,0.0,0.0,0.0,0.0,0.0,-3.0506,0.0,-3.1665,0.0,0.0,0.0,0.0,0.0,0.0,0.0,0.0,0.0,-3.2381,0.0,-2.8956,-2.9761,-2.7191,-2.5652,-2.5142,-2.4516,-2.419,-2.419,-2.419,-2.4284,-2.4393,-2.4512,-2.4697,-2.4943,-2.5192,-2.5303,-2.5303,-2.5303,-2.5321,-2.5379,-2.5421,-2.5484,-2.5564,-2.9702,0.0,-2.9998,0.0,-3.0758,-3.1119,-3.2033,-3.2177,-3.2321,-3.2522,-3.3837,-3.4773,-3.5052,-3.5067,-3.5124,-3.522,-3.5205,-3.4921,-3.4233,-3.4188,-3.4188,-3.4188,-3.3739,0.0,-3.3888,-3.3467,-3.3702,-3.4761,-3.5529,0.0,0.0,0.0,0.0,0.0,-3.5985,-3.6044,-3.588,-3.6272,-3.6441,-3.6363,-3.5221,-3.4932,-3.5066,-3.3855,-3.3504,-3.3606,-3.3606,-3.3707,-3.3807,-3.3807,-3.3642,-3.3495,-3.3733,-3.3642,-3.3348,-3.2779,-3.2265,-3.1659,-3.0522,-3.0026,-2.9714,-2.9122,-2.8994,-2.8994,-2.8994,-2.8994,-2.9017,-2.9089,-2.9267,-2.9532,-2.9924,-2.9999,-3.0089,0.0,0.0,0.0,0.0,0.0,0.0,0.0,-3.0956,-3.1336,-3.1014,0.0,0.0,0.0,0.0,0.0,0.0,0.0,0.0,0.0,0.0,0.0,0.0,0.0,-2.5841,-2.5054,-2.4465,-2.419,-2.419,-2.4247,-2.4357,-2.4512,-2.4756,-2.4891,-2.4949,-2.5203,-2.5303,-2.5303,-2.5303,-2.533,-2.5368,-2.5379,-2.5471,-2.5551,-2.9611,-2.9792,-2.9792,-2.9792,-2.9792,-3.0139,-3.1031,-3.1254,-3.1536,-3.2464,-3.2593,-3.2961,-3.3945,-3.4027,-3.4132,-3.4468,-3.4487,-3.4203,-3.3544,-3.3499,-3.3499,0.0,0.0,-3.32,-3.2557,-3.2527,-3.2576,-3.2617,0.0,0.0,-3.464,0.0,-3.5639,-3.5622,-3.5622,-3.5199,-3.4506,-3.4549,-3.396,-3.3055,-3.302,-3.2843,-3.2535,-3.2517,-3.2809,-3.3214,-3.3214,-3.3465,-3.3807,-3.3807,-3.3275,-3.2761,-3.355,-3.3256,-3.2614,-3.2614,-3.1476,-3.0228,-3.021,-2.9622,-2.8994,-2.8994,-2.8994,-2.8994,-2.8994,-2.8994,-2.9085,-2.9351,-2.9392,-2.9532,-2.9924,-2.9999,-3.0089,-3.0355,0.0,0.0,0.0,0.0,0.0,0.0,-3.2731,-3.2896,-3.196,0.0,0.0,0.0,0.0,0.0,0.0,0.0,0.0,-3.1421,-2.9861,0.0,-2.8994,-2.6612,-2.5017,-2.4208,-2.419,-2.419,-2.4209,-2.441,-2.4495,-2.4528,-2.4858,-2.4911,-2.4832,-2.516,-2.5303,-2.5303,-2.5303,-2.5303,-2.5303,-2.5376,-2.5394,-2.5421,-2.8438,-2.8597,-2.8858,-2.9624,-2.9792,-2.9934,-3.0216,-3.0279,-3.0355,-3.0633,-3.0709,-3.0926,-3.1504,-3.2139,-3.2537,0.0,-3.2833,-3.2645,0.0,-3.2479,-3.2826,-3.2826,-3.2392,-3.2273,-3.2512,-3.1614,-3.1369,-3.1905,0.0,0.0,0.0,-3.4101,-3.4141,-3.4117,-3.4117,-3.3981,-3.3744,-3.3744,-3.3789,-3.3786,-3.3211,-3.3123,-3.3277,-3.2712,-3.2583,-3.2713,-3.2713,-3.2809,-3.2893,-3.264,-3.2399,-3.2201,-3.2169,-3.199,-3.1659,-3.1127,-3.0595,-3.0081,-2.9549,-2.92,-2.8994,-2.8994,-2.8994,-2.8994,-2.8994,-2.8994,-2.9021,-2.9112,-2.9134,-2.927,-2.9712,-2.9796,-2.9927,-3.0323,0.0,0.0,0.0,0.0,0.0,0.0,-3.1049,-3.1298,0.0,-3.1715,0.0,0.0,0.0,0.0,0.0,0.0,0.0,0.0,-3.0507,0.0,-2.8994,-2.7163,-2.561,-2.441,-2.441,-2.441,-2.441,-2.4461,-2.4559,-2.4716,-2.4814,-2.4975,-2.5149,-2.5253,-2.5303,-2.5303,-2.5303,-2.5303,-2.5293,-2.5312,-2.5363,-2.5413,-2.7279,-2.7522,-2.7855,-2.8949,-2.9024,-2.8978,-2.9389,-2.9289,-2.9164,-2.9164,-2.9164,-2.9239,-2.9507,-2.9879,0.0,-3.1086,-3.1284,-3.1112,-3.0409,-3.1166,-3.1693,-3.1693,-3.1321,-3.1345,-3.1749,0.0,0.0,-3.0853,-3.1124,-3.1694,-3.2466,-3.2673,-3.2879,-3.3074,-3.3074,-3.3009,-3.2983,-3.2983,-3.3002,-3.3051,-3.2531,-3.2496,-3.2702,-3.2195,-3.2127,-3.2248,-3.2248,-3.2156,-3.2036,-3.1857,-3.1392,-3.0876,-3.0622,-3.041,-3.0264,-3.0198,-2.9989,-2.9641,-2.9122,-2.8994,-2.8994,-2.8994,-2.8994,-2.8994,-2.8994,-2.8994,-2.904,-2.9134,-2.9156,-2.9291,-2.9729,-2.9813,-2.9943,-3.0343,0.0,-3.0398,-3.0398,0.0,0.0,0.0,0.0,0.0,0.0,-3.133,0.0,0.0,0.0,0.0,0.0,0.0,0.0,-3.301,-3.0583,0.0,-2.9293,-2.7639,-2.6191,-2.494,-2.4575,-2.4461,-2.4607,-2.4607,-2.4697,-2.4877,-2.4949,-2.5061,-2.5184,-2.5264,-2.5303,-2.5303,-2.5303,-2.5303,-2.5303,-2.5303,-2.534,-2.5363,-2.6041,-2.6289,0.0,0.0,-2.7506,0.0,-2.8473,-2.8275,-2.8024,-2.8024,-2.8036,-2.8072,-2.7996,-2.757,-2.7963,-2.9525,0.0,0.0,0.0,-2.9652,-3.0064,-3.0064,-3.0277,0.0,-3.0376,-2.9834,-2.949,-2.9445,-3.0155,-3.0483,-3.0472,-3.1164,-3.1722,-3.2302,-3.2347,-3.229,-3.2148,-3.2205,-3.1816,-3.119,-3.119,-3.119,-3.119,-3.119,-3.1449,-3.1752,-3.1752,-3.1568,-3.1317,-3.1278,-3.0269,-2.906,-2.9047,-2.8756,-2.8616,-2.9759,-2.9562,-2.8994,-2.8994,-2.8994,-2.8994,-2.8994,-2.8994,-2.8994,-2.8994,-2.8994,-2.9067,-2.9351,-2.9392,-2.9513,-2.9924,-2.9999,-3.0075,-3.0355,-3.0398,-3.0398,-3.0398,0.0,0.0,0.0,0.0,0.0,0.0,-3.1865,-3.1482,0.0,0.0,0.0,0.0,0.0,-3.3469,-3.1012,-3.0146,-2.9712,-2.9706,-2.8032,-2.6672,-2.5641,-2.4764,-2.4534,-2.4799,-2.4799,-2.4877,-2.501,-2.5203,-2.5173,-2.5034,-2.5224,-2.5303,-2.5303,-2.5303,-2.5303,-2.5303,-2.5303,-2.5303,-2.5303,0.0,0.0,-2.4545,-2.5667,-2.581,-2.5807,-2.6051,-2.6546,-2.6989,-2.6989,-2.7631,-2.7783,-2.6942,-2.7105,-2.6974,-2.6129,-2.7024,-2.7595,-2.7397,-2.7795,-2.8012,-2.8012,-2.8584,-2.8924,-2.8924,-2.8862,-2.8577,-2.809,-2.877,-2.9032,-2.9007,-2.965,-3.0054,-3.0174,-3.0631,-3.0806,-3.0809,-3.1268,-3.136,-3.119,-3.119,-3.119,-3.119,-3.119,-3.1252,-3.1351,-3.1351,-3.095,-3.0362,-3.0057,-2.9323,-2.8578,-2.8576,-2.8486,-2.8456,-2.8732,-2.8919,-2.8994,-2.8994,-2.8994,-2.8994,-2.8994,-2.8994,-2.8994,-2.8994,-2.8994,-2.9067,-2.9351,-2.9225,-2.9272,-2.9874,-2.9877,-2.9912,-3.0343,-3.0398,-3.0398,-3.0398,-3.0524,0.0,0.0,-3.1094,-3.1191,-3.1151,-3.1055,-3.1144,0.0,0.0,0.0,0.0,0.0,-3.2393,-3.03,-2.9893,-2.9412,-2.882,-2.7749,-2.6529,-2.5183,-2.5736,-2.5647,-2.4949,-2.4949,-2.4974,-2.501,-2.5046,-2.5141,-2.5224,-2.5274,-2.5303,-2.5303,-2.5303,-2.5303,-2.5303,-2.5303,-2.5303,-2.5293,-2.2656,-2.2727,-2.3122,-2.4219,-2.4192,-2.4128,-2.4453,-2.4923,-2.5277,-2.5552,-2.5996,-2.6239,-2.6126,-2.6126,-2.5799,-2.4895,-2.5742,-2.6194,-2.5949,-2.6476,-2.6761,-2.6761,-2.7195,-2.7641,-2.7992,-2.774,-2.7624,-2.7625,-2.7949,-2.8137,-2.8107,-2.8458,-2.8771,-2.8996,-2.9629,-3.0021,-3.0318,-3.0566,-3.07,-3.07,-3.07,-3.0497,-3.0226,-3.0565,-3.048,-3.0176,-3.0176,-2.9702,-2.9028,-2.8783,-2.8237,-2.7633,-2.7635,-2.7759,-2.7929,-2.8129,-2.8558,-2.8952,-2.8773,-2.8863,-2.8994,-2.8994,-2.8994,-2.8994,-2.8994,-2.8994,-2.9067,-2.9351,-2.9289,-2.9355,-2.9908,-2.9908,-2.9958,-3.0343,-3.0398,-3.0414,-3.0441,-3.0537,0.0,-3.0628,-3.0808,-3.0898,-3.0898,-3.0771,-3.0872,-3.1287,0.0,0.0,-3.1121,-3.1525,-3.1469,-3.0789,-3.029,-2.9984,-2.9956,-2.8251,-2.6977,-2.6193,-2.59,-2.571,-2.5583,-2.5182,-2.5046,-2.5122,-2.5034,-2.5057,-2.5152,-2.5103,-2.5115,-2.5163,-2.5163,-2.5214,-2.5303,-2.5303,-2.5303,-2.5303,-2.1602,-2.1592,-2.1878,-2.2708,-2.2533,-2.2366,-2.2941,-2.3083,-2.3289,-2.3688,-2.3871,-2.4214,-2.5083,-2.4825,-2.4616,-2.4582,-2.4971,-2.5071,-2.472,-2.5265,-2.5621,-2.5621,-2.5909,-2.6399,-2.7013,-2.6576,-2.6688,-2.7275,-2.7275,-2.7275,-2.7275,-2.7275,-2.7557,-2.8074,-2.8681,-2.9263,-2.9747,-2.9811,-2.9808,-2.9808,-2.9901,-2.955,-2.9096,-2.9702,-2.955,-2.9011,-2.9011,-2.8484,-2.7789,-2.7789,-2.7317,-2.6725,-2.6791,-2.7019,-2.7365,-2.7707,-2.8281,-2.8791,-2.854,-2.8749,-2.8994,-2.8994,-2.8994,-2.8994,-2.8994,-2.8994,-2.9067,-2.9351,-2.9412,-2.9532,-2.9924,-2.9999,-3.0128,-3.0528,-3.0475,-3.0475,-3.0674,0.0,-3.0614,-3.069,-3.0816,-3.0898,-3.0898,-3.0793,-3.0684,-3.0611,-3.0552,0.0,0.0,-3.0398,-3.0679,-3.1295,-3.0717,-3.0698,-3.1295,-2.9117,-2.7905,-2.7638,-2.6146,-2.5766,-2.6314,-2.5581,-2.5244,-2.5253,-2.5057,-2.4998,-2.4962,-2.4842,-2.4869,-2.4974,-2.4974,-2.5077,-2.5264,-2.5264,-2.5264,-2.5264,-2.013,-2.0225,-2.0183,-1.996,-1.9915,-1.9845,-1.9995,-2.0689,-2.1218,-2.1355,-2.2032,-2.2694,-2.3078,-2.3496,-2.3624,-2.3354,-2.3416,-2.369,-2.4104,-2.3775,-2.3571,-2.3571,-2.423,-2.47,-2.4815,-2.5359,-2.5733,-2.5914,-2.5914,-2.5914,-2.5914,-2.5914,-2.5961,-2.6087,-2.667,-2.7011,-2.7127,-2.8094,-2.8495,-2.8533,-2.8979,-2.9093,-2.8991,-2.911,-2.9076,-2.9011,-2.9011,-2.8484,-2.7789,-2.7789,-2.7317,-2.6758,-2.7083,-2.7241,-2.7303,-2.7378,-2.7707,-2.8201,-2.8749,-2.8952,-2.8994,-2.8994,-2.8994,-2.8994,-2.8994,-2.8994,-2.9067,-2.9351,-2.9412,-2.9532,-2.9924,-2.9999,-3.0338,-3.1328,-3.0891,-3.0667,0.0,0.0,-3.0614,-3.069,-3.0816,-3.0898,-3.0898,-3.0879,-3.0788,-3.0617,-3.0594,-3.0529,-3.0421,-3.0398,-3.0121,-2.9525,-3.0102,-3.0121,-2.9506,-2.9809,-2.924,-2.7857,-2.8249,-2.7769,-2.6551,-2.6416,-2.5864,-2.5034,-2.5022,-2.4943,-2.4828,-2.4818,-2.4818,-2.4828,-2.4828,-2.4917,-2.5046,-2.5046,-2.5046,-2.5077,-1.9387,-1.958,-1.9512,-1.9316,-1.9287,-1.9209,-1.8975,-1.9553,-2.0114,-2.0418,-2.0711,-2.1129,-2.1643,-2.1614,-2.1404,-2.1093,-2.139,-2.1748,-2.2065,-2.2151,-2.2385,-2.2686,-2.2745,-2.2963,-2.3398,-2.4113,-2.4719,-2.5143,-2.5143,-2.5301,-2.5615,-2.5615,-2.5615,-2.5615,-2.6227,-2.6479,-2.6536,-2.696,-2.7176,-2.7215,-2.7765,-2.7734,-2.7453,-2.8125,-2.8112,-2.774,-2.774,-2.752,-2.7215,-2.7215,-2.6979,-2.6725,-2.6939,-2.6971,-2.7019,-2.7241,-2.7589,-2.7992,-2.8533,-2.8839,-2.8994,-2.8994,-2.8994,-2.8906,-2.8448,-2.8356,-2.8272,-2.7959,-2.8307,-2.8802,-2.9115,-2.9635,-3.0223,-3.0893,-3.066,0.0,0.0,-3.0834,-3.0643,-3.0792,-3.0858,-3.0898,-3.0898,-3.0488,-3.0304,-3.0578,-3.0172,-3.0052,-3.0383,-2.9948,-2.9525,-2.9102,-2.9486,-2.9506,-2.9102,-2.9063,-2.8871,-2.8525,-2.742,-2.6787,-2.6582,-2.6009,-2.5482,-2.4998,-2.4911,-2.4799,-2.4623,-2.4528,-2.4545,-2.4639,-2.4639,-2.4741,-2.4891,-2.4891,-2.4891,-2.4917,-1.8321,-1.8686,-1.8802,-1.8697,-1.8841,-1.8877,-1.8545,-1.8769,-1.9112,-1.94,-1.9406,-1.9554,-2.0056,-1.9732,-1.9404,-1.9276,-1.9727,-2.0062,-2.0366,-2.066,-2.1225,-2.2096,-2.1707,-2.1792,-2.2379,-2.2929,-2.3473,-2.3975,-2.4134,-2.4498,-2.4951,-2.5044,-2.5136,-2.5151,-2.5633,-2.5839,-2.5852,-2.5857,-2.5879,-2.5919,-2.6575,-2.6508,-2.6099,-2.716,-2.7199,-2.6691,-2.6691,-2.6691,-2.6691,-2.6691,-2.6691,-2.6691,-2.6691,-2.6691,-2.6758,-2.7051,-2.75,-2.7992,-2.842,-2.8773,-2.8957,-2.8778,-2.8723,-2.8521,-2.7695,-2.7555,-2.7393,-2.6741,-2.7284,-2.7941,-2.8166,-2.8886,-2.9593,-3.004,0.0,0.0,0.0,-3.0133,-3.017,-3.0546,-3.0605,-3.0605,-3.0605,-2.998,-2.9718,-2.9994,-2.9394,-2.9256,-2.9786,-2.9179,-2.8813,-2.8813,-2.8813,-2.9006,-2.939,-2.8368,-2.8272,-2.9063,-2.6682,-2.5874,-2.651,-2.5633,-2.5095,-2.4885,-2.4771,-2.4607,-2.4428,-2.4247,-2.4284,-2.4426,-2.4426,-2.4543,-2.4731,-2.4731,-2.4731,-2.4741,-1.5946,-1.6773,-1.7251,-1.686,-1.7517,-1.8086,-1.8057,-1.8086,-1.7949,-1.7662,-1.7603,-1.774,-1.8143,-1.8182,-1.8445,-1.9253,-1.8894,-1.916,-2.033,-1.9436,-1.9679,-2.1506,-2.1506,-2.1559,-2.1694,-2.1732,-2.1797,-2.193,-2.2534,-2.2884,-2.2929,-2.3481,-2.3744,-2.3744,-2.3788,-2.3816,-2.3859,-2.4333,-2.4549,-2.463,-2.5659,-2.6063,-2.6049,-2.6572,-2.6742,-2.6691,-2.6691,-2.6691,-2.6691,-2.6691,-2.6691,-2.6691,-2.6691,-2.6691,-2.6691,-2.6725,-2.7286,-2.8065,-2.8767,-2.8994,-2.881,-2.8062,-2.7879,-2.7677,-2.6869,-2.6834,-2.6914,-2.6654,-2.6954,-2.7283,-2.7299,-2.7557,-2.809,-2.9041,0.0,0.0,-2.9272,-2.8752,-2.8649,-2.9589,-2.9707,-2.9707,-2.9707,-2.9648,-2.923,-2.8354,-2.8226,-2.8158,-2.8084,-2.8025,-2.7986,-2.7986,-2.7986,-2.8736,-3.0294,-2.8511,-2.8109,-2.9083,-2.7747,-2.6859,-2.6308,-2.6039,-2.5427,-2.4526,-2.4528,-2.441,-2.4228,-2.4227,-2.4209,-2.4228,-2.4228,-2.4358,-2.4528,-2.4528,-2.4528,-2.4561,-1.525,-1.6156,-1.6747,-1.6664,-1.7364,-1.8008,-1.8008,-1.7793,-1.7568,-1.7402,-1.7148,-1.6933,-1.6839,-1.684,-1.6849,-1.685,-1.7126,-1.7676,-1.8576,-1.867,-1.9226,-2.036,-2.0439,-2.0444,-2.0476,-2.0463,-2.0705,-2.1161,-2.1417,-2.169,-2.21,-2.2317,-2.2651,-2.3054,-2.3054,-2.3246,-2.3595,-2.3837,-2.3906,-2.3948,-2.4697,-2.5221,-2.5577,-2.6068,-2.6436,-2.6691,-2.6691,-2.6691,-2.6691,-2.6691,-2.6691,-2.6691,-2.6691,-2.6691,-2.6808,-2.7303,-2.7303,-2.7326,-2.8044,-2.8264,-2.8062,-2.7255,-2.7053,-2.6851,-2.6043,-2.5904,-2.5815,-2.5237,-2.5834,-2.6465,-2.6465,-2.7178,-2.7911,-2.8294,0.0,-2.8039,-2.8495,-2.8285,-2.8279,-2.8749,-2.8789,-2.8788,-2.8743,-2.8234,-2.7953,-2.8035,-2.753,-2.7431,-2.7881,-2.739,-2.7332,-2.7871,-2.7371,-2.789,-2.9583,-2.8883,-2.8663,-2.8887,-2.7277,-2.6359,-2.6086,-2.5396,-2.4874,-2.4495,-2.4495,-2.4393,-2.419,-2.419,-2.419,-2.419,-2.419,-2.4247,-2.4321,-2.4321,-2.4321,-2.4339,-1.414,-1.5084,-1.5677,-1.5566,-1.6533,-1.7331,-1.7197,-1.7222,-1.7129,-1.6992,-1.6592,-1.6201,-1.5889,-1.5742,-1.5547,-1.5244,-1.5662,-1.621,-1.6797,-1.7684,-1.8653,-1.9734,-1.9798,-1.9798,-1.9798,-1.9798,-2.0055,-2.0497,-2.0696,-2.1028,-2.1424,-2.1615,-2.1946,-2.2406,-2.2603,-2.292,-2.3334,-2.3508,-2.3595,-2.3638,-2.4184,-2.4632,-2.5028,-2.5726,-2.6191,-2.6521,-2.6657,-2.6691,-2.6691,-2.6691,-2.6691,-2.6691,-2.6691,-2.6622,-2.6612,-2.718,-2.6866,-2.641,-2.6763,-2.6867,-2.6779,-2.6334,-2.6227,-2.6007,-2.5199,-2.5076,-2.4967,-2.4414,-2.4989,-2.563,-2.5669,-2.6397,-2.702,-2.7072,-2.7082,-2.7123,-2.7239,-2.7262,-2.7433,-2.7808,-2.7871,-2.7869,-2.7793,-2.7245,-2.6973,-2.7171,-2.6618,-2.6511,-2.7054,-2.6774,-2.7005,-2.7871,-2.75,-2.7965,-2.9378,-2.861,-2.8427,-2.8774,-2.6571,-2.5659,-2.5874,-2.4867,-2.441,-2.441,-2.441,-2.4339,-2.419,-2.419,-2.419,-2.419,-2.419,-2.419,-2.419,-2.419,-2.419,-2.4209,-1.2238,-1.3018,-1.3633,-1.3312,-1.4747,-1.5836,-1.5513,-1.6182,-1.6562,-1.6184,-1.5684,-1.54,-1.54,-1.5029,-1.4775,-1.4775,-1.4775,-1.4909,-1.5153,-1.6313,-1.7804,-1.9709,-1.9798,-1.9798,-1.9798,-1.9798,-1.9798,-1.9798,-2.0446,-2.0795,-2.0795,-2.1376,-2.1697,-2.1697,-2.2392,-2.2694,-2.274,-2.3334,-2.3595,-2.3638,-2.4184,-2.4389,-2.4511,-2.5577,-2.5997,-2.6068,-2.6521,-2.6691,-2.6691,-2.6691,-2.6691,-2.6674,-2.6674,-2.6426,-2.6087,-2.6087,-2.5817,-2.5382,-2.492,-2.4838,-2.4972,-2.5303,-2.5403,-2.5182,-2.4373,-2.4357,-2.4495,-2.4495,-2.4654,-2.4842,-2.4974,-2.501,-2.5077,-2.5264,-2.5303,-2.5312,-2.5383,-2.5465,-2.5847,-2.6771,-2.695,-2.6951,-2.6893,-2.6891,-2.6467,-2.5471,-2.5398,-2.5371,-2.5313,-2.614,-2.7005,-2.7871,-2.8485,-2.9193,-2.998,-2.7554,-2.7153,-2.876,-2.5885,-2.4942,-2.567,-2.4672,-2.419,-2.4208,-2.419,-2.419,-2.4208,-2.419,-2.419,-2.4208,-2.419,-2.419,-2.419,-2.419,-2.419,-2.419,-1.167,-1.2443,-1.3104,-1.3006,-1.398,-1.4932,-1.5404,-1.5486,-1.5482,-1.5595,-1.5234,-1.4853,-1.4551,-1.4404,-1.4326,-1.4326,-1.4326,-1.458,-1.5143,-1.6056,-1.6837,-1.7393,-1.8438,-1.9044,-1.9044,-1.9527,-1.9798,-1.9798,-2.0003,-2.0105,-2.0105,-2.0283,-2.062,-2.1064,-2.1272,-2.1846,-2.2694,-2.2875,-2.3187,-2.3595,-2.3752,-2.4074,-2.443,-2.4752,-2.5335,-2.6013,-2.6156,-2.6401,-2.6691,-2.6691,-2.6353,-2.5845,-2.5304,-2.5077,-2.5056,-2.5527,-2.5183,-2.4733,-2.5129,-2.4821,-2.4421,-2.4519,-2.4557,-2.4502,-2.4245,-2.4247,-2.4284,-2.4284,-2.4559,-2.4818,-2.4855,-2.5061,-2.5224,-2.5284,-2.5303,-2.5339,-2.5459,-2.5498,-2.5616,-2.5956,-2.6008,-2.5966,-2.5851,-2.584,-2.5699,-2.5359,-2.5321,-2.5601,-2.6178,-2.6467,-2.7182,-2.8492,-2.8706,-2.9121,-2.978,-2.8506,-2.7991,-2.8275,-2.6296,-2.569,-2.6274,-2.4853,-2.4502,-2.5017,-2.4447,-2.4074,-2.3876,-2.4094,-2.4074,-2.3876,-2.4113,-2.419,-2.419,-2.419,-2.419,-2.417,-1.1403,-1.1901,-1.2265,-1.2143,-1.2894,-1.3566,-1.3777,-1.4179,-1.4442,-1.4497,-1.4366,-1.4238,-1.4087,-1.3984,-1.3887,-1.3887,-1.374,-1.3908,-1.4512,-1.4993,-1.5332,-1.5464,-1.6673,-1.7566,-1.8108,-1.8807,-1.9171,-1.9171,-1.9171,-1.9171,-1.9171,-1.9171,-1.9357,-1.9798,-2.0013,-2.0556,-2.1293,-2.1769,-2.2221,-2.2564,-2.2748,-2.3039,-2.3335,-2.356,-2.4185,-2.4991,-2.5228,-2.5785,-2.6351,-2.605,-2.558,-2.5084,-2.4659,-2.4394,-2.4373,-2.4884,-2.4373,-2.3848,-2.4707,-2.4381,-2.3876,-2.4113,-2.419,-2.419,-2.419,-2.419,-2.4247,-2.441,-2.4623,-2.4847,-2.4962,-2.516,-2.5303,-2.5339,-2.5348,-2.5368,-2.5473,-2.5511,-2.554,-2.5562,-2.5881,-2.5937,-2.5446,-2.5716,-2.5746,-2.5332,-2.5224,-2.5403,-2.5951,-2.6515,-2.7249,-2.8126,-2.8717,-2.9053,-2.9063,-2.8521,-2.8185,-2.809,-2.6151,-2.5542,-2.608,-2.4795,-2.4465,-2.4887,-2.441,-2.4016,-2.3714,-2.4074,-2.3917,-2.3544,-2.3876,-2.3917,-2.3795,-2.3795,-2.3795,-2.3774,-1.1216,-1.1269,-1.1189,-1.0922,-1.1503,-1.1796,-1.1316,-1.2464,-1.3259,-1.2977,-1.3156,-1.3417,-1.3763,-1.3465,-1.3285,-1.3336,-1.3046,-1.3047,-1.3428,-1.3447,-1.3623,-1.4004,-1.4666,-1.5669,-1.6941,-1.7689,-1.8062,-1.8062,-1.8097,-1.8097,-1.8097,-1.8157,-1.8204,-1.8204,-1.878,-1.9041,-1.9163,-2.0316,-2.0864,-2.0947,-2.148,-2.1695,-2.1734,-2.2164,-2.2747,-2.339,-2.392,-2.483,-2.57,-2.4941,-2.4546,-2.4404,-2.4337,-2.4052,-2.3804,-2.4067,-2.3508,-2.2947,-2.3896,-2.3735,-2.3455,-2.4054,-2.419,-2.419,-2.4228,-2.4228,-2.4339,-2.4716,-2.4818,-2.491,-2.5222,-2.5293,-2.5321,-2.5398,-2.542,-2.5434,-2.5489,-2.5564,-2.5597,-2.5605,-2.629,-2.6427,-2.5587,-2.6138,-2.6195,-2.5321,-2.5077,-2.4993,-2.5038,-2.6408,-2.7191,-2.7198,-2.8577,-2.8942,-2.8084,-2.7834,-2.7745,-2.7829,-2.5632,-2.4875,-2.5384,-2.4557,-2.4207,-2.4261,-2.4188,-2.3955,-2.3649,-2.3976,-2.3735,-2.3189,-2.3522,-2.3459,-2.3189,-2.3189,-2.3189,-2.3189,-1.0053,-1.006,-1.004,-0.998,-1.0139,-1.0439,-1.092,-1.129,-1.1559,-1.18,-1.1894,-1.1817,-1.1541,-1.1447,-1.1598,-1.21,-1.2607,-1.292,-1.3008,-1.3018,-1.3057,-1.3154,-1.3744,-1.4254,-1.454,-1.6041,-1.6799,-1.6799,-1.7242,-1.7485,-1.7533,-1.8001,-1.8204,-1.8204,-1.8333,-1.8668,-1.9163,-1.9828,-2.0401,-2.0947,-2.148,-2.1695,-2.1695,-2.1798,-2.2156,-2.2689,-2.3147,-2.3756,-2.4298,-2.3857,-2.3658,-2.3528,-2.297,-2.2722,-2.2709,-2.2972,-2.307,-2.3189,-2.3671,-2.3896,-2.4016,-2.417,-2.419,-2.4247,-2.441,-2.4426,-2.4512,-2.4746,-2.4877,-2.4974,-2.5046,-2.5245,-2.5376,-2.5406,-2.5428,-2.5493,-2.5564,-2.5556,-2.578,-2.6443,-2.6046,-2.5878,-2.6294,-2.5742,-2.5237,-2.4929,-2.4869,-2.5012,-2.5367,-2.6553,-2.7176,-2.7127,-2.8305,-2.8602,-2.795,-2.7272,-2.661,-2.5979,-2.5445,-2.5259,-2.5384,-2.4557,-2.4401,-2.4701,-2.4088,-2.3459,-2.2947,-2.3277,-2.3165,-2.2848,-2.3165,-2.3259,-2.3189,-2.3189,-2.3189,-2.3165,-0.9686,-0.9686,-0.9686,-0.9686,-0.9686,-0.9806,-1.0038,-1.0401,-1.0606,-1.0688,-1.0946,-1.1079,-1.0838,-1.1074,-1.1584,-1.2246,-1.2666,-1.2881,-1.2881,-1.2881,-1.2881,-1.2881,-1.319,-1.3372,-1.3372,-1.4272,-1.5007,-1.559,-1.5913,-1.6185,-1.6513,-1.6803,-1.7103,-1.74,-1.74,-1.7555,-1.7873,-1.8412,-1.9003,-1.9606,-2.0152,-2.0531,-2.0737,-2.0737,-2.1107,-2.1629,-2.1889,-2.2397,-2.3047,-2.3331,-2.3173,-2.2818,-2.2429,-2.231,-2.2349,-2.2625,-2.2738,-2.2857,-2.3323,-2.3588,-2.3774,-2.3917,-2.4074,-2.4247,-2.4444,-2.4495,-2.4575,-2.4836,-2.4949,-2.5034,-2.5141,-2.5292,-2.5413,-2.5447,-2.5493,-2.5567,-2.5636,-2.5586,-2.5705,-2.6136,-2.6094,-2.6146,-2.642,-2.552,-2.4883,-2.4804,-2.4567,-2.4684,-2.5282,-2.6016,-2.6549,-2.6895,-2.7857,-2.7915,-2.6976,-2.7166,-2.6535,-2.5075,-2.5332,-2.5262,-2.4865,-2.445,-2.4181,-2.4068,-2.3638,-2.3165,-2.2721,-2.3069,-2.2805,-2.2214,-2.253,-2.246,-2.2146,-2.2146,-2.2272,-2.2441,-0.9354,-0.9354,-0.9418,-0.9532,-0.9532,-0.9452,-0.915,-0.9644,-0.9921,-0.965,-1.0115,-1.0466,-1.0466,-1.1082,-1.1701,-1.2314,-1.2471,-1.252,-1.252,-1.252,-1.2569,-1.2715,-1.2715,-1.2774,-1.2881,-1.2881,-1.3382,-1.4387,-1.4525,-1.4778,-1.5309,-1.541,-1.5776,-1.6337,-1.6337,-1.6423,-1.6552,-1.7076,-1.7544,-1.8027,-1.865,-1.9169,-1.9566,-1.969,-2.0049,-2.0543,-2.0603,-2.1197,-2.2069,-2.2829,-2.2743,-2.2282,-2.2209,-2.2237,-2.2321,-2.2476,-2.2483,-2.2544,-2.3063,-2.3282,-2.3437,-2.3714,-2.3996,-2.4247,-2.4495,-2.4543,-2.4636,-2.4949,-2.5022,-2.5111,-2.5284,-2.5379,-2.5441,-2.5492,-2.5556,-2.5621,-2.5662,-2.5605,-2.5664,-2.5906,-2.6595,-2.6881,-2.6453,-2.5513,-2.4922,-2.4807,-2.4284,-2.4164,-2.4657,-2.52,-2.5747,-2.6314,-2.7278,-2.718,-2.5939,-2.7026,-2.6636,-2.4781,-2.5224,-2.509,-2.4356,-2.427,-2.3867,-2.323,-2.323,-2.2981,-2.2603,-2.2877,-2.2392,-2.1521,-2.1799,-2.1532,-2.0991,-2.0991,-2.1213,-2.1552,-0.7829,-0.7991,-0.8159,-0.8811,-0.8925,-0.8911,-0.8871,-0.8918,-0.901,-0.8969,-0.9008,-0.9061,-0.9061,-0.9666,-1.0123,-1.0218,-1.0771,-1.1074,-1.1074,-1.1074,-1.1325,-1.1922,-1.1972,-1.2236,-1.2881,-1.2881,-1.2968,-1.3152,-1.3647,-1.3956,-1.405,-1.456,-1.5141,-1.572,-1.572,-1.6008,-1.6552,-1.7076,-1.7353,-1.7504,-1.8496,-1.893,-1.9043,-1.953,-1.975,-1.9882,-2.0242,-2.0907,-2.1669,-2.1807,-2.2057,-2.2237,-2.1823,-2.1957,-2.2237,-2.1866,-2.2388,-2.3111,-2.3165,-2.361,-2.4074,-2.4113,-2.417,-2.4303,-2.467,-2.476,-2.4799,-2.4974,-2.5141,-2.5284,-2.5368,-2.5447,-2.5496,-2.5503,-2.5564,-2.5583,-2.5524,-2.5477,-2.5977,-2.7486,-2.8168,-2.8061,-2.6932,-2.6058,-2.5394,-2.492,-2.4179,-2.354,-2.3045,-2.4609,-2.5267,-2.4825,-2.6467,-2.6933,-2.6009,-2.6179,-2.59,-2.5109,-2.5199,-2.5029,-2.4648,-2.4185,-2.3737,-2.3372,-2.3372,-2.2899,-2.2102,-2.2118,-2.1746,-2.1086,-2.115,-2.1086,-2.0991,-2.0991,-2.1023,-2.1086,-0.702,-0.7074,-0.7182,-0.7509,-0.7937,-0.8049,-0.7616,-0.8262,-0.8646,-0.8262,-0.8533,-0.8804,-0.8804,-0.9413,-0.9961,-1.032,-1.0618,-1.0813,-1.0813,-1.0813,-1.0914,-1.1216,-1.1266,-1.1366,-1.1742,-1.1742,-1.1891,-1.2295,-1.2939,-1.3467,-1.3826,-1.405,-1.4503,-1.5096,-1.5096,-1.5421,-1.5996,-1.6244,-1.6714,-1.7353,-1.7827,-1.8185,-1.8496,-1.9043,-1.9244,-1.9354,-2.0039,-2.055,-2.0894,-2.1181,-2.1538,-2.1869,-2.1658,-2.1928,-2.2254,-2.2032,-2.2326,-2.2712,-2.2712,-2.3153,-2.3649,-2.3649,-2.4019,-2.4409,-2.4591,-2.4785,-2.4974,-2.5187,-2.5281,-2.5387,-2.5447,-2.5488,-2.5496,-2.5508,-2.5935,-2.61,-2.5571,-2.6275,-2.6987,-2.7338,-2.7201,-2.6686,-2.5706,-2.5339,-2.4884,-2.4222,-2.3786,-2.3573,-2.3701,-2.434,-2.4763,-2.4903,-2.5706,-2.5806,-2.5105,-2.5411,-2.5297,-2.4736,-2.4736,-2.4607,-2.4381,-2.4112,-2.371,-2.3162,-2.3162,-2.2724,-2.2013,-2.2013,-2.1448,-2.0616,-2.0616,-2.0465,-2.0311,-2.0532,-2.0616,-2.0649]},{"header":{"parameterUnit":"m.s-1","parameterCategory":1,"la1":30.6,"la2":28.766,"lo1":-90.7593,"lo2":-88.6598,"dy":0.0162,"dx":0.0183,"nx":116,"ny":114,"refTime":"2023-06-27T12:00:00:Z","depth":0,"parameterNumber":3,"parameterNumberName":"V-component_of_WINDS"},"data":[0.0,0.0,0.0,0.0,0.0,0.0,0.0,0.0,0.0,0.0,0.0,0.0,0.0,0.0,0.0,0.0,0.0,0.0,0.0,0.0,0.0,0.0,0.0,0.0,0.0,0.0,0.0,0.0,0.0,0.0,0.0,0.0,0.0,0.0,0.0,0.0,0.0,0.0,0.0,0.0,0.0,0.0,0.0,0.0,0.0,0.0,0.0,0.0,0.0,0.0,0.0,0.0,0.0,0.0,0.0,0.0,0.0,0.0,0.0,0.0,0.0,0.0,0.0,0.0,0.0,0.0,0.0,0.0,0.0,0.0,0.0,0.0,0.0,0.0,0.0,0.0,0.0,0.0,0.0,0.0,0.0,0.0,0.0,0.0,0.0,0.0,0.0,0.0,0.0,0.0,0.0,0.0,0.0,0.0,0.0,0.0,0.0,0.0,0.0,0.0,0.0,0.0,0.0,0.0,0.0,0.0,0.0,0.0,0.0,0.0,0.0,0.0,0.0,0.0,0.0,0.0,0.0,0.0,0.0,0.0,0.0,0.0,0.0,0.0,0.0,0.0,0.0,0.0,0.0,0.0,0.0,0.0,0.0,0.0,0.0,0.0,0.0,0.0,0.0,0.0,0.0,0.0,0.0,0.0,0.0,0.0,0.0,0.0,0.0,0.0,0.0,0.0,0.0,0.0,0.0,0.0,0.0,0.0,0.0,0.0,0.0,0.0,0.0,0.0,0.0,0.0,0.0,0.0,0.0,0.0,0.0,0.0,0.0,0.0,0.0,0.0,0.0,0.0,0.0,0.0,0.0,0.0,0.0,0.0,0.0,0.0,0.0,0.0,0.0,0.0,0.0,0.0,0.0,0.0,0.0,0.0,0.0,0.0,0.0,0.0,0.0,0.0,0.0,0.0,0.0,0.0,0.0,0.0,0.0,0.0,0.0,0.0,0.0,0.0,0.0,0.0,0.0,0.0,0.0,0.0,0.0,0.0,0.0,0.0,0.0,0.0,0.0,0.0,0.0,0.0,0.0,0.0,0.0,0.0,0.0,0.0,0.0,0.0,0.0,0.0,0.0,0.0,0.0,0.0,0.0,0.0,0.0,0.0,0.0,0.0,0.0,0.0,0.0,0.0,0.0,0.0,0.0,0.0,0.0,0.0,0.0,0.0,0.0,0.0,0.0,0.0,0.0,0.0,0.0,0.0,0.0,0.0,0.0,0.0,0.0,0.0,0.0,0.0,0.0,0.0,0.0,0.0,0.0,0.0,0.0,0.0,0.0,0.0,0.0,0.0,0.0,0.0,0.0,0.0,0.0,0.0,0.0,0.0,0.0,0.0,0.0,0.0,0.0,0.0,0.0,0.0,0.0,0.0,0.0,0.0,0.0,0.0,0.0,0.0,0.0,0.0,0.0,0.0,0.0,0.0,0.0,0.0,0.0,0.0,0.0,0.0,0.0,0.0,0.0,0.0,0.0,0.0,0.0,0.0,0.0,0.0,0.0,0.0,0.0,0.0,0.0,0.0,0.0,0.0,0.0,0.0,0.0,0.0,0.0,0.0,0.0,0.0,0.0,0.0,0.0,0.0,0.0,0.0,0.0,0.0,0.0,0.0,0.0,0.0,0.0,0.0,0.0,0.0,0.0,0.0,0.0,0.0,0.0,0.0,0.0,0.0,0.0,0.0,0.0,0.0,0.0,0.0,0.0,0.0,0.0,0.0,0.0,0.0,0.0,0.0,0.0,0.0,0.0,0.0,0.0,0.0,0.0,0.0,0.0,0.0,0.0,0.0,0.0,0.0,0.0,0.0,0.0,0.0,0.0,0.0,0.0,0.0,0.0,0.0,0.0,0.0,0.0,0.0,0.0,0.0,0.0,0.0,0.0,0.0,0.0,0.0,0.0,0.0,0.0,0.0,0.0,0.0,0.0,0.0,0.0,0.0,0.0,0.0,0.0,0.0,0.0,0.0,0.0,0.0,0.0,0.0,0.0,0.0,0.0,0.0,0.0,0.0,0.0,0.0,0.0,0.0,0.0,0.0,0.0,0.0,0.0,0.0,0.0,0.0,0.0,0.0,0.0,0.0,0.0,0.0,0.0,0.0,0.0,0.0,0.0,0.0,0.0,0.0,0.0,0.0,0.0,0.0,0.0,0.0,0.0,0.0,0.0,0.0,0.0,0.0,0.0,0.0,0.0,0.0,0.0,0.0,0.0,0.0,0.0,0.0,0.0,0.0,0.0,0.0,0.0,0.0,0.0,0.0,0.0,0.0,0.0,0.0,0.0,0.0,0.0,0.0,0.0,0.0,0.0,0.0,0.0,0.0,0.0,0.0,0.0,0.0,0.0,0.0,0.0,0.0,0.0,0.0,0.0,0.0,0.0,0.0,0.0,0.0,0.0,0.0,0.0,0.0,0.0,0.0,0.0,0.0,0.0,0.0,0.0,0.0,0.0,0.0,0.0,0.0,0.0,0.0,0.0,0.0,0.0,0.0,0.0,0.0,0.0,0.0,0.0,0.0,0.0,0.0,0.0,0.0,0.0,0.0,0.0,0.0,0.0,0.0,0.0,0.0,0.0,0.0,0.0,0.0,0.0,0.0,0.0,0.0,0.0,0.0,0.0,0.0,0.0,0.0,0.0,0.0,0.0,0.0,0.0,0.0,0.0,0.0,0.0,0.0,0.0,0.0,0.0,0.0,0.0,0.0,0.0,0.0,0.0,0.0,0.0,0.0,0.0,0.0,0.0,0.0,0.0,0.0,0.0,0.0,0.0,0.0,0.0,0.0,0.0,0.0,0.0,0.0,0.0,0.0,0.0,0.0,0.0,0.0,0.0,0.0,0.0,0.0,0.0,0.0,0.0,0.0,0.0,0.0,0.0,0.0,0.0,0.0,0.0,0.0,0.0,0.0,0.0,0.0,0.0,0.0,0.0,0.0,0.0,0.0,0.0,0.0,0.0,0.0,0.0,0.0,0.0,0.0,0.0,0.0,0.0,0.0,0.0,0.0,0.0,0.0,0.0,0.0,0.0,0.0,0.0,0.0,0.0,0.0,0.0,0.0,0.0,0.0,0.0,0.0,0.0,0.0,0.0,0.0,0.0,0.0,0.0,0.0,0.0,0.0,0.0,0.0,0.0,0.0,0.0,0.0,0.0,0.0,0.0,0.0,0.0,0.0,0.0,0.0,0.0,0.0,0.0,0.0,0.0,0.0,0.0,0.0,0.0,0.0,0.0,0.0,0.0,0.0,0.0,0.0,0.0,0.0,0.0,0.0,0.0,0.0,0.0,0.0,0.0,0.0,0.0,0.0,0.0,0.0,0.0,0.0,0.0,0.0,0.0,0.0,0.0,0.0,0.0,0.0,0.0,0.0,0.0,0.0,0.0,0.0,0.0,0.0,0.0,0.0,0.0,0.0,0.0,0.0,0.0,0.0,0.0,0.0,0.0,0.0,0.0,0.0,0.0,0.0,0.0,0.0,0.0,0.0,0.0,0.0,0.0,0.0,0.0,0.0,0.0,0.0,0.0,0.0,0.0,0.0,0.0,0.0,0.0,0.0,0.0,0.0,0.0,0.0,0.0,0.0,0.0,0.0,0.0,0.0,0.0,0.0,0.0,0.0,0.0,0.0,0.0,0.0,0.0,0.0,0.0,0.0,0.0,0.0,0.0,0.0,0.0,0.0,0.0,0.0,0.0,0.0,0.0,0.0,0.0,0.0,0.0,0.0,0.0,0.0,0.0,0.0,0.0,0.0,0.0,0.0,0.0,0.0,0.0,0.0,0.0,0.0,0.0,0.0,0.0,0.0,0.0,0.0,0.0,0.0,0.0,0.0,0.0,0.0,0.0,0.0,0.0,0.0,0.0,0.0,0.0,0.0,0.0,0.0,0.0,0.0,0.0,0.0,0.0,0.0,0.0,0.0,0.0,0.0,0.0,0.0,0.0,0.0,0.0,0.0,0.0,0.0,0.0,0.0,0.0,0.0,0.0,0.0,0.0,0.0,0.0,0.0,0.0,0.0,0.0,0.0,0.0,0.0,0.0,0.0,0.0,0.0,0.0,0.0,0.0,0.0,0.0,0.0,0.0,0.0,0.0,0.0,0.0,0.0,0.0,0.0,0.0,0.0,0.0,0.0,0.0,0.0,0.0,0.0,0.0,0.0,0.0,0.0,0.0,0.0,0.0,0.0,0.0,0.0,0.0,0.0,0.0,0.0,0.0,0.0,0.0,0.0,0.0,0.0,0.0,0.0,0.0,0.0,0.0,0.0,0.0,0.0,0.0,0.0,0.0,0.0,0.0,0.0,0.0,0.0,0.0,0.0,0.0,0.0,0.0,0.0,0.0,0.0,0.0,0.0,0.0,0.0,0.0,0.0,0.0,0.0,0.0,0.0,0.0,0.0,0.0,0.0,0.0,0.0,0.0,0.0,0.0,0.0,0.0,0.0,0.0,0.0,0.0,0.0,0.0,0.0,0.0,0.0,0.0,0.0,0.0,0.0,0.0,0.0,0.0,0.0,0.0,0.0,0.0,0.0,0.0,0.0,0.0,0.0,0.0,0.0,0.0,0.0,0.0,0.0,0.0,0.0,0.0,0.0,0.0,0.0,0.0,0.0,0.0,0.0,0.0,0.0,0.0,0.0,0.0,0.0,0.0,0.0,0.0,0.0,0.0,0.0,0.0,0.0,0.0,0.0,0.0,0.0,0.0,0.0,0.0,0.0,0.0,0.0,0.0,0.0,0.0,0.0,0.0,0.0,0.0,0.0,0.0,0.0,0.0,0.0,0.0,0.0,0.0,0.0,0.0,0.0,0.0,0.0,0.0,0.0,0.0,0.0,0.0,0.0,0.0,0.0,0.0,0.0,0.0,0.0,0.0,0.0,0.0,0.0,0.0,0.0,0.0,0.0,0.0,0.0,0.0,0.0,0.0,0.0,0.0,0.0,0.0,0.0,0.0,0.0,0.0,0.0,0.0,0.0,0.0,0.0,0.0,0.0,0.0,0.0,0.0,0.0,0.0,0.0,0.0,0.0,0.0,0.0,0.0,0.0,0.0,0.0,0.0,0.0,0.0,0.0,0.0,0.0,0.0,0.0,0.0,0.0,0.0,0.0,0.0,0.0,0.0,0.0,0.0,0.0,0.0,0.0,0.0,0.0,0.0,0.0,0.0,0.0,0.0,0.0,0.0,0.0,0.0,0.0,0.0,0.0,0.0,0.0,0.0,0.0,0.0,0.0,0.0,0.0,0.0,0.0,0.0,0.0,0.0,0.0,0.0,0.0,0.0,0.0,0.0,0.0,0.0,0.0,0.0,0.0,0.0,0.0,0.0,0.0,0.0,0.0,0.0,0.0,0.0,0.0,0.0,0.0,0.0,0.0,0.0,0.0,0.0,0.0,0.0,0.0,0.0,0.0,0.0,0.0,0.0,0.0,0.0,0.0,0.0,0.0,0.0,0.0,0.0,0.0,0.0,0.0,0.0,0.0,0.0,0.0,0.0,0.0,0.0,0.0,0.0,0.0,0.0,0.0,0.0,0.0,0.0,0.0,0.0,0.0,0.0,0.0,0.0,0.0,0.0,0.0,0.0,0.0,0.0,0.0,0.0,0.0,0.0,0.0,0.0,0.0,0.0,0.0,0.0,0.0,0.0,0.0,0.0,0.0,0.0,0.0,0.0,0.0,0.0,0.0,0.0,0.0,0.0,0.0,0.0,0.0,0.0,0.0,0.0,0.0,0.0,0.0,0.0,0.0,0.0,0.0,0.0,0.0,0.0,0.0,0.0,0.0,0.0,0.0,0.0,0.0,0.0,0.0,0.0,0.0,0.0,0.0,0.0,0.0,0.0,0.0,0.0,0.0,0.0,0.0,0.0,0.0,0.0,0.0,0.0,0.0,0.0,0.0,0.0,0.0,0.0,0.0,0.0,0.0,0.0,0.0,0.0,0.0,0.0,0.0,0.0,0.0,0.0,0.0,0.0,0.0,0.0,0.0,0.0,0.0,0.0,0.0,0.0,0.0,0.0,0.0,0.0,0.0,0.0,0.0,0.0,0.0,0.0,0.0,0.0,0.0,0.0,0.0,0.0,0.0,0.0,0.0,0.0,0.0,0.0,0.0,0.0,0.0,0.0,0.0,-0.9572,0.0,0.0,0.0,0.0,0.0,0.0,0.0,0.0,0.0,0.0,0.0,0.0,0.0,0.0,0.0,0.0,0.0,0.0,0.0,0.0,0.0,0.0,0.0,0.0,0.0,0.0,0.0,0.0,0.0,0.0,0.0,0.0,0.0,0.0,0.0,0.0,0.0,0.0,0.0,0.0,0.0,0.0,0.0,0.0,0.0,0.0,0.0,0.0,0.0,0.0,0.0,0.0,0.0,0.0,0.0,0.0,0.0,0.0,0.0,0.0,0.0,0.0,0.0,0.0,0.0,0.0,0.0,0.0,0.0,0.0,0.0,0.0,0.0,0.0,0.0,0.0,0.0,0.0,0.0,0.0,0.0,0.0,0.0,0.0,0.0,0.0,0.0,0.0,0.0,0.0,0.0,0.0,0.0,0.0,0.0,0.0,0.0,0.0,0.0,0.0,0.0,0.0,0.0,0.0,0.0,0.0,0.0,0.0,0.0,0.0,0.0,0.0,0.0,0.0,0.0,0.0,-1.0535,0.0,0.0,0.0,0.0,0.0,0.0,0.0,0.0,0.0,0.0,0.0,0.0,0.0,0.0,0.0,0.0,0.0,0.0,0.0,0.0,0.0,0.0,0.0,0.0,0.0,0.0,0.0,0.0,0.0,0.0,0.0,0.0,0.0,0.0,0.0,0.0,0.0,0.0,0.0,0.0,0.0,0.0,0.0,0.0,0.0,0.0,0.0,0.0,0.0,0.0,0.0,0.0,0.0,0.0,0.0,0.0,0.0,0.0,0.0,0.0,0.0,0.0,0.0,0.0,0.0,0.0,0.0,0.0,0.0,0.0,0.0,0.0,0.0,0.0,0.0,0.0,0.0,0.0,0.0,0.0,0.0,0.0,0.0,0.0,0.0,0.0,0.0,0.0,0.0,0.0,0.0,0.0,0.0,0.0,0.0,0.0,0.0,0.0,0.0,0.0,0.0,0.0,0.0,0.0,0.0,0.0,0.0,0.0,-0.9476,-0.9574,-0.9574,-0.9574,-0.9659,-0.9788,-0.951,-1.0185,-1.1396,0.0,0.0,0.0,0.0,0.0,0.0,0.0,0.0,0.0,0.0,0.0,0.0,0.0,0.0,0.0,0.0,0.0,0.0,0.0,0.0,0.0,0.0,0.0,0.0,0.0,0.0,0.0,0.0,0.0,0.0,0.0,0.0,0.0,0.0,0.0,0.0,0.0,0.0,0.2981,0.2819,0.1974,0.083,-0.0496,-0.2463,0.0,0.0,0.0,0.0,0.0,0.0,0.0,0.0,0.0,0.0,0.0,0.0,0.0,0.0,0.0,0.0,0.0,0.0,0.0,0.0,0.0,0.0,0.0,0.0,0.0,0.0,0.0,0.0,0.0,0.0,0.0,0.0,0.0,0.0,0.0,0.0,0.0,0.0,0.0,0.0,0.0,0.0,0.0,-0.0518,-0.2037,0.0,0.0,0.0,0.0,0.0,0.0,0.0,0.0,0.0,0.0,0.0,0.0,0.0,0.0,-0.9289,-0.9585,-0.9734,-0.9737,-1.0151,-1.0344,-1.0344,-1.0344,-1.0429,-1.0565,-1.0392,0.0,-1.1417,-1.2627,0.0,0.0,0.0,0.0,0.0,0.0,0.0,0.0,0.0,0.0,0.0,0.0,0.0,0.0,0.0,0.0,0.0,0.0,0.0,0.0,0.0,0.0,0.0,0.0,0.0,0.0,0.0,0.0,0.0,0.0,0.0,0.0,0.0,0.0,0.0,0.0,0.4314,0.4126,0.4047,0.3609,0.2838,0.1802,0.0238,-0.1444,-0.3091,-0.3637,0.0,0.0,0.0,0.0,0.0,0.0,0.0,0.0,0.0,0.0,0.0,0.0,0.0,0.0,0.0,0.0,0.0,0.0,0.0,0.0,0.0,0.0,0.0,0.0,0.0,0.0,0.0,0.0,0.0,0.0,0.0,0.0,0.0,0.0,0.0,0.0,0.0,0.0,0.0,0.0,-0.0532,-0.1882,-0.3188,-0.4574,0.0,0.0,0.0,0.0,0.0,0.0,0.0,0.0,0.0,-0.9306,-0.9456,-0.9602,-0.9754,-1.0049,-1.0198,-1.0202,-1.0483,-1.0619,-1.0619,-1.0619,-1.0656,-1.0717,-1.0649,-1.1272,-1.2407,-1.3419,-1.4477,-1.5687,0.0,0.0,0.0,0.0,0.0,-1.6814,0.0,0.0,0.0,0.0,0.0,0.0,0.0,0.0,0.0,0.0,0.0,0.0,0.0,0.0,0.0,1.1401,0.0,0.0,0.0,0.0,0.0,0.0,0.0,0.0,0.0,0.0,0.0,0.6977,0.6028,0.5509,0.5509,0.4993,0.4336,0.3507,0.2489,0.057,-0.1937,-0.2442,-0.315,0.0,0.0,0.0,0.0,0.0,0.0,0.0,0.0,0.0,0.0,0.0,0.0,0.0,0.0,0.0,0.0,0.0,0.0,0.0,0.0,0.0,0.0,0.0,0.0,0.0,0.0,0.0,0.0,0.0,0.0,0.0,0.0,0.0,0.0,0.0,0.0,0.0,0.0,0.0,-0.0327,-0.1346,-0.2714,-0.4073,0.0,0.0,0.0,0.0,0.0,0.0,-0.9256,-0.9303,-0.9462,-0.9771,-0.9917,-1.0066,-1.0219,-1.0439,-1.0551,-1.0551,-1.0666,-1.07,-1.0663,-1.0704,-1.07,-1.0663,-1.0704,-1.1953,-1.3833,-1.4226,-1.5226,-1.6624,-1.7341,-1.7515,-1.7288,-1.7502,-1.7495,-1.7442,0.0,0.0,0.0,0.0,0.0,0.0,0.0,0.0,0.0,0.0,0.0,0.0,0.0,0.0,1.3791,1.3502,1.2989,1.2364,0.0,0.0,0.0,0.0,0.0,0.0,0.0,0.0,0.0,0.9145,0.8256,0.787,0.7795,0.5855,0.4846,0.4768,0.3591,0.2368,0.1206,-0.0807,-0.1691,-0.1917,0.0,0.0,0.0,0.0,0.0,0.0,0.0,0.0,0.0,0.0,0.0,0.0,0.0,0.0,0.0,0.0,0.0,0.0,0.0,0.0,0.0,0.0,0.0,0.0,0.0,0.0,0.0,0.0,0.0,0.0,0.0,0.0,0.0,0.0,0.0,0.0,0.0,0.0,0.0,-0.011,-0.1286,0.0,0.0,0.0,0.0,-0.9014,-0.9262,-0.9418,-0.9578,-0.9713,-0.9927,-1.0236,-1.0385,-1.0531,-1.0683,-1.07,-1.0707,-1.0711,-1.0717,-1.0643,-1.0507,-1.0653,-1.0639,-1.051,-1.0656,-1.2668,-1.5719,-1.4938,-1.5369,-1.6641,-1.756,-1.7816,-1.7562,-1.7582,-1.7762,-1.8003,0.0,0.0,0.0,0.0,0.0,0.0,0.0,0.0,0.0,0.0,0.0,0.0,0.0,1.6011,1.7103,1.7225,1.6703,1.6149,1.5696,0.0,0.0,0.0,0.0,0.0,0.0,0.0,0.9868,1.0876,0.9513,0.8656,0.8245,0.7204,0.6656,0.6402,0.4846,0.3895,0.3478,0.1375,-0.0324,-0.1638,-0.2379,-0.3519,0.0,0.0,0.0,0.0,0.0,0.0,0.0,0.0,0.0,0.0,0.0,0.0,0.0,0.0,0.0,0.0,0.0,0.0,0.0,0.0,0.0,0.0,0.0,0.0,0.0,0.0,0.0,0.0,0.0,0.0,0.0,0.0,0.0,0.0,0.0,0.0,0.0,0.0,-0.1201,0.0,-0.4404,-0.5992,-0.7627,-0.9459,-0.9724,-0.9917,-1.0164,-1.0226,-1.0348,-1.0558,-1.0612,-1.0666,-1.0721,-1.0721,-1.0721,-1.0721,-1.0721,-1.0639,-1.0493,-1.0548,-1.0493,-1.0358,-1.0415,-1.1834,-1.3952,-1.4464,-1.637,-1.8871,-1.908,-1.8871,-1.8464,-1.8657,-1.8557,-1.8357,0.0,0.0,0.0,0.0,0.0,0.0,0.0,0.0,0.0,0.0,0.0,1.6038,1.6556,1.7811,1.8779,1.934,1.8699,1.8097,1.7659,0.0,0.0,0.0,0.0,0.0,0.0,1.171,1.1533,1.2484,1.0779,0.9691,0.9308,0.8408,0.7738,0.7183,0.6084,0.5209,0.4506,0.3192,0.1448,-0.0567,-0.0948,-0.211,-0.375,0.0,0.0,0.0,0.0,0.0,0.0,0.0,0.0,0.0,0.0,0.0,0.0,0.0,0.0,0.0,0.0,0.0,0.0,0.0,0.0,0.0,0.0,0.0,0.0,0.0,0.0,0.0,0.0,0.0,0.0,0.0,0.0,0.0,0.0,0.0,0.0,0.0,-0.0741,-0.2273,-0.455,-0.5758,-0.7386,-0.9863,-1.0219,-1.0385,-1.0633,-1.0599,-1.0616,-1.0717,-1.0721,-1.0721,-1.0721,-1.0721,-1.0694,-1.0643,-1.0643,-1.0538,-1.0344,-1.0395,-1.0341,-1.0205,-1.0256,-1.1281,-1.3013,-1.4356,-1.6669,-1.9311,-1.9523,-1.9412,-1.9098,-1.9292,-1.9058,-1.8617,0.0,0.0,0.0,0.0,0.0,0.0,0.0,0.0,0.0,0.0,1.7688,1.807,1.9095,1.8733,1.8834,1.9705,1.898,1.8109,1.7302,1.611,0.0,0.0,0.0,0.0,1.3529,1.3474,1.3646,1.3942,1.2102,1.1145,1.1057,0.9291,0.8051,0.7149,0.7252,0.6367,0.4672,0.4709,0.3642,0.1618,0.0472,-0.0624,-0.1802,0.0,0.0,0.0,0.0,0.0,0.0,0.0,0.0,0.0,0.0,0.0,0.0,0.0,0.0,0.0,0.0,0.0,0.0,0.0,0.0,0.0,0.0,0.0,0.0,0.0,0.0,0.0,0.0,0.0,0.0,0.0,0.0,0.0,0.0,0.0,0.0,0.0,0.0,-0.1315,-0.4705,-0.519,-0.6833,-1.0316,-1.0721,-1.0785,-1.0931,-1.0802,-1.0721,-1.0721,-1.0721,-1.0717,-1.0714,-1.0714,-1.0636,-1.0483,-1.0483,-1.0331,-1.0056,-1.0205,-1.0188,-1.0049,-1.0198,-1.1258,-1.3,-1.4605,-1.607,-1.753,-1.8875,-1.9372,-1.9352,-1.9352,-1.9152,-1.8758,0.0,0.0,0.0,0.0,0.0,0.0,0.0,0.0,0.0,0.0,2.0142,2.0509,2.0825,2.1546,2.2113,2.2372,2.1786,2.1108,2.0407,0.0,0.0,0.0,0.0,0.0,1.6177,1.5491,1.4994,1.4647,1.3606,1.2621,1.1589,1.076,0.9828,0.8801,0.8323,0.7929,0.7543,0.6864,0.5914,0.4709,0.219,0.0547,-0.0624,0.0,0.0,0.0,0.0,0.0,0.0,0.0,0.0,0.0,0.0,0.0,0.0,0.0,0.0,0.0,0.0,0.0,0.0,0.0,0.0,0.0,0.0,0.0,0.0,0.0,0.0,0.0,0.0,0.0,0.0,0.0,0.0,0.0,0.0,0.0,0.0,0.0,0.0,-0.0936,-0.315,-0.465,-0.6297,-0.8568,-0.9911,-1.0738,-1.0778,-1.0744,-1.0721,-1.0721,-1.0721,-1.0666,-1.0555,-1.0555,-1.048,-1.0337,-1.0337,-1.0236,-1.0049,-1.0093,-1.0029,-0.988,-0.9819,-1.0627,-1.229,-1.3946,-1.5343,-1.6677,-1.8855,-1.9419,-1.9045,-1.9045,-1.8577,-1.7889,0.0,0.0,0.0,0.0,0.0,0.0,0.0,0.0,0.0,0.0,2.1882,2.2331,2.2582,2.2839,2.3112,2.3328,2.2881,2.2304,2.1672,0.0,0.0,0.0,0.0,1.7545,1.7388,1.6827,1.641,1.6019,1.4983,1.4056,1.3253,1.2307,1.1358,1.0419,1.0025,0.9548,0.9006,0.8625,0.7747,0.6504,0.4339,0.2649,0.1169,-0.0391,-0.1268,-0.1941,-0.2781,-0.3109,-0.3197,-0.3923,0.0,0.0,0.0,0.0,0.0,0.0,0.0,0.0,0.0,0.0,0.0,0.0,0.0,0.0,0.0,0.0,0.0,0.0,0.0,0.0,0.0,0.0,0.0,0.0,0.0,0.0,0.0,0.0,0.0,0.0,0.0,-0.0673,-0.2551,-0.4292,-0.618,-0.7965,-0.9676,-1.0748,-1.0812,-1.0755,-1.0721,-1.0721,-1.066,-1.0582,-1.049,-1.0432,-1.0331,-1.0185,-1.0185,-1.0103,-0.9954,-0.9954,-0.9873,0.0,-0.9646,-1.0388,-1.182,-1.3433,-1.4961,0.0,0.0,0.0,0.0,0.0,-1.8143,-1.7522,0.0,0.0,0.0,0.0,0.0,0.0,0.0,0.0,0.0,0.0,0.0,2.3691,2.4176,2.3378,2.2979,2.3455,2.3081,2.2566,0.0,0.0,0.0,1.9004,1.8377,1.8035,1.7927,1.7884,1.7786,1.772,1.6285,1.5533,1.5408,1.404,1.289,1.1997,1.2107,1.1288,0.9862,1.0067,0.9232,0.7712,0.681,0.5192,0.3044,0.1091,0.0316,0.0081,-0.1742,-0.238,-0.2431,-0.2691,0.0,0.0,0.0,0.0,0.0,0.0,0.0,0.0,0.0,0.0,0.0,0.0,0.0,0.0,0.0,0.0,0.0,0.0,0.0,0.0,0.0,0.0,0.0,0.0,0.0,0.0,0.0,0.0,0.0,0.0,0.0,-0.0673,-0.2283,-0.4159,-0.6063,-0.7905,-0.9713,-1.0778,-1.0914,0.0,0.0,0.0,0.0,-1.0477,-1.0443,-1.0317,-1.0178,-1.0022,-1.0022,-0.9944,-0.9795,-0.9795,-0.972,-0.9585,-0.9564,-1.0401,-1.185,-1.3325,-1.4799,-1.6516,-1.8143,-1.8664,-1.8404,-1.807,-1.7749,0.0,0.0,0.0,0.0,0.0,0.0,0.0,0.0,0.0,0.0,2.4634,2.4768,2.4879,2.4982,2.4792,2.4736,2.4822,2.4752,2.4256,0.0,0.0,2.1239,2.1129,2.0984,2.0614,2.0015,1.9519,1.9012,1.8395,1.7577,1.6802,1.6198,1.5857,1.4974,1.3621,1.364,1.3305,1.2557,1.1168,1.0679,1.0587,0.8973,0.6708,0.4217,0.2965,0.2534,0.2432,0.224,0.2147,0.1775,0.0,-0.0532,-0.0798,-0.2652,-0.2496,0.0,0.0,0.0,0.0,0.0,0.0,0.0,0.0,0.0,0.0,0.0,0.0,0.0,0.0,0.0,0.0,0.0,0.0,0.0,0.0,0.0,0.0,0.0,0.0,0.0,0.0,0.0,-0.0135,-0.0538,-0.3489,-0.5503,-0.5919,-0.8853,-1.0731,-1.0761,-1.0734,0.0,-1.0538,-1.0507,-1.0378,-1.0137,-1.0107,-1.0015,-0.9866,0.0,0.0,-0.9649,-0.9649,-0.9568,-0.9418,-0.9296,-1.0685,-1.3112,-1.3553,-1.5331,-1.7688,-1.8081,-1.8183,-1.807,-1.7522,-1.7134,-1.6827,0.0,0.0,0.0,0.0,0.0,0.0,0.0,0.0,0.0,0.0,2.6371,2.6539,2.6539,2.6302,2.6148,2.6148,2.574,0.0,0.0,2.3694,2.2966,2.2966,2.2672,2.2207,2.1545,2.124,2.0806,2.0141,1.943,1.8887,1.8472,1.7813,1.7093,1.635,1.6007,1.5526,1.4851,1.3738,1.2858,1.2186,1.0738,0.9051,0.7218,0.5331,0.4658,0.4537,0.3699,0.3393,0.3133,0.2166,0.181,0.1717,0.0537,0.0619,0.1222,0.0,0.0,0.0,0.0,0.0,0.0,0.0,0.0,0.0,0.0,0.0,0.0,0.0,0.0,0.0,0.0,0.0,0.0,0.0,0.0,0.0,0.0,0.0,0.0,0.0,0.0,0.0,0.0,-0.2407,-0.4426,-0.5364,-0.7852,-0.9679,-1.0605,-1.0538,-1.0466,-1.0388,-1.031,-1.0198,-1.0049,-0.9975,-0.9897,-0.9822,-0.9822,-0.9747,-0.9612,-0.9683,-0.9551,-0.938,-1.0056,-1.1522,-1.3546,-1.5064,-1.6491,-1.7816,-1.7816,-1.7816,-1.7762,-1.7315,-1.6961,-1.666,0.0,0.0,0.0,0.0,0.0,0.0,0.0,0.0,0.0,0.0,0.0,2.7956,2.7956,2.7635,2.7373,0.0,0.0,0.0,0.0,2.5354,2.4595,2.4595,2.412,2.3697,2.3266,2.3038,2.2731,2.2281,2.1498,2.109,2.1104,2.0038,1.9382,1.9098,1.8584,1.7793,1.6826,1.6338,1.5223,1.363,1.2594,1.1727,1.0901,0.8148,0.6992,0.6583,0.5116,0.4567,0.4476,0.4214,0.4154,0.4059,0.3669,0.3783,0.3982,0.3692,0.3879,0.0,0.0,0.0,0.0,0.0,0.0,0.0,0.0,0.3304,0.237,0.2599,0.1707,0.0873,0.09,0.0688,0.0471,0.0492,0.0245,0.0,0.0,0.0,0.0,0.0,0.0,0.0,0.0,-0.1589,-0.3327,-0.4789,-0.6708,-0.8491,-0.9925,-1.0213,-1.0266,-1.0236,-1.0114,-1.0036,-1.0005,-0.9883,-0.9822,-0.9822,-0.9791,-0.9703,-0.9568,-0.9652,-0.9479,-0.9229,-1.1033,-1.2594,-1.3906,-1.6442,-1.7502,-1.7495,-1.7435,-1.7408,-1.7388,-1.7148,-1.6874,-1.658,0.0,0.0,0.0,0.0,0.0,0.0,0.0,0.0,0.0,0.0,0.0,0.0,0.0,0.0,0.0,0.0,0.0,0.0,2.7034,2.6419,2.6067,2.6067,2.6016,2.5931,2.588,2.4986,2.4507,2.4469,2.3489,2.3008,2.3008,2.2848,2.2155,2.1077,2.103,1.9986,1.8307,1.7531,1.6917,1.6317,1.4763,1.4517,1.4664,1.1703,0.9868,0.8975,0.8885,0.882,0.8542,0.6668,0.605,0.5756,0.3882,0.4062,0.4802,0.3897,0.4366,0.4956,0.39,0.3578,0.3953,0.5203,0.472,0.4338,0.0,0.5135,0.424,0.4395,0.4263,0.4224,0.4303,0.3194,0.2178,0.2251,0.0994,0.0,0.0,0.0,0.0,0.0,0.0,0.0,0.0,-0.1681,-0.2842,-0.2971,-0.5925,-0.785,-0.8106,-0.9513,-1.0219,-1.008,-1.0059,-0.9985,-0.9846,-0.9829,-0.9822,-0.9819,-0.9693,-0.9554,-0.9401,-0.9283,-0.913,-0.9071,-1.1919,-1.3851,-1.5293,-1.6665,-1.7194,-1.7174,-1.6907,-1.6807,-1.68,-1.6767,-1.6573,-1.6279,0.0,0.0,0.0,0.0,0.0,0.0,0.0,0.0,0.0,0.0,0.0,0.0,0.0,0.0,0.0,0.0,0.0,0.0,2.8245,2.7869,2.7573,2.7401,2.7419,2.7185,2.6776,2.6352,2.5982,2.5671,2.5245,2.5061,2.5024,2.4681,2.4233,2.3696,2.3125,2.2235,2.117,2.0165,1.9251,1.8398,1.699,1.6407,1.6124,1.4137,1.3088,1.2326,0.986,0.9084,0.0,0.0,0.8058,0.7938,0.7275,0.7455,0.7816,0.7267,0.7232,0.7095,0.5935,0.5794,0.6054,0.6599,0.6449,0.646,0.7226,0.637,0.5519,0.5822,0.5276,0.4666,0.4742,0.4337,0.3559,0.0,0.1867,0.1116,0.0126,0.0,0.0,0.0,0.0,0.0,0.0,-0.0642,-0.1546,-0.2572,-0.4841,-0.6589,-0.7602,-0.9178,-0.9985,-0.9917,-0.9917,-0.9886,-0.9822,-0.9822,-0.9822,-0.9822,-0.9761,-0.9656,-0.951,-0.9449,-0.9738,-1.0377,-1.245,-1.4126,-1.5506,-1.6736,-1.7148,-1.7121,-1.682,-1.66,-1.6453,-1.6453,-1.638,-1.6226,0.0,0.0,0.0,0.0,0.0,0.0,0.0,0.0,0.0,0.0,0.0,0.0,0.0,0.0,0.0,0.0,0.0,0.0,0.0,2.9082,2.8866,2.864,2.864,2.8396,2.7843,2.7727,2.7459,2.7063,2.6991,2.6931,2.6931,2.6499,2.6192,2.603,2.5215,2.4423,2.359,2.2586,2.1495,2.038,1.8893,1.8104,1.7687,1.6033,1.552,1.5222,1.1411,1.0107,0.0,0.0,0.9857,0.9545,0.9823,0.9787,0.9764,0.972,0.9387,0.8987,0.8257,0.8317,0.8444,0.814,0.8248,0.843,0.8313,0.7495,0.6815,0.719,0.6558,0.5975,0.6098,0.5696,0.5154,0.3989,0.3098,0.2102,0.0876,0.0245,0.0,0.0,0.0,0.0,0.0,0.0,-0.051,-0.1908,-0.3394,-0.4993,-0.6738,-0.8273,-0.9329,-0.9822,-0.9781,-0.9781,-0.9822,-0.9781,-0.9764,-0.9764,-0.972,-0.9625,-0.9483,-0.9442,-1.0067,-1.1215,-1.2223,-1.3623,-1.5293,-1.6163,-1.6662,-1.6881,-1.658,-1.6333,-1.6152,-1.6152,-1.6152,-1.6119,0.0,0.0,0.0,0.0,0.0,0.0,0.0,0.0,0.0,0.0,0.0,0.0,0.0,0.0,0.0,0.0,0.0,0.0,0.0,2.9826,2.9819,2.9755,2.9755,2.9741,2.9722,2.927,2.9035,2.9035,2.8684,2.853,2.853,2.8507,2.8215,2.7713,2.7414,2.6492,2.5095,2.428,2.3335,2.2267,2.0367,1.988,1.9944,1.7345,1.6777,1.7112,1.4638,0.0,0.0,1.24,1.1253,0.9921,1.0222,0.9728,0.9168,0.9587,0.9945,1.0169,1.0464,1.0777,1.0785,0.9987,0.9845,0.9648,0.8537,0.8492,0.8635,0.8799,0.8947,0.9134,0.9432,0.8164,0.712,0.7225,0.4547,0.2463,0.2464,0.0974,0.0,0.0,0.0,0.0,0.0,0.0,0.0,-0.0124,-0.1603,-0.3324,-0.492,-0.6508,-0.8218,-0.9697,-0.9686,-0.9683,-0.9819,-0.9686,-0.9615,-0.9615,-0.9466,-0.9313,-0.9161,-0.9022,-0.9629,-1.0954,-1.1138,-1.2597,-1.4773,-1.4665,-1.5226,-1.6266,-1.5972,-1.5852,-1.5845,-1.5845,-1.5845,-1.5838,0.0,0.0,0.0,0.0,0.0,0.0,0.0,0.0,0.0,0.0,0.0,0.0,0.0,0.0,0.0,0.0,3.029,0.0,0.0,3.0267,3.0238,3.0081,3.0105,3.0048,2.9864,2.9672,2.9557,2.9557,2.9413,2.9321,2.9321,2.9366,2.9306,2.9122,2.8802,2.8176,2.7342,2.6571,2.5793,2.4863,2.3238,2.2523,2.2226,2.0004,1.9093,1.8779,0.0,0.0,0.0,1.3228,1.2718,1.2314,1.2932,1.2926,1.2692,1.2536,1.1842,1.1122,1.1404,1.1382,1.1237,1.1065,1.1202,1.1222,1.0929,1.0263,0.9684,0.9859,0.9308,0.8771,0.8974,0.8639,0.797,0.7228,0.6246,0.4858,0.2827,0.2066,0.1207,0.0121,0.0,0.0,0.0,0.0,0.0,0.0,-0.1587,-0.2679,-0.332,-0.4914,-0.6476,-0.7982,-0.7943,-0.85,-0.953,-0.9483,-0.9459,-0.9456,-0.9405,-0.93,-0.9147,-0.9005,-0.9071,-0.9448,-1.0441,-1.1803,-1.34,-1.4053,-1.5146,-1.6246,-1.5945,-1.5832,-1.5832,-1.5832,-1.5832,-1.5832,0.0,0.0,0.0,0.0,0.0,0.0,0.0,0.0,0.0,0.0,0.0,0.0,0.0,0.0,0.0,0.0,0.0,3.032,0.0,0.0,3.0227,3.0057,3.0105,3.0043,2.9873,2.9792,2.9764,2.9764,2.9728,2.9698,2.9697,2.9819,2.9873,2.9864,2.9697,2.9332,2.8808,2.8113,2.7429,2.6687,2.5065,2.4349,2.3973,2.2235,2.1199,0.0,0.0,0.0,1.6201,1.5217,1.4511,1.4153,1.4946,1.4985,1.4706,1.4595,1.3939,1.324,1.3297,1.3274,1.3053,1.2483,1.2448,1.2565,1.2221,1.1111,1.0196,1.0318,0.9323,0.8452,0.8601,0.871,0.852,0.7731,0.7177,0.6248,0.434,0.3581,0.2618,0.1091,0.0846,0.0604,0.0,0.0,0.0,0.0,-0.0978,-0.1824,-0.2442,-0.3538,-0.472,-0.6312,-0.6744,-0.7535,-0.8555,-0.9093,-0.93,-0.93,-0.9245,-0.9144,-0.8991,-0.8899,-0.8747,-0.8656,-0.9537,-1.057,-1.175,-1.2993,-1.4305,-1.5499,-1.5708,-1.5832,-1.5832,-1.5832,-1.5832,-1.5832,0.0,0.0,0.0,0.0,0.0,0.0,0.0,0.0,0.0,0.0,0.0,0.0,0.0,0.0,0.0,0.0,0.0,0.0,0.0,0.0,0.0,2.9803,2.9793,2.9793,2.9784,2.9705,2.9667,2.9642,2.9655,2.9635,2.9655,2.9849,2.9955,2.9962,3.0135,2.9938,2.9481,2.8858,2.8334,2.777,2.6056,2.534,2.5196,2.3906,0.0,0.0,0.0,0.0,1.9556,1.8155,1.6669,1.5536,1.6266,1.5957,1.5443,1.5802,1.6088,1.6154,1.5917,1.6252,1.6197,1.4056,1.3862,1.3663,1.2425,1.1213,1.0344,1.0335,0.9236,0.8381,0.8421,0.8455,0.8516,0.8682,0.7515,0.6671,0.6889,0.5557,0.4087,0.0,0.0,0.0,0.0,0.0,0.0,0.0,0.0,-0.0734,-0.2288,-0.2406,-0.3103,-0.4688,-0.5996,-0.6794,-0.7129,-0.8521,-0.9144,-0.914,-0.8994,-0.8852,-0.871,-0.8696,-0.8533,-0.8279,-0.8404,-0.9108,-1.0207,-1.1572,-1.2915,-1.4166,-1.5337,-1.5832,-1.5832,-1.5832,-1.5832,-1.5832,0.0,0.0,0.0,0.0,0.0,0.0,0.0,0.0,0.0,0.0,0.0,0.0,0.0,0.0,0.0,0.0,0.0,0.0,0.0,0.0,0.0,0.0,0.0,0.0,0.0,0.0,0.0,2.8947,2.891,2.8876,2.8895,2.9292,2.9486,2.9493,2.9971,3.0138,2.9998,2.9726,2.9723,2.9739,0.0,2.729,2.7129,0.0,0.0,0.0,0.0,2.1909,2.0307,1.8831,1.826,1.8078,1.8072,1.7649,1.7276,1.7755,1.7066,1.6461,1.7598,1.7747,1.7313,1.6292,1.612,1.5968,1.4994,1.3835,1.2651,1.152,1.0218,0.8944,0.815,0.8075,0.8275,0.8652,0.8592,0.0,0.7243,0.6658,0.0,0.4413,0.3188,0.2319,0.1939,0.0722,0.0,0.0,0.0,-0.0239,-0.0603,-0.0603,-0.1308,-0.2884,-0.3213,-0.4445,-0.6786,-0.8221,-0.8994,-0.8991,-0.8842,-0.875,-0.8703,-0.8482,-0.834,-0.8269,-0.8187,-0.9394,-1.1463,-1.181,-1.326,-1.5343,-1.5635,-1.5832,-1.5832,-1.5832,-1.5832,-1.5832,0.0,0.0,0.0,0.0,0.0,0.0,0.0,0.0,0.0,0.0,0.0,0.0,0.0,0.0,0.0,0.0,0.0,0.0,0.0,0.0,0.0,0.0,0.0,0.0,0.0,0.0,0.0,0.0,0.0,0.0,2.8297,2.8647,2.8905,2.9119,2.9672,3.0004,3.0128,3.0194,0.0,0.0,0.0,0.0,0.0,0.0,0.0,0.0,2.4559,2.3551,2.1843,2.0607,2.026,2.0236,1.9572,1.9264,1.9182,1.9196,1.8517,1.7984,1.8619,1.8344,1.7641,1.6813,1.632,1.6035,1.5596,1.4397,1.3122,1.1771,1.0362,0.8974,0.7879,0.7743,0.795,0.8265,0.8567,0.8582,0.8058,0.7991,0.7487,0.6117,0.5129,0.4003,0.2648,0.1546,0.071,0.0,0.0,0.0,0.0,0.0,-0.035,-0.1249,-0.1814,-0.3609,-0.6702,-0.7485,-0.8235,-0.8835,-0.875,-0.8642,-0.8513,-0.8347,-0.8235,-0.8163,0.0,-0.8825,-1.0288,-1.1458,-1.2721,-1.4178,-1.5343,-1.5832,-1.5832,-1.5832,-1.5832,-1.5832,0.0,0.0,0.0,0.0,0.0,0.0,0.0,0.0,0.0,0.0,0.0,0.0,0.0,0.0,0.0,0.0,0.0,0.0,0.0,0.0,0.0,0.0,0.0,0.0,0.0,0.0,0.0,0.0,0.0,0.0,0.0,0.0,0.0,0.0,0.0,0.0,0.0,0.0,0.0,0.0,0.0,0.0,0.0,0.0,0.0,0.0,2.5607,2.4851,2.3573,2.2601,2.2184,2.1889,2.0978,2.0807,2.0734,2.0062,1.985,1.9696,1.9247,1.8681,1.7904,1.6592,1.5814,1.5253,1.4993,1.4071,1.2869,1.1652,1.0315,0.8947,0.7815,0.7588,0.7658,0.7841,0.8113,0.8506,0.91,0.9184,0.8865,0.779,0.7378,0.5992,0.3346,0.2564,0.1613,0.0351,0.0117,0.0,0.0,0.0,0.0,0.0,-0.1448,-0.3448,-0.6102,-0.6433,-0.7267,-0.8461,-0.8551,-0.852,-0.8272,-0.8248,-0.8167,-0.8038,0.0,0.0,-0.8432,-1.0877,-1.2042,-1.2431,-1.4854,-1.5832,-1.5832,-1.5832,-1.5832,-1.5818,0.0,0.0,0.0,0.0,0.0,0.0,0.0,0.0,0.0,0.0,0.0,0.0,0.0,0.0,0.0,0.0,0.0,0.0,0.0,0.0,0.0,0.0,0.0,0.0,0.0,0.0,0.0,0.0,0.0,0.0,0.0,0.0,0.0,0.0,0.0,0.0,0.0,0.0,0.0,0.0,0.0,0.0,0.0,0.0,0.0,0.0,2.3741,2.3712,2.4079,2.2801,2.2604,2.2837,2.244,2.1847,2.1129,2.0191,1.9656,1.9482,1.9676,1.9947,1.9696,1.7971,1.7431,1.68,1.5019,1.4414,1.3805,1.2423,1.1213,1.0022,0.9037,0.8133,0.7729,0.8126,0.8333,0.8655,0.9259,0.934,0.9298,0.9258,0.7934,0.6889,0.6244,0.3789,0.0,0.0,0.0,0.0,0.0,0.0,0.0,0.0,-0.1416,-0.2503,-0.3002,-0.5352,-0.6624,-0.692,-0.7874,-0.8319,-0.8269,-0.8136,-0.8065,-0.8038,0.0,0.0,-0.9805,-1.1263,-1.2522,-1.368,-1.5242,-1.5832,-1.5832,-1.5832,-1.5832,-1.5792,0.0,0.0,0.0,0.0,0.0,0.0,0.0,0.0,0.0,0.0,0.0,0.0,0.0,0.0,0.0,0.0,0.0,0.0,0.0,0.0,0.0,0.0,0.0,0.0,0.0,2.7707,2.7426,2.6987,0.0,2.7115,2.7317,2.75,2.7872,2.8399,0.0,0.0,0.0,0.0,0.0,0.0,0.0,0.0,0.0,0.0,0.0,0.0,2.428,2.3989,2.4297,2.3284,2.3,2.3044,2.2675,2.2163,2.1485,2.0546,1.9971,1.9658,1.9853,1.9841,1.9408,1.7885,1.7103,1.6232,1.4426,1.4182,1.3854,1.2439,1.181,1.0982,0.9261,0.8631,0.8314,0.7969,0.8106,0.8435,0.896,0.9164,0.932,0.9473,0.8775,0.7985,0.6992,0.5406,0.3781,0.0,0.0,0.0761,0.0,0.0,0.0,0.0,-0.0645,-0.1396,-0.2233,-0.3608,-0.496,-0.6375,-0.6944,-0.7604,-0.8147,-0.8072,-0.8038,-0.8038,-0.8038,0.0,-0.9019,-1.0386,-1.1653,-1.3011,-1.4268,-1.5242,-1.5832,-1.5832,-1.5832,-1.5785,0.0,0.0,0.0,0.0,0.0,0.0,0.0,0.0,0.0,0.0,0.0,0.0,0.0,0.0,0.0,0.0,0.0,0.0,0.0,0.0,0.0,0.0,0.0,0.0,0.0,0.0,0.0,2.7409,2.7409,0.0,0.0,0.0,0.0,0.0,2.9101,2.9563,0.0,0.0,0.0,0.0,0.0,0.0,0.0,0.0,0.0,0.0,0.0,2.4641,2.4378,2.3676,2.3132,2.267,2.2394,2.212,2.1731,2.0876,2.0216,1.9775,1.9775,1.9534,1.9036,1.798,1.6846,1.5681,1.4184,1.3939,1.3644,1.2423,1.2236,1.1662,0.9913,0.9526,0.9169,0.8486,0.8549,0.8714,0.9055,0.9343,0.9458,0.931,0.9334,0.0,0.737,0.6853,0.0,0.0,0.0,0.0,0.0108,0.0,0.0,0.0,0.0,-0.0529,-0.1683,-0.1998,-0.3334,-0.5846,-0.6052,-0.6822,-0.8038,-0.8038,-0.8038,-0.8038,-0.8038,0.0,0.0,-0.941,-1.0583,-1.1653,-1.3295,-1.4555,-1.5432,-1.5657,-1.5732,-1.5685,0.0,0.0,0.0,0.0,0.0,0.0,0.0,0.0,0.0,0.0,0.0,0.0,0.0,0.0,0.0,0.0,0.0,0.0,0.0,0.0,0.0,0.0,0.0,0.0,0.0,0.0,0.0,2.784,2.784,0.0,0.0,0.0,0.0,0.0,0.0,2.9728,3.0183,0.0,0.0,0.0,0.0,0.0,0.0,0.0,0.0,0.0,0.0,2.509,2.4429,2.3799,2.271,2.1644,2.1581,2.1521,2.1363,2.0794,1.9986,1.9346,1.9346,1.9866,2.0157,1.9116,1.798,1.675,1.5068,1.417,1.3519,1.3147,1.2475,1.1968,1.194,1.1139,1.0514,1.0745,1.0842,1.0656,1.0274,1.0317,1.0035,0.925,0.9174,0.0,0.8557,0.7305,0.0,0.0,0.0,0.0,0.0104,0.0,0.0,0.0,0.0,-0.0103,-0.0203,-0.1418,-0.2726,-0.4227,-0.5438,-0.6742,-0.8038,-0.8038,-0.8038,-0.8038,0.0,0.0,0.0,-0.941,-1.0096,-1.0386,-1.2909,-1.3974,-1.4238,-1.5052,-1.5438,-1.5357,0.0,0.0,0.0,0.0,0.0,0.0,0.0,0.0,0.0,0.0,0.0,0.0,0.0,0.0,0.0,0.0,0.0,0.0,0.0,0.0,0.0,0.0,0.0,0.0,0.0,0.0,0.0,2.8735,2.8735,0.0,0.0,0.0,0.0,0.0,0.0,2.9695,2.9826,0.0,0.0,0.0,0.0,0.0,0.0,0.0,0.0,0.0,0.0,0.0,2.4417,2.3717,2.2789,2.1933,2.1594,2.1305,2.1019,2.025,1.9729,1.9287,1.9287,1.9912,2.0381,1.9577,1.8212,1.6763,1.5464,1.4342,1.3561,1.3273,1.3241,1.2987,1.2395,1.2106,1.1701,1.0952,1.101,1.0918,0.9991,1.0047,0.9797,0.8958,0.8886,0.8838,0.0,0.0,0.0,0.0,0.0,0.0,0.0102,0.0,0.0,0.0,0.0,0.0,0.0,-0.0504,-0.1511,-0.2815,-0.4117,-0.5522,-0.6833,-0.7637,-0.8038,-0.8038,0.0,0.0,0.0,-0.8531,-0.9312,-1.0096,-1.1165,-1.2517,-1.3939,-1.416,-1.4724,-1.5311,0.0,0.0,0.0,0.0,0.0,0.0,0.0,0.0,0.0,0.0,0.0,0.0,0.0,0.0,0.0,0.0,0.0,0.0,0.0,0.0,0.0,0.0,0.0,0.0,0.0,0.0,0.0,0.0,0.0,2.9475,0.0,0.0,2.9718,2.9798,0.0,0.0,0.0,0.0,0.0,0.0,0.0,0.0,0.0,0.0,0.0,0.0,0.0,0.0,0.0,0.0,0.0,2.1995,2.1606,2.1073,2.0502,1.989,1.9505,1.9231,1.9291,1.9814,2.0314,2.0005,1.8356,1.6661,1.5945,1.4678,1.3587,1.338,1.3808,1.3946,1.3145,1.3126,1.2901,1.178,1.1999,1.1812,1.0641,1.0538,1.0103,0.917,0.0,0.8625,0.0,0.835,0.0,0.0,0.0,0.0,0.0,0.0605,0.0404,0.0,0.0,0.0,0.0,0.0,-0.0706,-0.2013,-0.2914,-0.4318,-0.6029,-0.6933,-0.7637,-0.8038,0.0,0.0,0.0,-0.8038,-0.8502,-0.9429,-0.9816,-1.1226,-1.3142,-1.3171,-1.4006,-1.5064,0.0,0.0,0.0,0.0,0.0,0.0,0.0,0.0,0.0,0.0,0.0,0.0,0.0,0.0,0.0,0.0,0.0,0.0,0.0,0.0,0.0,0.0,0.0,0.0,0.0,0.0,0.0,0.0,0.0,0.0,0.0,2.95,2.9374,2.9294,0.0,0.0,0.0,0.0,0.0,0.0,0.0,0.0,0.0,0.0,0.0,0.0,0.0,0.0,0.0,0.0,0.0,0.0,0.0,2.0699,1.9705,1.9705,1.9426,1.9106,1.9258,1.96,2.0029,2.0459,1.8719,1.6829,1.6463,1.4971,1.3559,1.3641,1.4108,1.4516,1.4516,1.4516,1.4422,1.4135,1.4329,1.4083,1.2904,1.2136,1.1241,0.0,0.0,0.8428,0.8289,0.0,0.0,0.0,0.0,0.0,0.0,0.2012,0.141,0.0,0.0,0.0,0.0,0.0,-0.0706,-0.2013,-0.2013,-0.3417,-0.6029,-0.6029,-0.6734,0.0,0.0,0.0,0.0,-0.8038,-0.795,-0.7907,-0.924,-1.0449,-1.1441,-1.246,-1.3536,-1.4489,0.0,0.0,0.0,0.0,0.0,0.0,0.0,0.0,0.0,0.0,0.0,0.0,0.0,0.0,0.0,0.0,0.0,0.0,0.0,0.0,0.0,0.0,0.0,0.0,0.0,0.0,0.0,0.0,0.0,0.0,0.0,0.0,0.0,2.8997,2.8246,0.0,0.0,0.0,0.0,0.0,0.0,0.0,0.0,0.0,0.0,0.0,0.0,0.0,0.0,0.0,0.0,0.0,0.0,0.0,0.0,1.9217,1.8833,1.8755,1.884,1.916,1.959,2.001,1.8104,1.628,1.6663,1.4963,1.346,1.3861,1.4249,1.4522,1.4522,1.4689,1.4663,1.4168,1.4335,1.4171,1.3074,1.2785,0.0,1.0309,0.9112,0.8279,0.0,0.0,0.0,0.0,0.0,0.0,0.0,0.2484,0.1392,0.0,0.0,0.0,0.0,0.0,-0.0202,-0.0605,-0.2514,-0.3793,-0.4536,-0.6404,0.0,0.0,0.0,0.0,0.0,-0.774,-0.7709,-0.7665,-0.8135,-0.9495,-1.1349,-1.1384,-1.2727,-1.4476,0.0,0.0,0.0,0.0,0.0,0.0,0.0,0.0,0.0,0.0,0.0,0.0,0.0,0.0,0.0,0.0,0.0,0.0,0.0,0.0,0.0,0.0,0.0,0.0,0.0,0.0,0.0,0.0,0.0,0.0,0.0,0.0,0.0,0.0,0.0,0.0,0.0,0.0,0.0,0.0,0.0,0.0,2.4419,0.0,0.0,0.0,0.0,0.0,0.0,0.0,0.0,0.0,0.0,0.0,0.0,0.0,1.8566,1.8437,1.8594,1.8838,1.9141,1.957,1.7823,1.608,1.6536,1.4963,1.3507,1.3988,1.4409,1.4689,1.4689,1.4836,1.481,1.4329,1.4402,1.4313,1.3671,0.0,0.0,1.0515,0.0,0.0,0.0,0.0,0.0,0.0,0.0,0.0,0.0,0.0,0.2722,0.138,0.0494,0.0,0.0,0.0,0.0,0.0,-0.1675,-0.2934,-0.3868,-0.5506,0.0,0.0,0.0,0.0,0.0,-0.76,-0.7567,-0.7512,-0.7512,-0.871,-1.0356,-1.0484,-1.1774,-1.3484,0.0,0.0,0.0,0.0,0.0,0.0,0.0,0.0,0.0,0.0,0.0,0.0,0.0,0.0,0.0,0.0,0.0,0.0,0.0,0.0,0.0,0.0,0.0,0.0,0.0,0.0,0.0,0.0,2.9154,2.9089,2.8509,0.0,0.0,0.0,0.0,0.0,0.0,0.0,0.0,0.0,0.0,0.0,0.0,0.0,0.0,0.0,0.0,0.0,0.0,0.0,0.0,0.0,0.0,0.0,0.0,0.0,0.0,0.0,0.0,1.8543,1.8589,1.9068,1.7582,1.6076,1.6109,1.4835,0.0,1.4082,1.4583,1.4963,1.4963,1.4963,1.4863,1.4543,1.4502,1.4529,1.4549,1.4155,0.0,0.0,1.0289,0.0,0.0,0.0,0.0,0.0,0.0,0.0,0.0,0.0,0.5014,0.3788,0.1517,0.019,0.0095,0.0,0.0,0.0,-0.0095,-0.1331,-0.3695,-0.3884,0.0,0.0,0.0,0.0,0.0,-0.7556,-0.7468,-0.7339,-0.7326,-0.7937,-0.8755,-0.976,-1.0789,-1.1822,0.0,0.0,0.0,0.0,0.0,0.0,0.0,0.0,0.0,0.0,0.0,0.0,0.0,0.0,0.0,0.0,0.0,0.0,0.0,0.0,0.0,0.0,0.0,0.0,0.0,0.0,0.0,2.7662,2.8026,2.8104,2.7973,2.6882,0.0,0.0,0.0,0.0,0.0,0.0,0.0,0.0,0.0,0.0,0.0,0.0,0.0,0.0,2.2997,2.2591,0.0,0.0,0.0,0.0,0.0,0.0,0.0,0.0,1.8134,1.8037,1.8135,0.0,1.7423,1.7524,1.6263,1.501,0.0,1.4458,1.3854,1.4603,1.487,1.4963,1.4963,1.4963,1.4796,1.4275,1.4376,1.4596,1.483,1.4272,0.0,1.2824,1.1966,0.0,0.0,0.0,0.0,0.0,0.0,0.0,0.0,0.0,0.5475,0.5104,0.3564,0.2302,0.1428,0.0476,0.0,0.0,-0.1048,-0.1794,-0.2323,-0.427,0.0,0.0,0.0,0.0,-0.7238,-0.7132,-0.7065,-0.7021,-0.6902,-0.756,-0.847,-0.8712,-1.0075,-1.1742,0.0,0.0,0.0,0.0,0.0,0.0,0.0,0.0,0.0,0.0,0.0,0.0,0.0,0.0,0.0,0.0,0.0,0.0,0.0,0.0,0.0,0.0,0.0,0.0,0.0,0.0,0.0,0.0,0.0,2.6185,0.0,0.0,0.0,0.0,0.0,0.0,0.0,0.0,0.0,0.0,2.2371,0.0,0.0,0.0,0.0,0.0,2.2689,2.2261,0.0,2.0974,2.0398,1.9814,0.0,0.0,0.0,0.0,1.8301,1.834,1.8545,1.818,1.7763,1.7763,1.663,1.5607,1.5794,1.4777,1.3981,1.4462,1.4669,1.4763,1.4763,1.487,1.4856,1.4543,1.4623,1.4823,0.0,0.0,1.4229,1.3655,1.302,0.0,0.0,0.0,0.0,0.0,0.0,0.0,0.0,0.0,0.6265,0.6265,0.5119,0.3612,0.1851,0.1111,0.0556,0.0,-0.0742,-0.1375,-0.1884,-0.3226,0.0,0.0,0.0,0.0,-0.6932,-0.6854,-0.6824,-0.6817,-0.6732,-0.7062,-0.7554,-0.8031,-0.9255,-1.0679,0.0,0.0,0.0,0.0,0.0,0.0,0.0,0.0,0.0,0.0,0.0,0.0,0.0,0.0,0.0,0.0,0.0,0.0,0.0,0.0,0.0,0.0,0.0,0.0,0.0,0.0,0.0,0.0,0.0,0.0,0.0,0.0,0.0,0.0,0.0,0.0,0.0,0.0,0.0,0.0,2.0435,0.0,0.0,0.0,0.0,0.0,0.0,0.0,0.0,1.9824,1.9233,1.8977,1.8202,0.0,0.0,0.0,0.0,0.0,1.9102,1.9062,1.8844,1.8634,1.7667,1.6776,1.6776,1.5665,1.4594,1.4473,1.4679,1.4943,1.477,1.5156,1.5403,1.5355,0.0,0.0,1.5411,1.5251,1.4884,1.4254,0.0,0.0,0.0,0.0,0.0,0.0,0.0,0.0,0.0,0.0,0.0,0.7075,0.6101,0.4511,0.2304,0.1962,0.1254,0.0269,0.009,-0.0531,-0.1561,-0.1728,0.0,0.0,0.0,0.0,-0.6446,-0.6592,-0.6664,-0.6664,-0.6641,-0.6556,-0.6596,-0.7458,-0.8298,-0.9221,0.0,0.0,0.0,0.0,0.0,0.0,0.0,0.0,0.0,0.0,0.0,0.0,0.0,0.0,0.0,0.0,0.0,0.0,0.0,0.0,0.0,0.0,0.0,0.0,0.0,0.0,0.0,0.0,0.0,0.0,2.0928,2.0974,2.0676,0.0,0.0,0.0,0.0,1.9778,2.0195,2.0859,2.0595,0.0,0.0,0.0,0.0,0.0,0.0,0.0,0.0,1.9365,1.8787,1.8212,1.8008,0.0,0.0,0.0,0.0,0.0,1.8818,1.9482,1.9947,1.8653,1.7735,1.7171,1.7171,1.6968,1.6605,1.5885,1.6576,1.7046,1.6019,1.6661,1.7283,1.698,0.0,1.6192,0.0,0.0,1.5544,0.0,0.0,0.0,0.0,0.0,0.0,0.0,0.0,0.0,0.0,0.0,0.0,0.6766,0.6599,0.5838,0.4402,0.2635,0.1701,0.1522,0.0529,-0.0087,-0.0348,-0.1361,-0.2018,0.0,0.0,-0.5183,-0.5427,-0.6228,-0.6508,-0.6495,-0.6376,-0.6315,-0.6373,-0.6525,-0.7196,-0.8313,0.0,0.0,0.0,0.0,0.0,0.0,0.0,0.0,0.0,0.0,0.0,0.0,0.0,0.0,0.0,0.0,0.0,0.0,0.0,0.0,0.0,0.0,0.0,0.0,0.0,0.0,0.0,0.0,0.0,1.8121,1.7668,1.7807,1.7905,1.7981,0.0,0.0,1.876,1.9265,1.9931,2.0526,0.0,0.0,0.0,0.0,0.0,0.0,0.0,0.0,0.0,0.0,1.8337,1.8008,1.8008,0.0,0.0,0.0,0.0,0.0,1.8984,1.9424,1.9856,1.9572,1.9217,1.8828,1.8828,1.826,1.7598,1.7167,1.7306,1.7482,1.7167,1.7697,1.7994,1.7612,0.0,1.591,1.5644,1.5317,0.0,0.0,0.0,0.0,0.0,0.0,0.0,0.0,0.0,0.0,0.0,0.0,0.0,0.0,0.6702,0.645,0.5862,0.4274,0.2851,0.1642,0.1113,0.0594,0.0,-0.0581,-0.1146,-0.1779,0.0,-0.4353,-0.4996,-0.5984,-0.6359,-0.6349,-0.6285,-0.6338,-0.6328,-0.6768,-0.7319,-0.7995,0.0,0.0,0.0,0.0,0.0,0.0,0.0,0.0,0.0,0.0,0.0,0.0,0.0,0.0,0.0,0.0,0.0,0.0,0.0,0.0,0.0,0.0,0.0,0.0,0.0,0.0,0.0,1.5731,1.5965,1.5808,1.5226,1.5437,1.5703,0.0,0.0,0.0,1.7319,1.8045,1.8726,1.9236,0.0,0.0,0.0,0.0,0.0,0.0,0.0,0.0,0.0,0.0,0.0,0.0,0.0,0.0,0.0,1.8562,1.8711,1.8838,1.9072,1.9277,1.957,2.0127,2.0169,2.02,2.0485,1.9585,1.8633,1.8556,1.8451,1.8396,1.8345,1.8785,1.8765,1.7993,1.6945,1.6049,1.5577,0.0,0.0,0.0,0.0,0.0,0.0,0.0,0.0,0.0,0.0,0.0,0.0,0.0,0.0,0.0,0.6542,0.6525,0.6491,0.5597,0.41,0.2011,0.1751,0.1073,0.0,0.0,-0.0479,-0.1254,-0.2268,-0.3359,-0.4375,-0.5473,-0.6103,-0.6338,-0.6338,-0.6338,-0.6395,-0.6974,-0.7218,-0.7538,0.0,0.0,0.0,0.0,0.0,0.0,0.0,0.0,0.0,0.0,0.0,0.0,0.0,0.0,0.0,0.0,0.0,0.0,0.0,0.0,0.0,0.0,0.0,0.0,0.0,1.2891,1.3761,1.3761,1.483,1.5226,1.5234,1.5201,1.5271,1.5296,0.0,0.0,1.5367,1.5438,1.5508,1.5641,1.6419,0.0,0.0,0.0,0.0,0.0,0.0,0.0,0.0,0.0,0.0,0.0,0.0,0.0,1.8562,1.8562,1.8926,1.916,1.8789,1.9268,1.9785,1.9463,1.9642,2.0217,2.152,2.105,2.0337,2.0089,2.0847,2.1158,1.977,2.0323,2.0419,1.8432,1.8402,1.79,0.0,0.0,0.0,0.0,0.0,0.0,0.0,0.0,0.0,0.0,0.0,0.0,0.0,0.0,0.0,0.0,0.0,0.601,0.5867,0.5791,0.4915,0.3266,0.2136,0.1058,0.0,0.0,-0.0079,-0.0157,-0.1254,-0.2268,-0.3279,-0.4373,-0.5395,-0.6338,-0.6338,-0.6338,-0.6318,-0.616,-0.6108,-0.6243,0.0,0.0,0.0,0.0,0.0,0.0,0.0,0.0,0.0,0.0,0.0,0.0,0.0,0.0,0.0,0.0,0.0,0.0,0.0,0.0,0.0,0.0,0.0,0.7621,0.7986,0.9921,1.0896,1.0896,1.1347,1.1501,1.1575,1.2164,0.0,0.0,0.0,0.0,1.4314,1.495,1.5295,1.5493,1.5846,1.599,0.0,0.0,0.0,0.0,0.0,0.0,0.0,0.0,1.8008,1.8008,0.0,1.8115,1.8252,1.8252,1.8359,1.8457,1.8291,1.9062,1.9814,1.9394,1.96,2.0264,2.1582,2.1416,2.0905,2.0809,2.1433,2.1744,2.1148,2.0679,2.0291,1.9817,1.902,0.0,0.0,0.0,0.0,0.0,0.0,0.0,0.0,0.0,0.0,0.0,0.0,0.0,0.0,0.0,0.0,0.0,0.0,0.5861,0.58,0.58,0.5176,0.3917,0.2893,0.1822,0.0759,0.0226,0.0,-0.0075,-0.1142,-0.1822,-0.2322,-0.4013,-0.4912,-0.5223,-0.5751,-0.5976,-0.5956,-0.581,-0.5813,-0.594,0.0,0.0,0.0,0.0,0.0,0.0,0.0,0.0,0.0,0.0,0.0,0.0,0.0,0.0,0.0,0.0,0.0,0.0,0.0,0.0,0.0,0.0,0.0,0.5315,0.5315,0.6996,0.8147,0.8846,0.9145,0.9296,0.9296,0.0,0.0,0.0,0.0,0.0,0.0,1.3418,1.3968,1.4276,1.4879,1.5184,0.0,0.0,0.0,0.0,0.0,0.0,0.0,0.0,1.7157,0.0,0.0,0.0,0.0,0.0,1.8008,1.8008,1.8008,1.8652,1.9277,1.9121,1.9404,2.0059,2.1377,2.1338,2.1182,2.1728,2.1758,2.168,2.168,2.0869,0.0,0.0,0.0,0.0,0.0,0.0,0.0,0.0,0.0,0.0,0.0,0.0,0.0,0.0,0.0,0.0,0.0,0.0,0.0,0.0,0.0,0.5711,0.5664,0.5664,0.531,0.4534,0.3681,0.2571,0.1308,0.0655,0.0291,-0.0073,-0.0741,-0.1257,-0.1676,-0.3165,-0.404,-0.4563,-0.5437,-0.58,-0.5783,-0.5644,-0.565,-0.5715,0.0,0.0,0.0,0.0,0.0,0.0,0.0,0.0,0.0,0.0,0.0,0.0,0.0,0.0,0.0,0.0,0.0,0.0,0.0,0.0,0.0,0.0,0.0,0.3124,0.3124,0.4139,0.5693,0.7783,0.877,0.9296,0.9296,0.9301,0.0,0.0,0.0,0.0,0.0,0.0,1.0942,1.1349,1.3334,1.4171,1.4246,0.0,0.0,0.0,0.0,0.0,0.0,0.0,1.5234,1.5376,0.0,0.0,0.0,1.7716,1.8008,1.8008,1.8008,1.8018,1.8115,1.8535,1.8975,1.9639,2.0937,2.0889,2.1055,2.2764,2.2109,2.1221,2.123,2.0869,0.0,1.9562,0.0,0.0,0.0,0.0,0.0,0.0,0.0,0.0,0.0,0.0,0.0,0.0,0.0,0.0,0.0,0.0,0.0,0.0,0.0,0.0,0.5428,0.5425,0.5425,0.5362,0.4483,0.3029,0.1307,0.1307,0.08,0.0,0.0,-0.0582,-0.1599,-0.1599,-0.2756,-0.4563,-0.5434,-0.5796,-0.5779,-0.564,-0.5589,-0.5566,0.0,0.0,0.0,0.0,0.0,0.0,0.0,0.0,0.0,0.0,0.0,0.0,0.0,0.0,0.0,0.0,0.0,0.0,0.0,0.0,0.0,0.0,0.0,0.0,0.0,0.0,0.4606,0.6718,0.7022,0.7173,0.0,0.0,0.0,0.8241,0.0,0.0,0.0,0.0,0.9967,1.0327,1.0954,1.1295,1.1537,0.0,0.0,0.0,0.0,0.0,0.0,0.0,0.0,0.0,0.0,0.0,0.0,1.6922,1.7501,1.8008,1.8008,1.8447,1.8867,1.8682,1.9414,2.0283,2.0674,2.0664,2.0801,2.1631,2.1006,2.0498,2.1123,2.0869,0.0,0.0,0.0,0.0,0.0,0.0,0.0,0.0,0.0,0.0,0.0,0.0,0.0,0.0,0.0,0.0,0.0,0.0,0.0,0.0,0.0,0.0,0.6334,0.5571,0.5254,0.5425,0.489,0.3836,0.2265,0.1579,0.0826,0.0,0.0,-0.0211,-0.0552,-0.1169,-0.2567,-0.4297,-0.4491,-0.4937,-0.5488,-0.5443,-0.543,-0.5423,0.0,0.0,0.0,0.0,0.0,0.0,0.0,0.0,0.0,0.0,0.0,0.0,0.0,0.0,0.0,0.0,0.0,0.0,0.0,0.0,0.0,0.0,0.0,0.0,0.0,0.2491,0.3294,0.0,0.0,0.0,0.0,0.0,0.0,0.7274,0.0,0.8299,0.0,0.0,0.8878,0.9261,0.9741,0.9938,1.0156,0.0,0.0,0.0,0.0,0.0,0.0,0.0,0.0,0.0,1.4522,1.5013,1.5579,1.6349,1.7001,1.7501,1.7862,1.8506,1.9014,1.8916,1.9736,2.0566,2.0566,2.084,2.1113,2.1211,2.0527,2.0078,2.0615,2.0205,0.0,0.0,0.0,0.0,0.0,0.0,0.0,0.0,0.0,0.0,0.0,0.0,0.0,0.0,0.0,0.0,0.0,0.0,0.0,0.0,0.0,0.0,0.6613,0.5616,0.5148,0.5182,0.5003,0.4258,0.3043,0.2164,0.1123,0.0,0.0,0.0,-0.0067,-0.094,-0.1961,-0.3084,-0.3773,-0.432,-0.4813,-0.5269,-0.5321,-0.5277,0.0,0.0,0.0,0.0,0.0,0.0,0.0,0.0,0.0,0.0,0.0,0.0,0.0,0.0,0.0,0.0,0.0,0.0,0.0,0.0,0.0,0.0,0.0,0.0,0.0,0.0,0.0,0.0,0.0,0.0,0.0,0.0,0.6247,0.6167,0.0,0.6324,0.0,0.7161,0.7651,0.7986,0.9048,0.9543,0.9668,0.9976,0.0,0.0,0.0,0.0,0.0,0.0,0.0,0.0,1.331,1.36,1.4027,1.579,1.6498,1.6784,1.7695,1.827,1.875,1.9228,1.9961,2.0566,2.0566,2.1152,2.1582,2.1143,2.042,1.9853,1.9853,1.9219,0.0,0.0,0.0,0.0,0.0,0.0,0.0,0.0,0.0,0.0,0.0,0.0,0.0,0.0,0.0,0.0,0.0,0.0,0.0,0.0,0.0,0.0,0.6509,0.5616,0.5106,0.0,0.4891,0.4394,0.3552,0.2841,0.1605,0.0,0.0,0.0,-0.0067,-0.0867,-0.1198,-0.1464,-0.3131,-0.3798,-0.3908,-0.4898,-0.5189,-0.5135,0.0,0.0,0.0,0.0,0.0,0.0,0.0,0.0,0.0,0.0,0.0,0.0,0.0,0.0,0.0,0.0,0.0,0.0,0.0,0.0,0.0,0.0,0.0,0.0,0.0,0.0,0.0,0.0,0.0,0.0,0.0,0.0,0.0,0.3904,0.0,0.4692,0.3875,0.4964,0.546,0.5669,0.5952,0.6662,0.7646,0.8759,0.8932,0.0,0.0,0.0,0.0,0.0,0.0,0.0,1.2519,1.3091,1.3818,1.4171,1.5367,1.6709,1.7257,1.7991,1.8818,1.958,2.0176,2.0566,2.0566,2.0449,2.0215,1.9795,1.9561,1.9424,1.9424,0.0,0.0,0.0,0.0,0.0,0.0,0.0,0.0,0.0,0.0,0.0,0.0,0.0,0.0,0.0,0.0,0.0,0.0,0.0,0.0,0.0,0.0,0.8302,0.7432,0.6476,0.5605,0.0,0.4674,0.4216,0.3556,0.2814,0.1574,0.0,0.0,0.0,0.0,-0.019,-0.0691,-0.132,-0.1737,-0.2675,-0.3869,-0.4205,-0.4604,-0.5003,0.0,0.0,0.0,0.0,0.0,0.0,0.0,0.0,0.0,0.0,0.0,0.0,0.0,0.0,0.0,0.0,0.0,0.0,0.0,0.0,0.0,0.0,0.0,0.0,0.0,0.0,0.0,0.0,0.0,0.0,0.0,0.0,0.0,0.3233,0.0,0.3851,0.3255,0.3708,0.3947,0.4039,0.4214,0.4964,0.6156,0.6893,0.7336,0.7708,0.8682,0.0,0.0,0.0,0.0,0.0,0.0,0.0,1.3098,1.36,1.445,1.548,1.6608,1.7539,1.8512,1.9606,2.0088,2.0195,2.0,1.9619,1.9238,1.9023,1.8975,1.8975,1.8975,0.0,0.0,0.0,0.0,0.0,0.0,0.0,0.0,0.0,0.0,0.0,0.0,0.0,0.0,0.0,0.0,0.0,0.0,0.0,0.0,0.0,0.9786,0.8753,0.768,0.6675,0.5708,0.4806,0.4572,0.4107,0.3437,0.231,0.1347,0.0505,0.0126,0.0,0.0,0.0,-0.0247,-0.0741,-0.1128,-0.2058,-0.3213,-0.3808,-0.4405,-0.4952,0.0,0.0,0.0,0.0,0.0,0.0,0.0,0.0,0.0,0.0,0.0,0.0,0.0,0.0,0.0,0.0,0.0,0.0,0.0,0.0,0.0,0.0,0.0,0.0,0.0,0.0,0.0,0.0,0.0,0.0,0.1024,0.0,0.0,0.2786,0.0,0.0,0.2766,0.2818,0.2882,0.2853,0.3004,0.372,0.4853,0.5049,0.5728,0.6649,0.7435,0.7825,0.8098,0.8798,0.0,0.0,0.0,0.0,1.2218,1.2938,1.3448,1.4106,1.5938,1.7288,1.8388,1.9483,1.9805,1.9697,1.9268,1.8896,1.8613,1.8545,1.8525,1.8525,0.0,0.0,0.0,0.0,0.0,0.0,0.0,0.0,0.0,0.0,0.0,0.0,0.0,0.0,0.0,0.0,0.0,0.0,0.0,0.0,1.0744,1.0624,0.9919,0.9006,0.7928,0.7038,0.607,0.4919,0.4647,0.4125,0.3458,0.2125,0.1363,0.1039,0.0428,0.0122,0.0,0.0,0.0,-0.0061,-0.0793,-0.1582,-0.237,-0.3395,-0.4111,-0.4683,0.0,0.0,0.0,0.0,0.0,0.0,0.0,0.0,0.0,0.0,0.0,0.0,0.0,0.0,0.0,0.0,0.0,0.0,-0.3556,0.0,0.0,-0.3556,0.0,0.0,0.0,0.0,0.0,0.0,0.0,-0.1527,-0.1276,-0.0088,0.0439,0.0536,0.0,0.0,0.0521,0.1435,0.1839,0.1847,0.1976,0.2598,0.3557,0.3721,0.4491,0.5357,0.551,0.6602,0.804,0.8173,0.8754,0.0,0.0,0.0,1.1013,1.1156,1.2412,1.4015,1.5534,1.7488,1.9151,1.9355,1.9375,1.9258,1.8828,1.8601,1.8535,0.0,1.8096,0.0,0.0,0.0,0.0,0.0,0.0,0.0,0.0,0.0,0.0,0.0,0.0,0.0,0.0,0.0,0.0,0.0,0.0,0.0,0.0,1.1288,1.1351,1.0624,1.0491,0.9901,0.8813,0.8437,0.748,0.5838,0.4923,0.446,0.4294,0.3471,0.2345,0.1123,0.1004,0.0592,0.0,0.0,0.0,0.0,-0.0117,-0.064,-0.1426,-0.236,-0.3098,-0.3707,0.0,0.0,0.0,0.0,0.0,0.0,0.0,0.0,0.0,0.0,0.0,0.0,0.0,0.0,0.0,-0.5531,-0.5531,-0.5531,-0.5531,-0.5531,-0.5531,-0.5531,-0.5531,0.0,0.0,0.0,0.0,0.0,-0.3393,-0.2425,-0.1815,-0.1263,-0.0637,0.0,0.0449,0.0,0.0,0.0,0.0694,0.0709,0.0797,0.1424,0.2513,0.2594,0.3285,0.4212,0.4197,0.5025,0.6228,0.6146,0.7215,0.8466,0.8466,0.0,0.0,0.0,1.1378,1.2613,1.5145,1.6925,1.826,1.8773,1.8926,1.8809,1.8379,1.8281,1.8232,1.8047,1.8008,0.0,0.0,0.0,0.0,0.0,0.0,0.0,0.0,0.0,0.0,0.0,0.0,0.0,0.0,0.0,0.0,0.0,0.0,0.0,1.1351,1.1593,1.1406,1.0624,1.0624,1.0026,0.893,0.8676,0.7643,0.5725,0.5258,0.4842,0.4463,0.4181,0.3429,0.2338,0.1484,0.0915,0.0571,0.0169,0.0,0.0,0.0,-0.0516,-0.1269,-0.1661,-0.2528,-0.3569,0.0,0.0,0.0,0.0,0.0,0.0,0.0,0.0,0.0,0.0,0.0,0.0,0.0,0.0,0.0,0.0,-0.7139,-0.7139,-0.7139,-0.7139,-0.7139,-0.7139,-0.7139,-0.7139,0.0,0.0,0.0,0.0,-0.4641,-0.3403,-0.2254,-0.1925,-0.1124,0.0,0.0,0.0,0.0,0.0,0.0,0.0,0.0,0.0548,0.1382,0.1355,0.2057,0.3112,0.3017,0.365,0.4536,0.4678,0.5774,0.7064,0.7338,0.8084,0.0,0.0,0.0,1.1761,1.4421,1.6071,1.7213,1.7834,1.824,1.8398,1.8086,0.0,1.8008,0.0,0.0,0.0,0.0,0.0,0.0,0.0,0.0,0.0,0.0,0.0,0.0,0.0,0.0,0.0,0.0,0.0,0.0,0.0,0.0,0.0,1.2197,1.2074,1.1717,1.0926,1.0607,1.0017,0.9108,0.8729,0.7591,0.576,0.5597,0.5164,0.4519,0.4519,0.4184,0.3566,0.2065,0.1284,0.1062,0.028,0.0,0.0,0.0,-0.0398,-0.0986,-0.116,-0.197,-0.3011,0.0,0.0,0.0,0.0,0.0,0.0,0.0,0.0,0.0,0.0,0.0,0.0,-0.7139,-0.7139,-0.7139,-0.7139,-0.7139,-0.7139,-0.7139,-0.7139,-0.7139,-0.7139,-0.7139,0.0,-0.7139,0.0,0.0,-0.7051,-0.5891,-0.469,-0.3493,-0.2305,-0.1132,0.0,0.0,0.0,0.0,0.0,0.0,0.0,0.0,0.0,0.0092,0.0091,0.0807,0.1878,0.1875,0.2552,0.3531,0.4545,0.4854,0.5068,0.6064,0.7099,0.7859,0.0,0.0,0.0,1.3167,1.5002,1.6573,1.6327,1.7167,1.8037,1.8018,0.0,1.8008,1.8008,0.0,0.0,0.0,0.0,0.0,0.0,0.0,0.0,0.0,0.0,0.0,0.0,0.0,0.0,0.0,0.0,0.0,0.0,0.0,0.0,1.3,1.2948,1.2573,1.1772,1.0697,1.0073,1.0053,0.885,0.7655,0.6534,0.5814,0.5164,0.4519,0.4519,0.4463,0.4349,0.2788,0.173,0.1062,0.028,0.0,0.0,0.0,0.0,-0.0168,-0.0841,-0.1176,-0.1456,0.0,0.0,0.0,0.0,0.0,0.0,0.0,0.0,0.0,0.0,0.0,0.0,0.0,-0.7139,-0.7139,-0.7139,-0.7139,-0.7139,-0.7139,-0.7139,-0.7139,-0.7139,-0.7139,-0.7139,-0.7139,-0.7139,-0.7139,-0.7139,-0.6694,-0.5913,-0.4786,-0.4304,-0.3505,-0.2218,-0.0652,0.0,0.0,0.0,0.0,0.0,0.0,0.0,0.0,0.0,0.0269,0.0626,0.0609,0.1295,0.224,0.2659,0.3706,0.4864,0.5156,0.607,0.7077,0.7662,0.9427,1.1489,1.2335,1.354,1.4763,1.6109,1.6425,1.6637,1.7406,1.7607,1.773,1.8293,0.0,0.0,0.0,0.0,0.0,0.0,0.0,0.0,0.0,0.0,0.0,0.0,0.0,0.0,0.0,0.0,0.0,0.0,0.0,0.0,1.3855,1.3786,1.3425,1.2573,1.166,1.0749,0.984,0.903,0.8141,0.7289,0.6583,0.5819,0.5109,0.4677,0.4519,0.4463,0.34,0.2508,0.173,0.1006,0.0448,0.0,0.0,0.0,-0.0056,-0.028,-0.0671,-0.1229,0.0,0.0,0.0,0.0,0.0,0.0,0.0,0.0,0.0,0.0,0.0,0.0,0.0,0.0,-0.7228,-0.7665,-0.8097,-0.8269,-0.8269,-0.8269,-0.8269,-0.8269,-0.8269,-0.8296,-0.8444,0.0,-0.7779,-0.7834,-0.734,-0.6517,-0.5361,-0.5435,-0.4723,-0.3519,-0.1911,-0.1029,-0.0582,-0.0192,0.0,0.0,0.0,0.0,0.0,0.0,0.0,0.0,0.0,0.0,0.1144,0.1517,0.2583,0.3837,0.4076,0.4988,0.6133,0.7431,0.8761,1.0088,1.1248,1.2247,1.3346,1.508,1.5462,1.5686,1.6647,1.6997,1.7321,1.808,0.0,0.0,0.0,0.0,0.0,0.0,0.0,0.0,0.0,0.0,0.0,0.0,0.0,0.0,0.0,0.0,0.0,0.0,0.0,0.0,1.4628,1.4332,1.3604,1.2349,1.1804,1.0843,0.9399,0.8998,0.8427,0.767,0.7182,0.647,0.5483,0.5058,0.4736,0.446,0.3959,0.3345,0.2508,0.1507,0.0839,0.0336,0.0112,0.0,0.0,0.0,-0.0336,-0.0838,0.0,0.0,0.0,0.0,0.0,0.0,0.0,0.0,0.0,-0.7234,0.0,0.0,0.0,0.0,0.0,-0.8907,-1.0028,-1.0626,-1.0621,-1.0621,-1.0616,-1.0611,-1.0616,-1.0809,-1.1117,0.0,0.0,0.0,0.0,0.0,0.0,0.0,-0.4784,-0.3677,-0.3695,-0.3018,-0.1811,-0.0595,-0.0101,-0.0101,0.0,0.0,0.0,0.0,0.0,0.0,0.0,0.0,0.0,0.1232,0.0,0.0,0.0,0.3824,0.5074,0.7084,0.7702,0.8107,0.0,0.0,0.0,1.3053,1.4183,1.5233,1.5707,0.0,1.6707,0.0,0.0,0.0,0.0,0.0,0.0,0.0,0.0,0.0,0.0,0.0,0.0,0.0,0.0,0.0,0.0,0.0,0.0,0.0,0.0,1.542,1.541,1.4688,1.326,1.1066,1.0971,1.0272,0.8891,0.8818,0.8427,0.7723,0.7723,0.6956,0.5538,0.5487,0.5109,0.4519,0.4519,0.407,0.3289,0.1786,0.1118,0.1006,0.028,0.0,0.0,0.0,0.0,-0.0112,0.0,0.0,0.0,0.0,0.0,0.0,0.0,0.0,0.0,0.0,0.0,0.0,-0.9671,-0.9879,-1.0201,-1.0714,-1.1091,-1.1199,-1.0952,-1.0942,-1.0865,-1.0621,-1.0855,-1.0967,-1.1122,0.0,0.0,0.0,0.0,0.0,0.0,0.0,0.0,0.0,-0.5272,-0.4689,-0.4278,-0.2166,-0.1359,-0.1404,-0.0381,0.0,0.0,0.0,0.0,0.0,0.0,0.0,0.009,0.0,0.1049,0.1922,0.0,0.339,0.3824,0.5148,0.5993,0.6817,0.812,0.0,0.0,0.0,0.0,0.0,0.0,0.0,0.0,0.0,0.0,0.0,0.0,0.0,0.0,0.0,0.0,0.0,0.0,0.0,0.0,0.0,0.0,0.0,0.0,0.0,0.0,0.0,1.5947,1.5742,1.543,1.5177,1.4526,1.3295,1.2305,1.132,1.0309,0.9335,0.8699,0.848,0.7937,0.723,0.6258,0.576,0.5109,0.4519,0.4519,0.4405,0.407,0.2508,0.1563,0.1006,0.028,0.0,0.0,0.0,0.0,-0.0112,0.0,0.0,0.0,0.0,0.0,0.0,0.0,0.0,0.0,0.0,0.0,0.0,-1.0987,-1.1541,-1.2046,-1.2182,-1.2655,-1.2869,-1.2719,-1.2713,-1.2597,-1.225,-1.2574,-1.2713,-1.2713,0.0,0.0,0.0,0.0,0.0,0.0,0.0,0.0,0.0,0.0,0.0,-0.6076,0.0,0.0,0.0,-0.1222,0.0,0.0,-0.0736,-0.0731,0.0,0.0,0.0,-0.0642,-0.0178,0.0442,0.0,0.0,0.0,0.2688,0.3718,0.441,0.5104,0.6622,0.7292,0.8018,1.0211,0.0,0.0,1.2535,1.3027,0.0,0.0,0.0,0.0,0.0,0.0,0.0,0.0,0.0,0.0,0.0,0.0,0.0,0.0,0.0,0.0,0.0,0.0,0.0,0.0,1.6172,1.5879,1.5439,1.541,1.4974,1.4037,1.2794,1.1686,1.0758,0.9456,0.8804,0.8804,0.8374,0.7777,0.702,0.6308,0.5601,0.4893,0.4625,0.4519,0.4405,0.3176,0.2232,0.1452,0.0392,0.0,0.0,0.0,0.0,-0.0056,0.0,0.0,0.0,0.0,0.0,0.0,0.0,0.0,0.0,0.0,0.0,-1.1935,-1.1983,-1.29,-1.3453,-1.3483,-1.4501,-1.505,-1.5017,-1.501,-1.4877,-1.4583,-1.485,-1.4997,-1.4963,0.0,0.0,0.0,0.0,0.0,0.0,0.0,0.0,0.0,0.0,0.0,0.0,0.0,0.0,-0.3859,-0.25,-0.1956,0.0,0.0,-0.1954,-0.198,-0.2037,-0.1954,-0.188,-0.0727,-0.0354,0.0,0.0,0.0,0.0,0.0,0.2944,0.3287,0.5168,0.5688,0.609,0.7887,0.0,0.0,1.0213,1.0868,1.1646,0.0,0.0,0.0,0.0,0.0,0.0,0.0,0.0,0.0,0.0,0.0,0.0,0.0,0.0,0.0,0.0,1.8137,1.7197,1.6768,1.6269,1.582,1.543,1.541,1.4946,1.3995,1.2863,1.1812,1.0794,0.9574,0.8944,0.8903,0.8857,0.8427,0.767,0.6912,0.6258,0.5597,0.4842,0.4519,0.457,0.3732,0.2899,0.2063,0.0671,0.0056,0.0,0.0,0.0,0.0,-1.5796,0.0,0.0,0.0,0.0,0.0,0.0,0.0,0.0,0.0,-1.4455,-1.4481,-1.4935,-1.4974,-1.5028,-1.5256,-1.547,-1.5565,-1.5331,-1.5311,-1.5184,-1.489,-1.5157,-1.5204,-1.497,-1.5002,0.0,0.0,0.0,0.0,0.0,0.0,0.0,0.0,0.0,0.0,0.0,0.0,0.0,-0.623,-0.4137,0.0,-0.3236,-0.3259,-0.3243,-0.3252,-0.3238,-0.3243,-0.325,-0.2956,-0.2265,-0.1432,0.0,0.0,0.0,0.1561,0.0,0.0,0.3276,0.3553,0.0,0.0,0.0,0.0,0.784,0.8617,0.9389,0.0,0.0,0.0,0.0,0.0,0.0,0.0,0.0,0.0,0.0,0.0,0.0,0.0,0.0,0.0,0.0,1.8137,1.7197,1.6768,1.5986,1.5498,1.542,1.541,1.5313,1.511,1.4004,1.3209,1.2589,1.0972,0.9976,0.9614,0.9061,0.8427,0.767,0.6912,0.6529,0.6312,0.5062,0.4787,0.5214,0.3895,0.2899,0.212,0.1229,0.0504,0.0,0.0,0.0,0.0,-1.6564,0.0,0.0,0.0,0.0,0.0,0.0,0.0,0.0,-1.5611,-1.5484,-1.5504,-1.5798,-1.5698,-1.5671,-1.5812,0.0,0.0,0.0,-1.5978,-1.6026,-1.7041,-1.6718,-1.638,-1.6055,-1.6366,-1.5958,0.0,0.0,0.0,0.0,0.0,0.0,0.0,0.0,0.0,-0.7139,0.0,-0.7139,-0.6959,-0.5176,0.0,-0.4529,-0.4482,-0.4463,-0.4463,-0.4463,-0.4105,-0.357,-0.357,-0.3148,0.0,0.0,-0.2109,-0.1428,0.0,-0.0453,0.0074,0.0,0.0,0.0,0.3405,0.0,0.0,0.0,0.6007,0.6647,0.8143,0.8831,0.0,0.0,0.0,0.0,0.0,0.0,0.0,0.0,0.0,0.0,0.0,0.0,0.0,0.0,1.7427,1.6875,1.6436,1.5781,1.541,1.541,1.541,1.541,1.541,1.4363,1.355,1.3095,1.1393,1.0249,0.9814,0.9106,0.8586,0.8209,0.7509,0.7128,0.7074,0.5601,0.5164,0.5433,0.434,0.3456,0.2676,0.1952,0.1174,0.056,0.056,0.0336,0.0,-1.7811,-1.7658,0.0,0.0,0.0,0.0,0.0,0.0,0.0,-1.5832,-1.5832,-1.5832,-1.5832,-1.6015,-1.6224,-1.6279,0.0,0.0,0.0,-1.7153,-1.7272,-1.9076,-1.8446,-1.785,-1.743,-1.7492,-1.6817,0.0,0.0,0.0,0.0,0.0,0.0,0.0,0.0,-0.8384,-0.7443,-0.7238,0.0,-0.7094,0.0,-0.5714,-0.5714,-0.5714,-0.5714,-0.5714,-0.5714,-0.5087,-0.4281,-0.4281,-0.4037,-0.3676,-0.3626,-0.3399,0.0,0.0,0.0,0.0,0.0,0.0,0.0,0.0,0.0,0.2406,0.0,0.0,0.0,0.5563,0.0,0.0,0.0,0.0,0.0,0.0,0.0,0.0,0.0,0.0,0.0,0.0,0.0,0.0,0.0,1.6777,1.6514,1.5977,1.5693,1.5498,1.542,1.541,1.541,1.541,1.4553,1.3858,1.3313,1.1622,1.0524,0.9961,0.9159,0.8804,0.8752,0.8049,0.7777,0.783,0.6195,0.5597,0.5651,0.4842,0.4125,0.3456,0.273,0.1898,0.1118,0.1118,0.0615,0.0,-2.047,-1.9579,0.0,0.0,0.0,0.0,0.0,0.0,0.0,-1.5832,-1.5832,-1.5832,-1.5832,-1.6857,-1.7616,-1.7992,0.0,0.0,-1.9755,0.0,-1.9198,-1.943,-1.9381,-1.8995,-1.8316,-1.7586,-1.681,-1.5992,0.0,0.0,0.0,0.0,0.0,0.0,-0.9323,-0.8886,-0.8755,0.0,-0.7221,0.0,-0.7015,-0.6874,0.0,-0.6874,-0.6874,-0.6874,-0.6874,-0.6782,-0.6691,0.0,-0.5907,-0.4866,0.0,-0.4053,-0.3132,-0.3117,0.0,0.0,0.0,0.0,0.0,0.0,-0.0409,0.0,0.0,0.0,0.2876,0.3074,0.0,0.0,0.0,0.0,0.0,0.0,0.0,0.0,0.0,0.0,0.0,0.0,0.0,0.0,0.0,0.0,1.6387,1.5547,1.5801,1.582,1.543,1.541,1.541,1.541,1.5303,1.4828,1.398,1.2604,1.1515,1.0661,0.9413,0.8804,0.8752,0.8049,0.8049,0.8533,0.6411,0.5869,0.6367,0.5062,0.446,0.4294,0.3569,0.2399,0.1118,0.1118,0.0615,0.0,-2.1016,-2.0545,-2.0035,0.0,0.0,0.0,0.0,0.0,0.0,-1.7848,-1.7304,-1.729,-1.8199,-1.8785,-1.9303,-1.9742,0.0,-2.0239,0.0,0.0,-2.0133,-2.1498,-2.0944,-2.0419,-2.0105,-1.9711,-1.8637,-1.6742,-1.6133,0.0,0.0,0.0,0.0,0.0,-1.0438,-0.9538,-0.8907,0.0,-0.7177,0.0,0.0,0.0,0.0,-0.7139,-0.7139,-0.7139,-0.7139,-0.7139,-0.7129,0.0,-0.6531,0.0,0.0,0.0,0.0,0.0,0.0,0.0,0.0,0.0,0.0,0.0,0.0,0.0,-0.1141,0.0,-0.0134,0.0,0.0,0.0,0.0,0.0,0.0,0.0,0.7069,0.0,0.0,0.0,0.0,0.0,0.0,0.0,0.0,0.0,0.0,0.0,0.0,1.5879,1.5439,1.541,1.541,1.541,1.541,1.5127,1.4521,1.2928,1.1827,1.1179,0.9552,0.8804,0.8804,0.848,0.848,0.8699,0.6902,0.6312,0.648,0.5062,0.4519,0.446,0.4181,0.34,0.2399,0.1898,0.1284,0.056,-2.2093,-2.1808,-2.1391,-2.0215,0.0,0.0,0.0,0.0,0.0,0.0,0.0,0.0,-1.9851,-2.0348,0.0,0.0,-2.1276,-2.1689,0.0,0.0,-2.1428,0.0,0.0,0.0,-2.159,-2.1316,-2.0182,-1.8134,0.0,0.0,0.0,0.0,0.0,0.0,0.0,-1.0502,-0.9385,0.0,-0.7453,-0.7258,-0.7173,-0.7139,-0.7139,-0.7139,-0.7139,-0.7136,-0.7095,-0.7082,-0.7061,-0.6915,-0.6763,0.0,-0.6508,0.0,0.0,0.0,0.0,0.0,-0.5123,0.0,0.0,0.0,0.0,0.0,0.0,0.0,0.0,0.0,0.0,0.0,0.0,0.0,0.0,0.43,0.0,0.5519,0.0,0.0,0.0,0.0,0.0,0.0,0.0,0.0,0.0,0.0,1.5889,0.0,1.5273,1.5244,1.5293,1.541,1.541,1.5156,1.4609,1.3121,1.2015,1.1314,0.9776,0.8956,0.8804,0.8804,0.8804,0.8699,0.7235,0.6588,0.648,0.5062,0.4519,0.4519,0.4519,0.4181,0.3566,0.2565,0.173,0.1006,-2.4681,-2.378,-2.2677,-2.1471,0.0,0.0,0.0,0.0,0.0,0.0,0.0,0.0,0.0,0.0,0.0,0.0,0.0,-2.4302,-2.4302,0.0,-2.3485,0.0,0.0,-2.2862,0.0,-2.1453,-2.082,-2.0629,0.0,0.0,0.0,0.0,0.0,0.0,-1.2881,-1.1811,-1.0948,-0.9478,-0.8387,-0.756,-0.7261,-0.7139,-0.7139,0.0,-0.7139,-0.7122,-0.6987,0.0,0.0,-0.6759,-0.6607,0.0,0.0,0.0,0.0,0.0,0.0,0.0,0.0,0.0,0.0,-0.4886,0.0,0.0,0.0,0.0,-0.2678,0.0,0.0,0.0,0.0,0.0,0.04,0.1267,0.2204,0.0,0.0,0.0,0.0,0.0,0.0,0.0,0.0,0.0,0.0,1.6164,1.6115,0.0,1.4853,1.4805,1.499,1.54,1.541,1.501,1.4107,1.3422,1.2307,1.083,1.0123,0.9413,0.8804,0.8804,0.8804,0.8699,0.7235,0.6588,0.648,0.5062,0.4519,0.4519,0.4519,0.4463,0.4294,0.2788,0.173,0.1006,-2.5981,-2.5641,-2.4713,-2.2833,-2.2492,0.0,0.0,-2.1212,0.0,0.0,-2.1626,0.0,0.0,-2.3683,-2.4231,0.0,0.0,-2.4727,-2.4434,-2.4023,0.0,0.0,0.0,-2.3076,0.0,0.0,0.0,0.0,0.0,0.0,0.0,0.0,0.0,0.0,0.0,-1.1732,0.0,0.0,0.0,0.0,0.0,-0.7139,-0.7139,0.0,0.0,-0.6993,-0.6946,-0.6865,0.0,-0.66,-0.6515,-0.6458,-0.6363,-0.6298,-0.6338,-0.6338,-0.6338,0.0,0.0,0.0,-0.608,-0.5676,0.0,0.0,0.0,0.0,0.0,0.0,0.0,0.0,0.0,0.0,-0.1433,0.0201,0.0734,0.1545,0.0,0.0,0.0,0.0,0.0,0.0,0.0,0.0,0.0,1.5615,1.5371,1.5088,0.0,1.4785,1.498,1.54,1.541,1.5273,1.498,1.3737,1.2625,1.1656,1.0391,0.9465,0.8804,0.8804,0.8804,0.8699,0.7235,0.6588,0.648,0.5062,0.4519,0.4519,0.4519,0.4519,0.4294,0.2788,0.2063,0.1675,-2.714,-2.6801,-2.5891,0.0,0.0,0.0,0.0,0.0,0.0,0.0,-2.3271,0.0,-2.4682,0.0,-2.5185,0.0,-2.5234,-2.4883,-2.4443,-2.4023,0.0,-2.3154,-2.3135,0.0,0.0,0.0,0.0,0.0,0.0,-2.0446,0.0,0.0,0.0,0.0,0.0,-1.2711,-1.125,-1.0472,-0.9441,0.0,0.0,-0.8321,0.0,0.0,-0.7688,-0.6915,0.0,-0.6702,-0.6597,-0.6447,-0.6396,-0.638,-0.6288,-0.6338,-0.6338,-0.6338,-0.6338,-0.6338,-0.6338,-0.6338,0.0,-0.6135,-0.6071,0.0,-0.6335,0.0,0.0,0.0,0.0,0.0,0.0,0.0,-0.2868,-0.1607,-0.1135,-0.0135,0.0,0.4629,0.0,0.0,0.0,0.0,0.0,0.0,1.5341,1.5207,1.5274,1.5107,0.0,0.0,1.498,1.54,1.541,1.5342,1.5186,1.3811,1.2678,1.1885,1.0491,0.9465,0.8804,0.8804,0.8804,0.8699,0.7235,0.6588,0.648,0.5062,0.4519,0.4519,0.4519,0.4519,0.4294,0.2788,0.1842,0.1284,-2.8176,-2.729,0.0,0.0,-2.3963,0.0,0.0,0.0,-2.3799,0.0,-2.4189,-2.4453,-2.4482,-2.4853,-2.5088,-2.5068,-2.5068,-2.4873,-2.4414,-2.4014,0.0,0.0,-2.3135,-2.3135,-2.3135,0.0,0.0,0.0,0.0,0.0,0.0,0.0,0.0,0.0,-1.5845,0.0,-1.2598,-1.2347,-1.169,-1.0825,-1.0609,-1.0479,-1.0198,-1.0188,0.0,-0.7034,-0.6739,-0.6624,-0.6596,-0.6461,-0.6412,-0.6412,-0.6412,-0.6412,-0.6412,-0.6412,-0.6412,-0.6412,-0.6412,-0.6409,-0.6405,-0.6412,0.0,0.0,0.0,0.0,-0.6097,0.0,0.0,0.0,0.0,0.0,0.0,-0.4018,-0.3211,-0.1632,0.1286,0.0,0.0,0.0,0.0,0.0,0.0,1.5948,1.5941,1.4952,1.56,1.5664,0.0,0.0,0.0,1.54,1.541,1.5215,1.4814,1.369,1.2564,1.1542,1.0337,0.9465,0.8804,0.8804,0.8804,0.8699,0.7289,0.6642,0.648,0.5117,0.4515,0.4519,0.4519,0.446,0.4239,0.2732,0.1284,0.0,-2.9509,-2.8438,-2.7602,0.0,-2.5619,-2.4372,0.0,0.0,0.0,0.0,-2.4629,-2.5029,-2.5361,-2.5498,-2.543,-2.5098,-2.5068,0.0,0.0,0.0,0.0,-2.3154,-2.3135,-2.3135,-2.3135,-2.3135,-2.3135,-2.3135,0.0,0.0,-2.0697,0.0,0.0,0.0,0.0,-1.4475,-1.2336,-1.2351,-1.1677,-1.0691,-1.0631,-1.0479,0.0,0.0,-0.9523,-0.8813,-0.8788,-0.8659,-0.8607,-0.8556,-0.8542,-0.8542,-0.8542,-0.8542,-0.8542,-0.8542,-0.8542,-0.8542,-0.8542,-0.8346,-0.804,-0.752,-0.7096,-0.7005,0.0,0.0,0.0,0.0,0.0,0.0,0.0,0.0,0.0,-0.4097,-0.2678,-0.1151,0.042,0.0,0.0,0.6399,0.0,0.0,0.0,1.3104,1.3632,1.4702,1.4711,0.0,0.0,0.0,0.0,1.542,1.541,1.5361,1.5254,1.383,1.2705,1.1944,1.0506,0.9465,0.8804,0.8804,0.8804,0.8752,0.783,0.7128,0.6534,0.5601,0.4948,0.4519,0.4519,0.4181,0.3566,0.2565,0.1284,0.0,-3.0633,-2.9561,0.0,-2.8858,0.0,0.0,-2.5934,0.0,0.0,-2.5239,-2.5431,0.0,-2.5127,-2.5156,-2.5059,-2.4805,-2.4609,0.0,-2.3818,0.0,0.0,-2.3154,-2.3135,-2.3135,-2.3135,-2.2959,0.0,-2.3135,0.0,0.0,-2.124,0.0,0.0,0.0,0.0,-1.5433,-1.3762,-1.3275,-1.2687,-1.2169,-1.2169,0.0,0.0,-1.1381,-1.1094,-1.0696,-1.0696,-1.0079,-0.9296,-0.9296,-0.9296,-0.9296,-0.9296,-0.9296,-0.9296,-0.9296,-0.9296,-0.9296,-0.9296,-0.9045,-0.868,-0.8365,-0.7938,-0.7838,-0.8578,-0.7883,-0.7277,0.0,0.0,0.0,0.0,0.0,0.0,-0.47,-0.3411,0.0,0.0,0.0,0.0,0.0,0.6396,0.0,0.0,1.1494,1.2576,1.4298,0.0,0.0,0.0,0.0,0.0,1.542,1.541,1.541,1.541,1.3877,1.2758,1.2086,1.0553,0.9465,0.8804,0.8804,0.8804,0.8752,0.8049,0.7289,0.6534,0.5814,0.5109,0.4519,0.4519,0.3846,0.2843,0.2343,0.1452,0.0448,-3.1609,-3.0633,0.0,0.0,0.0,0.0,0.0,-2.7527,0.0,-2.6566,0.0,-2.5996,-2.4955,-2.4854,-2.4834,-2.4774,0.0,-2.4197,-2.4138,-2.3769,-2.3474,-2.3299,-2.3299,-2.3212,-2.3135,-2.2783,-2.2773,0.0,-2.1914,-2.1514,-2.1865,0.0,0.0,0.0,0.0,0.0,0.0,-1.4573,-1.4088,-1.4088,-1.4088,-1.3734,-1.3213,-1.3213,-1.2832,-1.2305,-1.2305,-1.1174,-0.9674,-0.9674,-0.9674,-0.9674,-0.9674,-0.9674,-0.9674,-0.9674,-0.9674,-0.9669,-0.9637,-0.9374,-0.9114,-0.8969,-0.871,-0.8752,-0.9725,-0.9082,-0.8423,-0.8712,-0.7808,0.0,0.0,0.0,0.0,0.0,0.0,0.0,0.0,0.0,0.0,0.0,0.0,0.0,0.0,0.0,0.0,0.0,0.0,0.0,0.0,0.0,0.0,0.0,1.541,0.0,1.541,0.0,1.2703,1.2086,1.0447,0.9361,0.8804,0.8804,0.8804,0.8752,0.8103,0.7343,0.6534,0.5928,0.5164,0.4519,0.4519,0.368,0.2454,0.2286,0.1786,0.1118,-3.2522,0.0,0.0,0.0,0.0,-2.9891,-3.0597,-2.9464,-2.8309,-2.7711,-2.7933,-2.7944,-2.7172,-2.7118,-2.6966,-2.6671,-2.6562,0.0,0.0,0.0,0.0,-2.4542,-2.4542,-2.4049,-2.3135,-2.3066,-2.3066,-2.3135,-2.2217,-2.1807,-2.1865,0.0,0.0,0.0,0.0,0.0,-1.5621,-1.4573,0.0,-1.4088,-1.4088,-1.3734,-1.3213,-1.3213,-1.2832,-1.2305,-1.2305,-1.2077,-1.1774,-1.1774,-1.1774,-1.1774,-1.1774,-1.1774,-1.1774,-1.1774,-1.1774,-1.1723,-1.1499,-1.1224,-1.0723,-0.9945,-0.94,-0.9245,-0.9782,-0.9028,-0.828,-0.8564,-0.7711,-0.6611,-0.5755,0.0,0.0,0.0,0.0,0.0,0.0,0.0,0.0,0.0,0.0,0.5661,0.0,0.0,0.0,0.0,0.0,0.0,0.0,0.0,0.0,0.0,0.0,0.0,0.0,0.0,0.0,1.2086,0.9982,0.891,0.8804,0.8804,0.8804,0.8804,0.8646,0.783,0.6588,0.648,0.566,0.4519,0.4519,0.4349,0.3959,0.2676,0.212,0.1842,-3.338,0.0,0.0,0.0,0.0,0.0,0.0,-3.0492,0.0,-2.9009,-2.8549,-2.8019,-2.7189,-2.7082,-2.6992,-2.6842,-2.6819,-2.6729,-2.6494,-2.6483,-2.6224,-2.5714,-2.5714,0.0,-2.4893,-2.3844,-2.3497,-2.3963,-2.23,-2.167,-2.1875,0.0,0.0,-1.9766,0.0,-1.7253,0.0,0.0,0.0,-1.4075,-1.3921,-1.3594,-1.3193,-1.3033,-1.2692,-1.2305,-1.2305,-1.2305,-1.2305,-1.2305,-1.2305,-1.2305,-1.2305,-1.2305,-1.2305,-1.2305,-1.2305,-1.2238,-1.1951,-1.165,-1.1246,-1.0615,-1.0208,-1.0046,-1.024,-0.9867,-0.9383,-0.9089,-0.8208,-0.706,-0.5738,-0.541,0.0,0.0,0.0,0.0,0.0,0.0,0.0,0.0,0.0,0.0,0.0,0.0,0.0,0.0,0.0,0.0,0.0,0.0,0.0,0.0,0.0,0.0,0.0,0.0,0.0,1.1463,1.0028,0.9159,0.8804,0.8804,0.8804,0.8804,0.8804,0.7943,0.6534,0.5828,0.5117,0.4519,0.4519,0.4015,0.3231,0.2454,0.173,0.095,0.0,-3.3533,0.0,0.0,-3.1984,0.0,-3.1019,-3.1153,-3.1047,-3.0107,-2.9205,-2.8238,-2.7313,-2.7221,-2.7221,-2.7221,-2.7221,-2.7221,-2.7221,-2.7221,-2.7058,-2.6883,-2.6883,-2.6673,-2.6315,-2.474,-2.4108,0.0,-2.2554,-2.1646,0.0,0.0,0.0,0.0,0.0,0.0,0.0,0.0,-1.4622,-1.4296,-1.4056,-1.3588,-1.3086,-1.2916,-1.2559,-1.2305,-1.2305,-1.2305,-1.2305,-1.2305,-1.2305,-1.2305,-1.2305,-1.2305,-1.2305,-1.2305,-1.2258,-1.2144,-1.185,-1.1557,-1.1263,-1.0975,-1.0728,-1.0624,-1.0624,-1.0624,-1.0366,-0.9586,-0.8543,-0.7246,-0.5686,-0.5428,0.0,0.0,0.0,0.0,0.0,0.0,0.0,0.0,0.0,0.0,0.5638,0.0,0.0,0.0,0.0,0.0,0.0,0.0,0.0,0.0,0.0,0.0,1.3055,0.0,1.1344,0.0,0.9991,0.9309,0.8804,0.8804,0.8804,0.8804,0.8804,0.7943,0.648,0.5062,0.4519,0.4519,0.4519,0.3735,0.2676,0.2341,0.1452,0.0448,0.0,0.0,0.0,0.0,0.0,0.0,0.0,-3.1491,-3.102,-3.0608,-3.0436,-3.0173,-2.9518,-2.9468,-2.9468,-2.9468,-2.9468,-2.9468,-2.9468,-2.9468,-2.9028,-2.8016,-2.7924,-2.722,-2.5719,-2.5538,-2.4745,0.0,-2.3241,-2.2463,0.0,0.0,0.0,0.0,0.0,0.0,0.0,-1.7496,-1.6265,-1.5182,-1.5152,-1.4223,-1.2862,-1.2835,-1.2559,-1.2305,-1.2305,-1.2305,-1.2305,-1.2305,-1.2305,-1.2305,-1.2305,-1.2305,-1.2305,-1.2305,-1.2118,-1.1844,-1.155,-1.1256,-1.0962,-1.0675,-1.0645,-1.0624,-1.0624,-1.0624,-1.0378,-0.9496,-0.7977,-0.6527,-0.5557,-0.5428,-0.5428,0.0,0.0,0.0,0.0,0.0,-0.1628,0.1258,0.0,0.0,0.0,0.6648,0.0,0.0,0.0,0.0,0.0,0.0,0.0,1.3786,0.0,1.3104,1.3361,1.1547,0.0,1.0508,0.9425,0.8857,0.8804,0.8804,0.8804,0.8804,0.8804,0.7943,0.648,0.5062,0.4519,0.4519,0.4519,0.4405,0.4125,0.2732,0.212,0.1786,0.0,0.0,0.0,0.0,0.0,0.0,0.0,-3.2182,-3.1982,-3.1795,-3.0842,-3.0043,-2.9817,-2.9792,-2.9792,-2.9792,-2.9792,-2.9641,-2.9302,-2.9277,-2.9023,-2.8602,-2.8295,-2.7931,-2.7555,-2.6388,-2.5256,0.0,0.0,-2.2563,-2.124,0.0,0.0,0.0,0.0,-1.9036,-1.8957,-1.7738,-1.6603,-1.5472,-1.5155,-1.423,-1.2986,-1.2619,-1.2405,-1.2305,-1.2305,-1.2305,-1.2305,-1.2305,-1.2305,-1.2305,-1.2305,-1.2305,-1.2271,-1.2091,-1.1957,-1.1764,-1.1296,-1.1082,-1.0922,-1.0698,-1.0624,-1.0624,-1.0624,-1.0624,-1.0498,-1.0174,-0.9134,-0.7832,-0.6465,-0.6203,-0.6009,0.0,0.0,0.0,0.0,0.0,0.0,-0.0333,0.0,0.2423,0.0,0.0,0.0,0.0,0.0,0.0,0.0,0.0,0.0,1.2919,0.0,1.1699,1.1949,1.0642,0.9911,0.9714,0.9105,0.8804,0.8804,0.8804,0.854,0.8103,0.767,0.6907,0.5873,0.4897,0.4519,0.4519,0.4519,0.4181,0.368,0.3065,0.2286,0.1452,-3.5554,0.0,-3.5279,0.0,-3.4461,-3.4109,-3.3171,-3.3031,-3.289,-3.2664,-3.1415,-3.0495,-3.0203,-3.0216,-2.9999,-2.9553,-2.9541,-2.9302,-2.8725,-2.8687,-2.8687,-2.8687,-2.831,0.0,-2.8436,-2.698,-2.586,-2.5025,-2.4305,0.0,0.0,0.0,0.0,0.0,-1.9844,-1.9367,-1.9178,-1.8382,-1.7284,-1.6095,-1.5682,-1.4828,-1.3725,-1.3336,-1.2945,-1.2732,-1.2732,-1.2519,-1.2305,-1.2305,-1.2245,-1.2191,-1.2278,-1.2245,-1.2138,-1.1931,-1.1744,-1.1523,-1.1109,-1.0929,-1.0815,-1.0672,-1.0624,-1.0624,-1.0624,-1.0624,-1.0561,-1.0301,-0.9722,-0.8748,-0.7046,-0.6719,-0.6396,0.0,0.0,0.0,0.0,0.0,0.0,0.0,0.027,0.1779,0.2713,0.0,0.0,0.0,0.0,0.0,0.0,0.0,0.0,0.0,0.0,0.0,0.0,0.0,0.9406,0.9057,0.8905,0.8804,0.8804,0.8586,0.8209,0.767,0.6691,0.6091,0.576,0.4842,0.4519,0.4519,0.4519,0.4125,0.3622,0.3398,0.2621,0.1675,-3.5604,-3.5504,-3.5504,-3.5504,-3.5504,-3.5133,-3.4163,-3.3959,-3.3671,-3.2749,-3.2593,-3.2249,-3.1241,-3.118,-3.0598,-2.9051,-2.8938,-2.8699,-2.8147,-2.8109,-2.8109,0.0,0.0,-2.7858,-2.7318,-2.7293,-2.6498,-2.5028,0.0,0.0,-2.1962,0.0,-2.0576,-2.0566,-2.0566,-2.0322,-1.9922,-1.9847,-1.8824,-1.7207,-1.7189,-1.6375,-1.5171,-1.5163,-1.4522,-1.3673,-1.3673,-1.3098,-1.2305,-1.2305,-1.2111,-1.1924,-1.2211,-1.2104,-1.187,-1.187,-1.1456,-1.1002,-1.0995,-1.0782,-1.0624,-1.0624,-1.0624,-1.0624,-1.0624,-1.0624,-1.0371,-0.9466,-0.9338,-0.8748,-0.7046,-0.6719,-0.6396,-0.5557,0.0,0.0,0.0,0.0,0.0,0.0,0.0428,0.1868,0.2656,0.0,0.0,0.0,0.0,0.0,0.0,0.0,0.0,1.1436,1.0868,0.0,1.0624,0.9686,0.9044,0.8811,0.8804,0.8804,0.8752,0.8049,0.7723,0.7616,0.614,0.5923,0.648,0.5062,0.4519,0.4519,0.4519,0.4519,0.4405,0.3566,0.3287,0.3065,-3.6399,-3.6275,-3.6117,-3.5619,-3.5504,-3.5359,-3.5067,-3.4986,-3.492,-3.4624,-3.4558,-3.4047,-3.2623,-3.1859,-3.1284,0.0,-2.9823,-2.9009,0.0,-2.7863,-2.7544,-2.7544,-2.718,-2.708,-2.7281,-2.6527,-2.5629,-2.4481,0.0,0.0,0.0,-2.1205,-2.0616,-1.9697,-1.9697,-1.9619,-1.9482,-1.9482,-1.873,-1.7494,-1.7288,-1.6515,-1.5429,-1.5254,-1.5021,-1.4736,-1.4736,-1.4522,-1.4132,-1.327,-1.2926,-1.2684,-1.1948,-1.1643,-1.1523,-1.1329,-1.1136,-1.0949,-1.0755,-1.0628,-1.0624,-1.0624,-1.0624,-1.0624,-1.0624,-1.0624,-1.0491,-1.0238,-1.0174,-0.9652,-0.7892,-0.7567,-0.7116,-0.562,0.0,0.0,0.0,0.0,0.0,0.0,-0.061,0.082,0.0,0.2775,0.0,0.0,0.0,0.0,0.0,0.0,0.0,0.0,1.0803,0.0,1.0624,0.9886,0.9069,0.8049,0.8049,0.8049,0.8049,0.783,0.745,0.6912,0.6475,0.5823,0.5117,0.468,0.4519,0.4519,0.4519,0.4519,0.446,0.4236,0.379,0.3289,-3.7203,-3.7024,-3.6798,-3.607,-3.5682,-3.5468,-3.5179,-3.4906,-3.4756,-3.4756,-3.4756,-3.4386,-3.3352,-3.2464,0.0,-3.0951,-3.0079,-2.9267,-2.8732,-2.7939,-2.7429,-2.7429,-2.6633,-2.6302,-2.664,0.0,0.0,-2.4432,-2.399,-2.3133,-2.2002,-2.1728,-2.0946,-1.9775,-1.9775,-1.9541,-1.9043,-1.9043,-1.8577,-1.7759,-1.7571,-1.7097,-1.6483,-1.6316,-1.6018,-1.5728,-1.5728,-1.5424,-1.4854,-1.4017,-1.3568,-1.3186,-1.2372,-1.1902,-1.1466,-1.1141,-1.0915,-1.0788,-1.0672,-1.0624,-1.0624,-1.0624,-1.0624,-1.0624,-1.0624,-1.0624,-1.0498,-1.0174,-1.011,-0.9588,-0.7827,-0.7502,-0.7051,-0.5624,0.0,-0.5428,-0.5428,0.0,0.0,0.0,0.0,0.0,0.0,0.2191,0.0,0.0,0.0,0.0,0.0,0.0,0.0,0.9935,0.9716,0.0,0.9518,0.9047,0.8447,0.7804,0.7985,0.783,0.7289,0.7289,0.6907,0.6145,0.5932,0.5441,0.4838,0.4625,0.4519,0.4519,0.4519,0.4519,0.4519,0.4519,0.4184,0.379,-3.789,-3.7719,0.0,0.0,-3.6009,0.0,-3.4695,-3.3997,-3.3546,-3.3546,-3.3561,-3.3455,-3.3365,-3.2856,-3.1745,-2.9914,0.0,0.0,0.0,-2.8139,-2.767,-2.767,-2.6319,0.0,-2.5602,-2.5034,-2.4745,-2.4707,-2.3772,-2.3285,-2.3171,-2.2332,-2.1498,-2.0579,-2.0508,-1.9788,-1.8654,-1.8594,-1.8369,-1.8008,-1.8008,-1.8008,-1.8008,-1.8008,-1.7432,-1.6706,-1.6706,-1.5825,-1.4687,-1.4585,-1.4115,-1.3474,-1.3314,-1.2578,-1.1707,-1.12,-1.0833,-1.0624,-1.0624,-1.0624,-1.0624,-1.0624,-1.0624,-1.0624,-1.0624,-1.0624,-1.0364,-0.9466,-0.9338,-0.8812,-0.7046,-0.6719,-0.6461,-0.5557,-0.5428,-0.5428,-0.5428,0.0,0.0,0.0,0.0,0.0,0.0,0.2089,0.2962,0.0,0.0,0.0,0.0,0.0,0.8734,0.8093,0.8007,0.7892,0.7683,0.7446,0.7459,0.7717,0.8286,0.7794,0.6529,0.6529,0.6145,0.5487,0.4842,0.4893,0.5378,0.4732,0.4519,0.4519,0.4519,0.4519,0.4519,0.4519,0.4519,0.4405,0.0,0.0,-3.6734,-3.5983,-3.5688,-3.5521,-3.5367,-3.4752,-3.4235,-3.4235,-3.3819,-3.311,-3.2108,-3.2302,-3.1723,-2.9795,-2.9491,-2.9334,-2.9252,-2.7917,-2.7169,-2.7169,-2.6307,-2.5816,-2.5816,-2.476,-2.3979,-2.3466,-2.3716,-2.3301,-2.2258,-2.2445,-2.1835,-2.0545,-1.9892,-1.9437,-1.9065,-1.8418,-1.8105,-1.8008,-1.8008,-1.8008,-1.8008,-1.8008,-1.7862,-1.7647,-1.7647,-1.7244,-1.6571,-1.5564,-1.4941,-1.4249,-1.2648,-1.2018,-1.1787,-1.1681,-1.1101,-1.0624,-1.0624,-1.0624,-1.0624,-1.0624,-1.0624,-1.0624,-1.0624,-1.0624,-1.0364,-0.9466,-0.9849,-0.9582,-0.7172,-0.7242,-0.7181,-0.5624,-0.5428,-0.5428,-0.5428,-0.3816,0.0,0.0,-0.1086,0.0068,0.0272,0.1084,0.2041,0.0,0.0,0.0,0.0,0.0,0.6738,0.7065,0.7661,0.7881,0.752,0.737,0.6861,0.6046,0.5823,0.5686,0.576,0.576,0.5651,0.5487,0.5324,0.5058,0.4732,0.457,0.4519,0.4519,0.4519,0.4519,0.4519,0.4519,0.4519,0.446,-3.7336,-3.7269,-3.7003,-3.6247,-3.5866,-3.5437,-3.4761,-3.4304,-3.385,-3.315,-3.2828,-3.2258,-3.1135,-3.1135,-3.0746,-2.9669,-2.9743,-2.9737,-2.9459,-2.8268,-2.7591,-2.7591,-2.6608,-2.5888,-2.5537,-2.465,-2.3803,-2.3078,-2.3452,-2.3194,-2.2457,-2.2738,-2.2277,-2.1164,-2.0268,-1.9683,-1.9222,-1.8185,-1.7725,-1.7725,-1.7725,-1.7607,-1.7451,-1.7646,-1.7598,-1.7422,-1.7422,-1.7148,-1.6675,-1.6037,-1.5491,-1.4925,-1.3778,-1.3166,-1.2801,-1.2451,-1.1538,-1.0681,-1.1045,-1.0863,-1.0624,-1.0624,-1.0624,-1.0624,-1.0624,-1.0624,-1.0364,-0.9466,-0.9658,-0.9326,-0.7111,-0.7111,-0.6985,-0.5624,-0.5428,-0.5226,-0.4821,-0.3547,0.0,-0.2142,-0.0874,0.0,0.0,0.0806,0.1685,0.2737,0.0,0.0,0.5488,0.5559,0.5761,0.6194,0.6577,0.6785,0.6641,0.6652,0.6352,0.5747,0.5624,0.5582,0.5613,0.5525,0.5324,0.5054,0.5378,0.5269,0.5003,0.5336,0.5281,0.4948,0.4948,0.4787,0.4519,0.4519,0.4519,0.4519,-3.7415,-3.7398,-3.7141,-3.634,-3.5712,-3.4939,-3.3693,-3.343,-3.2953,-3.1721,-3.1535,-3.1272,-3.0428,-2.9982,-2.9597,-2.9295,-2.9759,-2.9879,-2.946,-2.8682,-2.8206,-2.8206,-2.6947,-2.5942,-2.5301,-2.4567,-2.3716,-2.2887,-2.2887,-2.2887,-2.2887,-2.2887,-2.2515,-2.1836,-2.0934,-2.0112,-1.9318,-1.8001,-1.7471,-1.7471,-1.735,-1.7061,-1.6714,-1.7148,-1.7061,-1.6665,-1.6665,-1.6445,-1.6125,-1.6125,-1.5771,-1.5352,-1.5235,-1.4746,-1.4094,-1.3364,-1.2151,-1.1052,-1.1531,-1.1108,-1.0624,-1.0624,-1.0624,-1.0624,-1.0624,-1.0624,-1.0364,-0.9466,-0.9274,-0.8748,-0.7046,-0.6719,-0.6404,-0.5589,-0.5442,-0.51,-0.4175,0.0,-0.2342,-0.1407,-0.0538,0.0,0.0,0.0672,0.1541,0.2611,0.3413,0.0,0.0,0.5428,0.541,0.5518,0.5416,0.5413,0.5518,0.5792,0.5868,0.5812,0.6217,0.6126,0.5653,0.5437,0.5136,0.468,0.5269,0.5542,0.5706,0.6367,0.6258,0.5651,0.5651,0.5273,0.4625,0.4625,0.4625,0.4625,-3.522,-3.503,-3.4783,-3.4054,-3.3809,-3.3691,-3.3443,-3.2949,-3.2518,-3.2264,-3.1759,-3.095,-2.9805,-3.0074,-2.9699,-2.8081,-2.803,-2.8233,-2.8727,-2.8085,-2.772,-2.772,-2.691,-2.6372,-2.6264,-2.4489,-2.2968,-2.1744,-2.1744,-2.1744,-2.1744,-2.1744,-2.1688,-2.1505,-2.065,-2.017,-1.9981,-1.8419,-1.7719,-1.7657,-1.707,-1.6797,-1.6738,-1.6807,-1.6787,-1.6665,-1.6665,-1.6445,-1.6125,-1.6125,-1.5771,-1.5294,-1.4628,-1.4332,-1.4213,-1.4025,-1.3364,-1.2336,-1.1108,-1.0681,-1.0624,-1.0624,-1.0624,-1.0624,-1.0624,-1.0624,-1.0364,-0.9466,-0.9274,-0.8748,-0.7046,-0.6719,-0.6448,-0.5665,-0.5447,-0.5132,0.0,0.0,-0.2342,-0.1407,-0.0538,0.0,0.0,0.0135,0.0873,0.2544,0.2811,0.3613,0.5296,0.5428,0.5311,0.5206,0.5308,0.5311,0.5203,0.539,0.5353,0.51,0.5236,0.5147,0.4861,0.4836,0.5027,0.5378,0.5433,0.5873,0.6421,0.6534,0.6534,0.6421,0.6421,0.5982,0.5324,0.5324,0.5324,0.5273,-3.4092,-3.3914,-3.3795,-3.3457,-3.3406,-3.3271,-3.2865,-3.2866,-3.2663,-3.1896,-3.1589,-3.0886,-2.9517,-2.9344,-2.8795,-2.7488,-2.7133,-2.7098,-2.737,-2.6871,-2.6677,-2.7036,-2.6396,-2.5842,-2.5422,-2.4113,-2.295,-2.1953,-2.1953,-2.1801,-2.1493,-2.1493,-2.1493,-2.1493,-2.0583,-2.0226,-2.0087,-1.8703,-1.8073,-1.8013,-1.7265,-1.683,-1.6577,-1.6402,-1.623,-1.6016,-1.6016,-1.5889,-1.5713,-1.5713,-1.5576,-1.5352,-1.4932,-1.4874,-1.4746,-1.4332,-1.3606,-1.2757,-1.16,-1.0926,-1.0624,-1.0624,-1.0624,-1.0521,-1.0354,-1.0321,-1.0151,-0.9627,-0.9266,-0.8668,-0.7394,-0.691,-0.6424,-0.5656,-0.5406,0.0,0.0,-0.2969,-0.221,-0.0739,-0.0269,0.0,0.0,0.0,0.0727,0.2541,0.2706,0.349,0.5289,0.5281,0.5206,0.5131,0.5199,0.5203,0.5131,0.5125,0.5091,0.503,0.5206,0.5086,0.4687,0.4997,0.5242,0.5542,0.5923,0.6529,0.7235,0.7616,0.7563,0.7182,0.7182,0.6745,0.6091,0.6091,0.6091,0.5982,-3.3568,-3.3366,-3.3233,-3.3046,-3.2964,-3.2696,-3.2121,-3.251,-3.2446,-3.1198,-3.1056,-3.0547,-2.9182,-2.8576,-2.7971,-2.7274,-2.6659,-2.6383,-2.6421,-2.5742,-2.5634,-2.6333,-2.5869,-2.518,-2.4316,-2.3744,-2.3067,-2.2259,-2.2115,-2.177,-2.131,-2.1201,-2.1091,-2.1104,-2.039,-2.0097,-2.0017,-1.8872,-1.8374,-1.8318,-1.7423,-1.6806,-1.6467,-1.6078,-1.5703,-1.541,-1.541,-1.541,-1.541,-1.541,-1.541,-1.541,-1.541,-1.541,-1.5294,-1.4688,-1.3786,-1.2757,-1.1772,-1.1045,-1.0611,-1.0474,-1.0454,-1.0381,-1.008,-0.9893,-0.9768,-0.9733,-0.9063,-0.8276,-0.7547,-0.6935,-0.629,-0.5432,0.0,0.0,0.0,-0.2703,-0.1977,-0.02,0.0,0.0,0.0,0.0,0.0713,0.2492,0.2636,0.3398,0.5185,0.5145,0.5081,0.5081,0.5081,0.5114,0.5182,0.513,0.5112,0.5125,0.5611,0.5559,0.4973,0.5566,0.5909,0.6032,0.6637,0.7289,0.7996,0.8586,0.848,0.7937,0.7937,0.7503,0.6858,0.6858,0.6858,0.6745,-3.3811,-3.3277,-3.2789,-3.2046,-3.1602,-3.1326,-3.1275,-3.1326,-3.1089,-3.0285,-3.0184,-2.9671,-2.8343,-2.8132,-2.7867,-2.7243,-2.6611,-2.6251,-2.6375,-2.5215,-2.4851,-2.563,-2.563,-2.502,-2.3778,-2.3717,-2.307,-2.1739,-2.1198,-2.0878,-2.0828,-2.0233,-1.9924,-1.9924,-1.9872,-1.9808,-1.9756,-1.9011,-1.8667,-1.856,-1.7145,-1.6524,-1.6436,-1.573,-1.5439,-1.541,-1.541,-1.541,-1.541,-1.541,-1.541,-1.541,-1.541,-1.541,-1.541,-1.5352,-1.4204,-1.2642,-1.1115,-1.0624,-1.0557,-1.0214,-1.0147,-1.0074,-0.978,-0.9174,-0.8875,-0.957,-0.8498,-0.7374,-0.7315,-0.6616,-0.5843,-0.5251,0.0,0.0,-0.2883,-0.2579,-0.1878,-0.0194,0.0,0.0,0.0,0.0,0.0702,0.2418,0.2532,0.3208,0.4826,0.4942,0.4935,0.4935,0.4935,0.5067,0.5342,0.5736,0.5655,0.5128,0.6406,0.651,0.5772,0.6492,0.7052,0.7557,0.7616,0.8049,0.8699,0.8758,0.8752,0.8699,0.8699,0.8268,0.7616,0.7616,0.7616,0.7509,-3.308,-3.2581,-3.2171,-3.1841,-3.1487,-3.119,-3.119,-3.0818,-3.0429,-3.0142,-2.9702,-2.9036,-2.8025,-2.7888,-2.7631,-2.6965,-2.6372,-2.596,-2.5686,-2.4889,-2.4388,-2.4372,-2.4358,-2.4149,-2.3659,-2.3644,-2.3198,-2.23,-2.2081,-2.1785,-2.1342,-2.1086,-2.0756,-2.0396,-2.0396,-2.0207,-1.9798,-1.9475,-1.9359,-1.9307,-1.8274,-1.7578,-1.709,-1.6368,-1.5806,-1.541,-1.541,-1.541,-1.541,-1.541,-1.541,-1.541,-1.541,-1.541,-1.5167,-1.4213,-1.3391,-1.2381,-1.0765,-1.0287,-1.0214,-0.992,-0.9846,-0.9773,-0.9479,-0.9173,-0.9015,-0.9123,-0.8022,-0.7029,-0.7029,-0.6087,-0.5236,-0.4989,0.0,-0.4378,-0.2806,-0.2537,-0.1854,-0.0188,0.0,0.0188,0.0627,0.0678,0.1404,0.307,0.3197,0.3672,0.4854,0.483,0.4819,0.4914,0.4826,0.4918,0.5216,0.5353,0.5571,0.5943,0.6611,0.6817,0.6625,0.7162,0.7486,0.7723,0.7723,0.8103,0.8804,0.8804,0.8804,0.8804,0.8804,0.8646,0.8374,0.8374,0.8374,0.8262,-3.2911,-3.2533,-3.2142,-3.1914,-3.1424,-3.0946,-3.0708,-3.0133,-2.9668,-2.9431,-2.8738,-2.8061,-2.752,-2.7266,-2.6928,-2.6404,-2.6067,-2.5568,-2.4786,-2.4451,-2.4091,-2.3623,-2.3595,-2.3595,-2.3595,-2.3595,-2.3377,-2.2965,-2.2785,-2.2452,-2.1993,-2.1805,-2.1472,-2.1077,-2.0894,-2.0547,-2.0105,-1.9901,-1.9798,-1.9747,-1.898,-1.8394,-1.7852,-1.6866,-1.6208,-1.57,-1.5468,-1.541,-1.541,-1.541,-1.541,-1.541,-1.541,-1.5139,-1.4676,-1.3551,-1.2814,-1.2036,-1.061,-1.0179,-1.0079,-0.965,-0.9546,-0.9466,-0.9172,-0.888,-0.8658,-0.8466,-0.758,-0.6748,-0.6519,-0.5731,-0.5008,-0.4834,-0.4775,-0.4296,-0.2983,-0.2565,-0.1918,-0.0485,-0.0122,0.0304,0.1031,0.107,0.1768,0.3396,0.3563,0.3903,0.471,0.4721,0.4762,0.4914,0.5097,0.5373,0.5577,0.5432,0.5655,0.6379,0.6934,0.7237,0.748,0.7841,0.8049,0.8049,0.8049,0.8321,0.8804,0.8804,0.8804,0.8804,0.8804,0.8804,0.8804,0.8804,0.8804,0.8752,-3.3623,-3.3476,-3.2913,-3.2137,-3.1267,-3.0422,-2.9643,-2.9194,-2.8687,-2.7891,-2.7165,-2.6674,-2.6674,-2.6031,-2.5592,-2.5592,-2.5592,-2.506,-2.3786,-2.3958,-2.3951,-2.3593,-2.3595,-2.3595,-2.3595,-2.3595,-2.3595,-2.3595,-2.3009,-2.2694,-2.2694,-2.2039,-2.1697,-2.1697,-2.1064,-2.0795,-2.0746,-2.0105,-1.9798,-1.9747,-1.898,-1.8715,-1.8555,-1.709,-1.6482,-1.6368,-1.57,-1.541,-1.541,-1.541,-1.541,-1.54,-1.54,-1.4648,-1.3798,-1.3798,-1.2872,-1.1701,-1.0771,-1.0415,-1.0089,-0.9398,-0.9183,-0.9103,-0.8871,-0.8209,-0.7723,-0.7723,-0.7128,-0.6367,-0.5651,-0.5487,-0.5273,-0.4625,-0.4519,-0.4236,-0.3511,-0.2676,-0.1921,-0.1169,-0.0412,0.0294,0.1057,0.1115,0.1735,0.3297,0.34,0.3735,0.4463,0.4609,0.4762,0.4914,0.586,0.6472,0.6715,0.6108,0.602,0.6442,0.73,0.7864,0.8217,0.8616,0.8804,0.8811,0.8804,0.8804,0.8811,0.8804,0.8804,0.8811,0.8804,0.8804,0.8804,0.8804,0.8804,0.8804,-3.2063,-3.1792,-3.1441,-3.1207,-3.0676,-3.0114,-2.959,-2.8972,-2.822,-2.7148,-2.6387,-2.5727,-2.5203,-2.4949,-2.4814,-2.4814,-2.4814,-2.4506,-2.377,-2.3471,-2.328,-2.3186,-2.3813,-2.4158,-2.4158,-2.3794,-2.3595,-2.3595,-2.3421,-2.3334,-2.3334,-2.3128,-2.2801,-2.2392,-2.2221,-2.1657,-2.0795,-2.0597,-2.0245,-1.9798,-1.9579,-1.915,-1.8661,-1.8232,-1.7413,-1.6492,-1.6265,-1.5864,-1.541,-1.541,-1.5215,-1.4922,-1.4609,-1.426,-1.3817,-1.2797,-1.2079,-1.1337,-0.9962,-0.9404,-0.9192,-0.8985,-0.8938,-0.8918,-0.8824,-0.8646,-0.848,-0.848,-0.745,-0.6534,-0.6312,-0.5441,-0.4732,-0.4515,-0.4519,-0.407,-0.2732,-0.2343,-0.1567,0.0227,0.0624,0.1247,0.2546,0.2659,0.3042,0.4073,0.4181,0.4284,0.4616,0.4667,0.5099,0.5926,0.6233,0.679,0.7632,0.7173,0.737,0.8108,0.7914,0.8347,0.924,0.8923,0.8918,0.9044,0.8898,0.9061,0.9465,0.9008,0.9061,0.9465,0.8956,0.8804,0.8804,0.8804,0.8804,0.8857,-3.1329,-3.1206,-3.0939,-3.063,-3.0194,-2.9597,-2.8722,-2.7979,-2.7161,-2.6153,-2.5263,-2.4661,-2.4523,-2.4222,-2.4052,-2.4052,-2.3799,-2.3611,-2.3566,-2.3309,-2.3275,-2.3586,-2.3923,-2.3957,-2.3599,-2.3122,-2.2847,-2.2847,-2.2847,-2.2847,-2.2847,-2.2847,-2.2664,-2.2279,-2.2033,-2.1473,-2.0743,-2.03,-1.9833,-1.9443,-1.9257,-1.8908,-1.8479,-1.816,-1.7652,-1.7016,-1.6698,-1.6269,-1.5833,-1.5652,-1.5143,-1.4482,-1.4165,-1.3801,-1.3234,-1.2069,-1.169,-1.1247,-0.9484,-0.9298,-0.9465,-0.8956,-0.8804,-0.8804,-0.8804,-0.8804,-0.8646,-0.8049,-0.7235,-0.6426,-0.5878,-0.5062,-0.4405,-0.407,-0.4015,-0.3622,-0.2397,-0.1952,-0.1171,0.0446,0.096,0.1757,0.3181,0.3386,0.3733,0.4467,0.4732,0.4938,0.4986,0.5455,0.6041,0.6753,0.7293,0.7785,0.8334,0.8448,0.8617,0.879,0.812,0.8422,0.9492,0.9025,0.8905,0.9058,0.8884,0.9159,0.9762,0.9061,0.9361,1.0115,0.9465,0.9361,0.9614,0.9614,0.9614,0.9666,-3.0815,-3.0962,-3.0742,-3.0008,-2.958,-2.8833,-2.7319,-2.6578,-2.5883,-2.5062,-2.4104,-2.3714,-2.4326,-2.3799,-2.3362,-2.3333,-2.2711,-2.2598,-2.3257,-2.3291,-2.3596,-2.4255,-2.3815,-2.3121,-2.2279,-2.1941,-2.1813,-2.1813,-2.1759,-2.1759,-2.1759,-2.1734,-2.1695,-2.1695,-2.1041,-2.0779,-2.064,-1.9534,-1.9035,-1.8943,-1.8427,-1.8204,-1.8157,-1.7472,-1.7454,-1.7706,-1.6983,-1.6591,-1.6294,-1.5813,-1.4968,-1.4019,-1.398,-1.3332,-1.2391,-1.1738,-1.1593,-1.1316,-0.9413,-0.971,-1.032,-0.9113,-0.8804,-0.8804,-0.8699,-0.8699,-0.8321,-0.6912,-0.6534,-0.6095,-0.4846,-0.446,-0.4181,-0.34,-0.3234,-0.2954,-0.223,-0.1452,-0.067,0.0112,0.0976,0.2022,0.3312,0.3615,0.4032,0.4636,0.5273,0.5655,0.5723,0.6707,0.7413,0.7607,0.8805,0.9334,0.9193,0.9925,0.9825,0.8841,0.8143,0.8323,0.9176,0.8938,0.8871,0.895,0.8923,0.9316,0.9917,0.9263,0.971,1.0813,1.0167,1.0261,1.0813,1.0813,1.0813,1.0813,-2.7622,-2.764,-2.7585,-2.742,-2.7299,-2.7018,-2.6363,-2.6121,-2.5661,-2.4601,-2.4252,-2.3963,-2.3533,-2.334,-2.3135,-2.2876,-2.2511,-2.2378,-2.253,-2.2547,-2.2615,-2.2784,-2.2319,-2.195,-2.1761,-2.2385,-2.2703,-2.2703,-2.2368,-2.2179,-2.2141,-2.1838,-2.1695,-2.1695,-2.156,-2.1193,-2.064,-2.0002,-1.9445,-1.8943,-1.8427,-1.8204,-1.8204,-1.8049,-1.7702,-1.7175,-1.6587,-1.5949,-1.5257,-1.4335,-1.3866,-1.3584,-1.3262,-1.2987,-1.2653,-1.1959,-1.1377,-1.0813,-0.9865,-0.9413,-0.9159,-0.8857,-0.8804,-0.8646,-0.8049,-0.7937,-0.767,-0.6804,-0.6145,-0.5651,-0.5324,-0.4395,-0.3566,-0.3345,-0.2841,-0.2174,-0.1452,-0.0725,0.0281,0.1791,0.2565,0.3349,0.4282,0.4829,0.5364,0.61,0.6258,0.6643,0.7334,0.7302,0.8244,1.021,1.0232,1.0836,1.2081,1.2071,1.109,0.9136,0.8948,0.9007,0.9176,0.8938,0.9245,0.998,0.9671,1.0261,1.1316,1.0669,1.0864,1.1516,1.0864,1.0661,1.0813,1.0813,1.0813,1.0864,-2.6612,-2.6612,-2.6612,-2.6612,-2.6612,-2.6402,-2.5812,-2.5584,-2.5139,-2.4147,-2.388,-2.3625,-2.3242,-2.3087,-2.2857,-2.2554,-2.2388,-2.231,-2.231,-2.231,-2.231,-2.231,-2.2061,-2.1928,-2.1928,-2.2403,-2.2459,-2.2059,-2.1802,-2.1577,-2.1327,-2.1124,-2.0933,-2.0737,-2.0737,-2.0555,-2.0201,-1.9658,-1.9086,-1.8524,-1.7987,-1.7613,-1.74,-1.74,-1.7322,-1.7204,-1.6872,-1.6124,-1.511,-1.3881,-1.3379,-1.3174,-1.2949,-1.2881,-1.2774,-1.203,-1.1774,-1.1584,-1.0568,-1.0012,-0.9666,-0.9361,-0.9061,-0.8586,-0.7883,-0.7723,-0.7396,-0.6308,-0.576,-0.5378,-0.5058,-0.4119,-0.3289,-0.2843,-0.2174,-0.1396,-0.0671,0.0056,0.0954,0.2229,0.3031,0.3966,0.5135,0.5716,0.6204,0.6588,0.7219,0.7901,0.8582,0.9149,1.0191,1.1764,1.1753,1.221,1.3303,1.2957,1.2233,1.1099,1.0753,1.0464,1.03,1.0128,1.0264,1.0527,1.034,1.0864,1.1765,1.1065,1.1557,1.2696,1.2043,1.2132,1.2657,1.2657,1.2473,1.2248,-2.6234,-2.6234,-2.6232,-2.619,-2.619,-2.597,-2.5311,-2.496,-2.4556,-2.3886,-2.3544,-2.3369,-2.3369,-2.3105,-2.2841,-2.2561,-2.2497,-2.247,-2.247,-2.247,-2.2443,-2.236,-2.236,-2.2349,-2.231,-2.231,-2.1945,-2.1229,-2.1134,-2.091,-2.0501,-2.0449,-2.0193,-1.9818,-1.9818,-1.9747,-1.9639,-1.9132,-1.865,-1.8185,-1.7544,-1.7034,-1.6637,-1.6522,-1.6823,-1.7237,-1.7135,-1.6265,-1.5026,-1.3921,-1.3263,-1.2929,-1.3017,-1.2968,-1.2822,-1.2267,-1.2335,-1.2304,-1.1124,-1.061,-1.0312,-0.9762,-0.9211,-0.8586,-0.7723,-0.7503,-0.7122,-0.576,-0.5433,-0.5109,-0.4401,-0.368,-0.2899,-0.195,-0.1228,-0.0447,0.028,0.1006,0.1738,0.238,0.3442,0.4679,0.6107,0.6657,0.697,0.7231,0.8243,0.9155,0.9775,1.1154,1.2212,1.2834,1.3084,1.3551,1.4157,1.377,1.3718,1.3949,1.3341,1.2578,1.1814,1.1903,1.1835,1.1582,1.1582,1.1899,1.24,1.1846,1.254,1.3909,1.3358,1.3784,1.4698,1.4698,1.4376,1.3862,-2.483,-2.4778,-2.4744,-2.454,-2.452,-2.4483,-2.4373,-2.4335,-2.426,-2.415,-2.4094,-2.4074,-2.4074,-2.3774,-2.3562,-2.35,-2.323,-2.3087,-2.3087,-2.3087,-2.2965,-2.266,-2.2634,-2.2537,-2.231,-2.231,-2.2237,-2.2106,-2.1735,-2.1491,-2.143,-2.1086,-2.0649,-2.0212,-2.0212,-2.0035,-1.9639,-1.9132,-1.8855,-1.8688,-1.7706,-1.7271,-1.7146,-1.668,-1.6572,-1.6535,-1.6029,-1.5051,-1.4005,-1.3826,-1.3385,-1.2968,-1.3505,-1.3324,-1.2968,-1.3399,-1.2346,-1.1023,-1.0864,-0.9961,-0.9061,-0.8956,-0.8857,-0.8427,-0.7074,-0.675,-0.6529,-0.5651,-0.5058,-0.4401,-0.3622,-0.2843,-0.1895,-0.0501,0.0335,0.1061,0.1785,0.2565,0.319,0.3558,0.503,0.6607,0.8106,0.8091,0.8497,0.9691,0.9708,1.0174,1.1427,1.1738,1.2529,1.3831,1.3999,1.47,1.6095,1.6042,1.6342,1.7016,1.6917,1.5488,1.2968,1.3614,1.4192,1.4676,1.4676,1.48,1.4978,1.4919,1.4737,1.456,1.4468,1.456,1.4698,1.4698,1.4652,1.456,-2.4685,-2.467,-2.4639,-2.4561,-2.4426,-2.441,-2.4528,-2.4339,-2.4247,-2.4339,-2.4266,-2.419,-2.419,-2.3896,-2.361,-2.3455,-2.33,-2.3189,-2.3189,-2.3189,-2.3141,-2.2996,-2.2972,-2.2923,-2.2798,-2.2798,-2.2721,-2.2527,-2.2186,-2.1869,-2.1598,-2.143,-2.1102,-2.0682,-2.0682,-2.0465,-2.0019,-1.9793,-1.9398,-1.8855,-1.838,-1.8027,-1.7706,-1.7146,-1.6951,-1.6824,-1.594,-1.5276,-1.4767,-1.4422,-1.392,-1.3467,-1.3732,-1.3372,-1.2978,-1.3238,-1.2696,-1.195,-1.195,-1.0981,-0.9917,-0.9917,-0.904,-0.799,-0.7343,-0.6583,-0.5651,-0.4498,-0.4061,-0.3624,-0.2843,-0.1726,-0.0779,-0.0111,0.1076,0.194,0.2181,0.2994,0.4154,0.5624,0.7671,0.9124,0.9547,1.0431,1.1144,1.1553,1.2382,1.3269,1.41,1.4553,1.5175,1.6018,1.6063,1.6599,1.7743,1.7302,1.7468,1.8221,1.8221,1.723,1.5309,1.5658,1.5842,1.5919,1.5919,1.5764,1.5485,1.5485,1.537,1.5186,1.5186,1.5421,1.5656,1.5332,1.5186,1.5141]}]]